[[{"header":{"parameterUnit":"m.s-1","parameterCategory":1,"la1":30.6,"la2":28.766,"lo1":-90.7593,"lo2":-88.6598,"dy":0.0162,"dx":0.0183,"nx":116,"ny":114,"refTime":"2024-02-27T18:00:00:Z","depth":0,"parameterNumber":2,"parameterNumberName":"U-component_of_WINDS"},"data":[0.0,0.0,0.0,0.0,0.0,0.0,0.0,0.0,0.0,0.0,0.0,0.0,0.0,0.0,0.0,0.0,0.0,0.0,0.0,0.0,0.0,0.0,0.0,0.0,0.0,0.0,0.0,0.0,0.0,0.0,0.0,0.0,0.0,0.0,0.0,0.0,0.0,0.0,0.0,0.0,0.0,0.0,0.0,0.0,0.0,0.0,0.0,0.0,0.0,0.0,0.0,0.0,0.0,0.0,0.0,0.0,0.0,0.0,0.0,0.0,0.0,0.0,0.0,0.0,0.0,0.0,0.0,0.0,0.0,0.0,0.0,0.0,0.0,0.0,0.0,0.0,0.0,0.0,0.0,0.0,0.0,0.0,0.0,0.0,0.0,0.0,0.0,0.0,0.0,0.0,0.0,0.0,0.0,0.0,0.0,0.0,0.0,0.0,0.0,0.0,0.0,0.0,0.0,0.0,0.0,0.0,0.0,0.0,0.0,0.0,0.0,0.0,0.0,0.0,0.0,0.0,0.0,0.0,0.0,0.0,0.0,0.0,0.0,0.0,0.0,0.0,0.0,0.0,0.0,0.0,0.0,0.0,0.0,0.0,0.0,0.0,0.0,0.0,0.0,0.0,0.0,0.0,0.0,0.0,0.0,0.0,0.0,0.0,0.0,0.0,0.0,0.0,0.0,0.0,0.0,0.0,0.0,0.0,0.0,0.0,0.0,0.0,0.0,0.0,0.0,0.0,0.0,0.0,0.0,0.0,0.0,0.0,0.0,0.0,0.0,0.0,0.0,0.0,0.0,0.0,0.0,0.0,0.0,0.0,0.0,0.0,0.0,0.0,0.0,0.0,0.0,0.0,0.0,0.0,0.0,0.0,0.0,0.0,0.0,0.0,0.0,0.0,0.0,0.0,0.0,0.0,0.0,0.0,0.0,0.0,0.0,0.0,0.0,0.0,0.0,0.0,0.0,0.0,0.0,0.0,0.0,0.0,0.0,0.0,0.0,0.0,0.0,0.0,0.0,0.0,0.0,0.0,0.0,0.0,0.0,0.0,0.0,0.0,0.0,0.0,0.0,0.0,0.0,0.0,0.0,0.0,0.0,0.0,0.0,0.0,0.0,0.0,0.0,0.0,0.0,0.0,0.0,0.0,0.0,0.0,0.0,0.0,0.0,0.0,0.0,0.0,0.0,0.0,0.0,0.0,0.0,0.0,0.0,0.0,0.0,0.0,0.0,0.0,0.0,0.0,0.0,0.0,0.0,0.0,0.0,0.0,0.0,0.0,0.0,0.0,0.0,0.0,0.0,0.0,0.0,0.0,0.0,0.0,0.0,0.0,0.0,0.0,0.0,0.0,0.0,0.0,0.0,0.0,0.0,0.0,0.0,0.0,0.0,0.0,0.0,0.0,0.0,0.0,0.0,0.0,0.0,0.0,0.0,0.0,0.0,0.0,0.0,0.0,0.0,0.0,0.0,0.0,0.0,0.0,0.0,0.0,0.0,0.0,0.0,0.0,0.0,0.0,0.0,0.0,0.0,0.0,0.0,0.0,0.0,0.0,0.0,0.0,0.0,0.0,0.0,0.0,0.0,0.0,0.0,0.0,0.0,0.0,0.0,0.0,0.0,0.0,0.0,0.0,0.0,0.0,0.0,0.0,0.0,0.0,0.0,0.0,0.0,0.0,0.0,0.0,0.0,0.0,0.0,0.0,0.0,0.0,0.0,0.0,0.0,0.0,0.0,0.0,0.0,0.0,0.0,0.0,0.0,0.0,0.0,0.0,0.0,0.0,0.0,0.0,0.0,0.0,0.0,0.0,0.0,0.0,0.0,0.0,0.0,0.0,0.0,0.0,0.0,0.0,0.0,0.0,0.0,0.0,0.0,0.0,0.0,0.0,0.0,0.0,0.0,0.0,0.0,0.0,0.0,0.0,0.0,0.0,0.0,0.0,0.0,0.0,0.0,0.0,0.0,0.0,0.0,0.0,0.0,0.0,0.0,0.0,0.0,0.0,0.0,0.0,0.0,0.0,0.0,0.0,0.0,0.0,0.0,0.0,0.0,0.0,0.0,0.0,0.0,0.0,0.0,0.0,0.0,0.0,0.0,0.0,0.0,0.0,0.0,0.0,0.0,0.0,0.0,0.0,0.0,0.0,0.0,0.0,0.0,0.0,0.0,0.0,0.0,0.0,0.0,0.0,0.0,0.0,0.0,0.0,0.0,0.0,0.0,0.0,0.0,0.0,0.0,0.0,0.0,0.0,0.0,0.0,0.0,0.0,0.0,0.0,0.0,0.0,0.0,0.0,0.0,0.0,0.0,0.0,0.0,0.0,0.0,0.0,0.0,0.0,0.0,0.0,0.0,0.0,0.0,0.0,0.0,0.0,0.0,0.0,0.0,0.0,0.0,0.0,0.0,0.0,0.0,0.0,0.0,0.0,0.0,0.0,0.0,0.0,0.0,0.0,0.0,0.0,0.0,0.0,0.0,0.0,0.0,0.0,0.0,0.0,0.0,0.0,0.0,0.0,0.0,0.0,0.0,0.0,0.0,0.0,0.0,0.0,0.0,0.0,0.0,0.0,0.0,0.0,0.0,0.0,0.0,0.0,0.0,0.0,0.0,0.0,0.0,0.0,0.0,0.0,0.0,0.0,0.0,0.0,0.0,0.0,0.0,0.0,0.0,0.0,0.0,0.0,0.0,0.0,0.0,0.0,0.0,0.0,0.0,0.0,0.0,0.0,0.0,0.0,0.0,0.0,0.0,0.0,0.0,0.0,0.0,0.0,0.0,0.0,0.0,0.0,0.0,0.0,0.0,0.0,0.0,0.0,0.0,0.0,0.0,0.0,0.0,0.0,0.0,0.0,0.0,0.0,0.0,0.0,0.0,0.0,0.0,0.0,0.0,0.0,0.0,0.0,0.0,0.0,0.0,0.0,0.0,0.0,0.0,0.0,0.0,0.0,0.0,0.0,0.0,0.0,0.0,0.0,0.0,0.0,0.0,0.0,0.0,0.0,0.0,0.0,0.0,0.0,0.0,0.0,0.0,0.0,0.0,0.0,0.0,0.0,0.0,0.0,0.0,0.0,0.0,0.0,0.0,0.0,0.0,0.0,0.0,0.0,0.0,0.0,0.0,0.0,0.0,0.0,0.0,0.0,0.0,0.0,0.0,0.0,0.0,0.0,0.0,0.0,0.0,0.0,0.0,0.0,0.0,0.0,0.0,0.0,0.0,0.0,0.0,0.0,0.0,0.0,0.0,0.0,0.0,0.0,0.0,0.0,0.0,0.0,0.0,0.0,0.0,0.0,0.0,0.0,0.0,0.0,0.0,0.0,0.0,0.0,0.0,0.0,0.0,0.0,0.0,0.0,0.0,0.0,0.0,0.0,0.0,0.0,0.0,0.0,0.0,0.0,0.0,0.0,0.0,0.0,0.0,0.0,0.0,0.0,0.0,0.0,0.0,0.0,0.0,0.0,0.0,0.0,0.0,0.0,0.0,0.0,0.0,0.0,0.0,0.0,0.0,0.0,0.0,0.0,0.0,0.0,0.0,0.0,0.0,0.0,0.0,0.0,0.0,0.0,0.0,0.0,0.0,0.0,0.0,0.0,0.0,0.0,0.0,0.0,0.0,0.0,0.0,0.0,0.0,0.0,0.0,0.0,0.0,0.0,0.0,0.0,0.0,0.0,0.0,0.0,0.0,0.0,0.0,0.0,0.0,0.0,0.0,0.0,0.0,0.0,0.0,0.0,0.0,0.0,0.0,0.0,0.0,0.0,0.0,0.0,0.0,0.0,0.0,0.0,0.0,0.0,0.0,0.0,0.0,0.0,0.0,0.0,0.0,0.0,0.0,0.0,0.0,0.0,0.0,0.0,0.0,0.0,0.0,0.0,0.0,0.0,0.0,0.0,0.0,0.0,0.0,0.0,0.0,0.0,0.0,0.0,0.0,0.0,0.0,0.0,0.0,0.0,0.0,0.0,0.0,0.0,0.0,0.0,0.0,0.0,0.0,0.0,0.0,0.0,0.0,0.0,0.0,0.0,0.0,0.0,0.0,0.0,0.0,0.0,0.0,0.0,0.0,0.0,0.0,0.0,0.0,0.0,0.0,0.0,0.0,0.0,0.0,0.0,0.0,0.0,0.0,0.0,0.0,0.0,0.0,0.0,0.0,0.0,0.0,0.0,0.0,0.0,0.0,0.0,0.0,0.0,0.0,0.0,0.0,0.0,0.0,0.0,0.0,0.0,0.0,0.0,0.0,0.0,0.0,0.0,0.0,0.0,0.0,0.0,0.0,0.0,0.0,0.0,0.0,0.0,0.0,0.0,0.0,0.0,0.0,0.0,0.0,0.0,0.0,0.0,0.0,0.0,0.0,0.0,0.0,0.0,0.0,0.0,0.0,0.0,0.0,0.0,0.0,0.0,0.0,0.0,0.0,0.0,0.0,0.0,0.0,0.0,0.0,0.0,0.0,0.0,0.0,0.0,0.0,0.0,0.0,0.0,0.0,0.0,0.0,0.0,0.0,0.0,0.0,0.0,0.0,0.0,0.0,0.0,0.0,0.0,0.0,0.0,0.0,0.0,0.0,0.0,0.0,0.0,0.0,0.0,0.0,0.0,0.0,0.0,0.0,0.0,0.0,0.0,0.0,0.0,0.0,0.0,0.0,0.0,0.0,0.0,0.0,0.0,0.0,0.0,0.0,0.0,0.0,0.0,0.0,0.0,0.0,0.0,0.0,0.0,0.0,0.0,0.0,0.0,0.0,0.0,0.0,0.0,0.0,0.0,0.0,0.0,0.0,0.0,0.0,0.0,0.0,0.0,0.0,0.0,0.0,0.0,0.0,0.0,0.0,0.0,0.0,0.0,0.0,0.0,0.0,0.0,0.0,0.0,0.0,0.0,0.0,0.0,0.0,0.0,0.0,0.0,0.0,0.0,0.0,0.0,0.0,0.0,0.0,0.0,0.0,0.0,0.0,0.0,0.0,0.0,0.0,0.0,0.0,0.0,0.0,0.0,0.0,0.0,0.0,0.0,0.0,0.0,0.0,0.0,0.0,0.0,0.0,0.0,0.0,0.0,0.0,0.0,0.0,0.0,0.0,0.0,0.0,0.0,0.0,0.0,0.0,0.0,0.0,0.0,0.0,0.0,0.0,0.0,0.0,0.0,0.0,0.0,0.0,0.0,0.0,0.0,0.0,0.0,0.0,0.0,0.0,0.0,0.0,0.0,0.0,0.0,0.0,0.0,0.0,0.0,0.0,0.0,0.0,0.0,0.0,0.0,0.0,0.0,0.0,0.0,0.0,0.0,0.0,0.0,0.0,0.0,0.0,0.0,0.0,0.0,0.0,0.0,0.0,0.0,0.0,0.0,0.0,0.0,0.0,0.0,0.0,0.0,0.0,0.0,0.0,0.0,0.0,0.0,0.0,0.0,0.0,0.0,0.0,0.0,0.0,0.0,0.0,0.0,0.0,0.0,0.0,0.0,0.0,0.0,0.0,0.0,0.0,0.0,0.0,0.0,0.0,0.0,0.0,0.0,0.0,0.0,0.0,0.0,0.0,0.0,0.0,0.0,0.0,0.0,0.0,0.0,0.0,0.0,0.0,0.0,0.0,0.0,0.0,0.0,0.0,0.0,0.0,0.0,0.0,0.0,0.0,0.0,0.0,0.0,0.0,0.0,0.0,0.0,0.0,0.0,0.0,0.0,0.0,0.0,0.0,0.0,0.0,0.0,0.0,0.0,0.0,0.0,0.0,0.0,0.0,0.0,0.0,0.0,0.0,0.0,0.0,0.0,0.0,0.0,0.0,0.0,0.0,0.0,0.0,0.0,0.0,0.0,0.0,0.0,0.0,0.0,0.0,0.0,0.0,0.0,0.0,0.0,0.0,0.0,0.0,0.0,0.0,0.0,0.0,0.0,0.0,0.0,0.0,0.0,0.0,0.0,0.0,0.0,0.0,0.0,0.0,0.0,0.0,0.0,0.0,0.0,0.0,0.0,0.0,0.0,0.0,0.0,0.0,0.0,0.0,0.0,0.0,0.0,0.0,0.0,0.0,0.0,0.0,0.0,0.0,0.0,0.0,0.0,0.0,0.0,0.0,0.0,0.0,0.0,0.0,0.0,-7.5374,-7.5139,0.0,0.0,0.0,0.0,0.0,0.0,0.0,0.0,0.0,0.0,0.0,0.0,0.0,0.0,0.0,0.0,0.0,0.0,0.0,0.0,0.0,0.0,0.0,0.0,0.0,0.0,-7.2226,-7.2496,-7.2496,-7.2496,-7.2496,-7.2496,-7.0877,-7.0015,-6.998,-6.882,-6.8355,-6.8808,-6.8074,-6.7211,-6.626,-6.6935,-6.7555,-6.8218,0.0,0.0,0.0,0.0,0.0,0.0,0.0,0.0,0.0,0.0,0.0,0.0,0.0,0.0,0.0,0.0,0.0,0.0,0.0,0.0,0.0,0.0,0.0,0.0,0.0,0.0,0.0,0.0,0.0,0.0,0.0,0.0,0.0,0.0,0.0,0.0,0.0,0.0,0.0,0.0,0.0,0.0,0.0,0.0,0.0,0.0,0.0,0.0,0.0,0.0,0.0,0.0,0.0,0.0,0.0,0.0,0.0,0.0,0.0,0.0,0.0,0.0,0.0,0.0,0.0,0.0,0.0,0.0,0.0,0.0,-7.4444,-7.4035,0.0,0.0,0.0,0.0,0.0,0.0,0.0,0.0,0.0,0.0,0.0,0.0,0.0,0.0,0.0,0.0,0.0,0.0,0.0,0.0,0.0,0.0,0.0,-6.9849,-7.0635,-7.238,-7.2386,-7.2349,-7.2496,-7.2386,-7.2349,-7.2496,-7.0556,-6.995,-7.1073,-6.9216,-6.8743,-6.9669,-6.8004,-6.6704,-6.5854,-6.6232,-6.6229,-6.5917,0.0,0.0,0.0,0.0,0.0,0.0,0.0,0.0,0.0,0.0,0.0,0.0,0.0,0.0,0.0,0.0,0.0,0.0,0.0,0.0,0.0,0.0,0.0,0.0,0.0,0.0,0.0,0.0,0.0,0.0,0.0,0.0,0.0,0.0,0.0,0.0,0.0,0.0,0.0,0.0,0.0,0.0,0.0,0.0,0.0,0.0,0.0,0.0,0.0,0.0,0.0,0.0,0.0,0.0,0.0,0.0,0.0,0.0,0.0,0.0,0.0,0.0,0.0,0.0,-7.572,-7.5431,-7.518,-7.5047,-7.4289,-7.3076,-7.3579,-7.3119,-7.2098,-7.2683,0.0,0.0,0.0,0.0,0.0,0.0,0.0,0.0,0.0,0.0,0.0,0.0,0.0,0.0,0.0,0.0,0.0,0.0,0.0,0.0,0.0,-7.0434,-7.1318,-7.2409,-7.1872,-7.1762,-7.2459,-7.1872,-7.1798,-7.2459,-7.2189,-7.1464,-7.0293,-7.0621,-6.9888,-6.8017,-6.6112,-6.5137,-6.5154,-6.5308,-6.5291,-6.5234,-6.7255,0.0,0.0,0.0,0.0,0.0,0.0,0.0,0.0,0.0,0.0,0.0,0.0,0.0,0.0,0.0,0.0,0.0,0.0,0.0,0.0,0.0,0.0,0.0,0.0,0.0,0.0,0.0,0.0,0.0,0.0,0.0,0.0,0.0,0.0,0.0,0.0,0.0,0.0,0.0,0.0,0.0,0.0,0.0,-7.1701,-7.019,0.0,0.0,0.0,0.0,0.0,0.0,0.0,0.0,0.0,0.0,0.0,0.0,0.0,-7.5814,-7.4762,-7.4747,-7.446,-7.384,-7.4295,-7.3874,-7.2671,-7.3124,-7.271,-7.1634,-7.1186,0.0,-7.1804,-7.1434,0.0,0.0,0.0,0.0,0.0,0.0,0.0,0.0,0.0,0.0,0.0,0.0,0.0,0.0,0.0,0.0,0.0,0.0,0.0,0.0,0.0,-6.9713,-7.0107,-7.1081,-7.0844,-7.077,-7.1138,-7.1688,-7.2129,-7.2496,-7.2092,-7.1725,-7.1468,-7.0477,-6.8788,-6.6366,-6.5295,-6.4593,-6.4218,-6.4339,-6.4374,-6.4397,-6.5518,-6.6177,-6.6368,-6.6358,0.0,0.0,0.0,0.0,0.0,0.0,0.0,0.0,0.0,0.0,0.0,0.0,0.0,0.0,0.0,0.0,0.0,0.0,0.0,0.0,0.0,0.0,0.0,0.0,0.0,0.0,0.0,0.0,0.0,0.0,0.0,0.0,0.0,0.0,0.0,0.0,0.0,0.0,0.0,-7.2183,-7.0809,-6.911,-7.1261,-7.2326,0.0,0.0,0.0,0.0,0.0,0.0,0.0,0.0,0.0,-7.5063,-7.5775,-7.5829,-7.5257,-7.4207,-7.3695,-7.3666,-7.2838,-7.1916,-7.0856,-7.1206,-7.0972,-7.0214,-7.0103,-7.0276,-7.0625,-7.0536,-7.0491,-7.0458,0.0,0.0,0.0,0.0,-6.8999,-6.7944,0.0,0.0,0.0,0.0,0.0,0.0,0.0,0.0,0.0,0.0,0.0,0.0,-6.9,-6.8726,-6.872,-6.9394,-6.9302,-6.9339,-6.9779,-7.0734,-7.1541,-7.2165,-7.1651,-7.1578,-7.2202,-6.9633,-6.7363,-6.5483,-6.4809,-6.4271,-6.3829,-6.3911,-6.3932,-6.3949,-6.4245,-6.4757,-6.5313,-6.4717,-6.5122,0.0,0.0,0.0,0.0,0.0,0.0,0.0,0.0,0.0,0.0,0.0,0.0,0.0,0.0,0.0,0.0,0.0,0.0,0.0,0.0,0.0,0.0,0.0,0.0,0.0,0.0,0.0,0.0,0.0,0.0,0.0,0.0,0.0,0.0,0.0,0.0,0.0,0.0,-7.1869,-7.0079,-6.8188,-7.0311,-7.1219,0.0,0.0,0.0,0.0,0.0,0.0,-7.4361,-7.4591,-7.5014,-7.5668,-7.5861,-7.5817,-7.5495,-7.3839,-7.2951,-7.2851,-7.1389,-7.0065,-6.8939,-6.9048,-6.8812,-6.8371,-6.8335,-6.8503,-6.8794,-6.9473,-6.9373,-6.8752,-6.8491,-6.8144,-6.777,-6.7417,-6.6703,-6.5778,0.0,0.0,0.0,0.0,0.0,0.0,0.0,0.0,0.0,0.0,0.0,-6.8152,-6.748,-6.7602,-6.777,-6.7797,-6.71,-6.732,-6.8862,-6.8311,-6.8972,-7.1284,-7.1293,-7.1293,-7.1329,-6.8238,-6.6418,-6.5946,-6.4406,-6.3909,-6.4351,-6.4351,-6.4388,-6.4369,-6.4025,-6.304,-6.1766,-6.3213,-6.3634,-6.3465,0.0,0.0,0.0,0.0,0.0,0.0,0.0,0.0,0.0,0.0,0.0,0.0,0.0,0.0,0.0,0.0,0.0,0.0,0.0,0.0,0.0,0.0,0.0,0.0,0.0,0.0,0.0,0.0,0.0,0.0,0.0,0.0,0.0,0.0,0.0,0.0,0.0,0.0,0.0,-6.7176,-7.0009,0.0,0.0,0.0,0.0,-7.3471,-7.35,-7.3514,-7.3553,-7.4284,-7.4707,-7.4784,-7.5553,-7.5349,-7.4017,-7.3321,-7.198,-7.0018,-6.991,-6.8766,-6.6665,-6.6398,-6.6095,-6.5747,-6.4992,-6.5232,-6.6256,-6.8081,-6.8384,-6.758,-6.6549,-6.6127,-6.5961,-6.4734,-6.4262,-6.409,0.0,0.0,0.0,0.0,0.0,0.0,0.0,0.0,-7.0094,-6.9823,-6.9454,-6.9071,-6.8788,-6.8138,-6.7687,-6.7687,-6.6953,-6.6953,-6.8054,-6.8348,-6.9339,-7.1219,-7.1293,-7.0587,-6.9009,-6.6329,-6.4621,-6.3959,-6.2852,-6.2674,-6.3385,-6.3723,-6.3613,-6.311,-6.3293,-6.2749,-6.178,-6.2649,-6.354,-6.4313,-6.44,-6.556,0.0,0.0,0.0,0.0,0.0,0.0,0.0,0.0,0.0,0.0,0.0,0.0,0.0,0.0,0.0,0.0,0.0,0.0,0.0,0.0,0.0,0.0,0.0,0.0,0.0,0.0,0.0,0.0,0.0,0.0,0.0,0.0,0.0,0.0,0.0,0.0,0.0,-6.8202,-7.054,0.0,-6.986,-7.2014,-7.3283,-7.2706,-7.3168,-7.3745,-7.4245,-7.4053,-7.4168,-7.4668,-7.412,-7.3314,-7.2283,-7.0839,-6.9199,-6.7388,-6.6555,-6.5176,-6.3369,-6.391,-6.3821,-6.3219,-6.355,-6.3714,-6.3834,-6.4528,-6.5138,-6.5632,-6.526,-6.4571,-6.3707,-6.2966,-6.2454,-6.2077,0.0,0.0,0.0,0.0,0.0,0.0,0.0,0.0,-7.0297,-6.9519,-6.9524,-6.9283,-6.847,-6.774,-6.7283,-6.7283,-6.6292,-6.6256,-6.7614,-6.7687,-6.8788,-7.1183,-7.0807,-6.9376,-6.6953,-6.4751,-6.3246,-6.2401,-6.1594,-6.1594,-6.2401,-6.2761,-6.2635,-6.2138,-6.266,-6.2578,-6.2127,-6.2743,-6.3802,-6.4965,-6.4441,-6.5699,-6.7815,0.0,0.0,0.0,0.0,0.0,0.0,0.0,0.0,0.0,0.0,0.0,0.0,0.0,0.0,0.0,0.0,0.0,0.0,0.0,0.0,0.0,0.0,0.0,0.0,0.0,0.0,0.0,0.0,0.0,0.0,0.0,0.0,0.0,0.0,0.0,-6.9189,-6.8866,-7.0808,-7.1745,-7.0667,-7.236,-7.336,-7.3053,-7.3591,-7.413,-7.4668,-7.4207,-7.3803,-7.3607,-7.2685,-7.1477,-7.0043,-6.8725,-6.7072,-6.4981,-6.4083,-6.2805,-6.1238,-6.1761,-6.1808,-6.15,-6.1998,-6.213,-6.1969,-6.1802,-6.2285,-6.309,-6.3335,-6.2905,-6.2077,-6.1599,-6.1156,-6.0841,0.0,0.0,0.0,0.0,0.0,0.0,0.0,-7.1312,-7.05,-6.8233,-6.886,-6.8682,-6.6418,-6.6467,-6.6586,-6.6586,-6.5118,-6.5191,-6.7577,-6.6256,-6.7136,-7.1036,-6.9669,-6.7687,-6.5301,-6.3613,-6.2365,-6.1557,-6.0786,-6.0823,-6.1594,-6.163,-6.1594,-6.1581,-6.2101,-6.2327,-6.2391,-6.3427,-6.4359,-6.5134,-6.5407,-6.7007,-6.9256,0.0,0.0,0.0,0.0,0.0,0.0,0.0,0.0,0.0,0.0,0.0,0.0,0.0,0.0,0.0,0.0,0.0,0.0,0.0,0.0,0.0,0.0,0.0,0.0,0.0,0.0,0.0,0.0,0.0,0.0,0.0,0.0,0.0,-6.8281,-6.8897,-6.9208,-6.8993,-7.0914,-7.2245,-7.2245,-7.3014,-7.386,-7.463,-7.4745,-7.4745,-7.4745,-7.4654,-7.366,-7.1494,-7.1328,-6.9967,-6.7232,-6.7187,-6.5649,-6.267,-6.267,-6.1887,-6.0333,-6.0002,-6.0112,-6.0503,-6.0205,-6.0326,-6.0669,-6.0207,-6.0012,-6.0076,-6.0867,-6.1139,-6.1076,-6.0531,-6.0346,-6.0346,0.0,0.0,0.0,0.0,0.0,0.0,0.0,-7.1312,-7.0703,-6.8977,-6.9697,-6.9742,-6.8044,-6.8603,-6.8862,-6.8311,-6.7283,-6.7247,-6.8495,-6.7614,-6.7797,-6.9486,-6.7467,0.0,-6.4457,-6.2218,-6.097,-6.075,-6.0529,-6.0823,-6.1594,-6.2218,-6.1851,-6.075,-6.0867,-6.0937,-6.1043,-6.2292,-6.3964,-6.5824,-6.5649,-6.6783,-6.8642,0.0,0.0,0.0,0.0,0.0,0.0,0.0,0.0,0.0,0.0,0.0,0.0,0.0,0.0,0.0,0.0,0.0,0.0,0.0,0.0,0.0,0.0,0.0,0.0,0.0,0.0,0.0,0.0,0.0,0.0,0.0,-6.7357,-6.6925,-6.7187,-6.8477,-6.9626,-7.0286,-7.1996,-7.3129,-7.3129,-7.3899,-7.4476,-7.4668,-7.5284,-7.563,-7.563,-7.4089,-7.2783,-7.2025,-6.9683,-6.7368,-6.5233,-6.4419,-6.2744,-6.0175,-6.0175,-5.9648,-5.8704,-5.9263,-5.9248,-5.884,-5.9415,-5.9217,-5.8421,-5.797,-5.7561,-5.7434,-5.9195,-5.9871,-5.9853,-5.9363,-5.8969,-5.8657,0.0,0.0,0.0,0.0,0.0,0.0,0.0,-7.1312,-7.0567,-6.8436,-7.0223,-7.0768,-6.8292,-6.9865,-7.066,-6.9486,-6.8678,-6.8531,-6.9339,-6.8972,0.0,0.0,0.0,-6.442,-6.3576,-6.1484,-6.0566,-6.0896,-6.0566,-6.0823,-6.1594,-6.2071,-6.163,-6.0419,-6.075,-6.0713,-6.0504,-6.2198,-6.4204,-6.6283,-6.6634,-6.783,-6.9446,-6.9338,-6.926,-6.9036,-6.8059,-6.625,-6.4174,-6.324,0.0,0.0,0.0,0.0,0.0,0.0,0.0,0.0,0.0,0.0,0.0,0.0,0.0,0.0,0.0,0.0,0.0,0.0,0.0,0.0,0.0,0.0,0.0,0.0,-6.7731,-6.7465,-6.7854,-6.8749,-7.0042,-7.1776,-7.3514,-7.4822,-7.5515,-7.6015,-7.6169,-7.5822,-7.6245,-7.6092,-7.5014,-7.344,-7.1786,-7.0053,-6.7906,-6.5822,-6.3729,-6.2788,-6.141,-5.9698,-5.9368,-5.8804,-5.8042,-5.899,-5.8919,-5.8161,-5.9102,-5.8906,-5.7838,-5.7179,-5.6729,-5.6556,0.0,0.0,0.0,0.0,-5.8216,-5.7997,0.0,0.0,0.0,0.0,0.0,0.0,0.0,-7.1312,-7.0229,-6.7218,-7.0288,-7.1402,-6.7794,-7.0268,-7.1676,-7.0367,-6.9486,-6.9339,-7.0036,0.0,0.0,-6.464,-6.431,-6.3833,-6.2989,-6.1557,-6.1117,-6.1741,-6.1006,-6.1043,-6.1741,-6.1741,-6.13,-6.0566,-6.1263,-6.1263,-6.081,-6.2886,-6.4903,-6.6749,-6.8161,-6.9608,-7.0856,-7.0168,-6.9713,-6.9141,-6.6727,-6.4744,-6.3041,-6.1698,0.0,0.0,0.0,0.0,0.0,0.0,0.0,0.0,0.0,0.0,0.0,0.0,0.0,0.0,0.0,0.0,0.0,0.0,0.0,0.0,0.0,0.0,0.0,0.0,-6.8666,-6.878,-6.9556,-6.9904,-7.0989,-7.3466,-7.5245,-7.6861,-7.8361,-7.8477,-7.8169,-7.7361,-7.7284,-7.6192,-7.3673,0.0,0.0,0.0,0.0,-6.4934,-6.2647,-6.1839,-6.1006,-6.0126,-5.9428,-5.8694,-5.8042,-5.899,-5.8919,-5.8161,-5.8987,-5.8896,-5.8081,-5.7059,-5.6568,-5.6434,-5.5944,-5.6161,-5.6895,-5.7703,-5.7997,-5.7997,0.0,0.0,0.0,0.0,0.0,0.0,0.0,-7.1312,-7.0229,-6.7218,-6.9226,-7.0053,-6.7654,-6.9225,-7.0581,-7.1044,-7.033,-6.9926,0.0,0.0,-6.7797,-6.7026,-6.5742,-6.4677,-6.387,-6.3539,-6.3135,-6.2585,-6.2438,-6.2438,-6.2585,-6.2585,-6.2144,-6.1374,-6.152,-6.1887,-6.2438,-6.4216,-6.5919,-6.7677,-6.988,-7.0928,-7.1112,-7.0241,-6.903,-6.762,-6.5787,-6.3645,-6.1622,-6.077,-6.0965,-6.1623,-6.25,0.0,0.0,0.0,0.0,0.0,0.0,0.0,0.0,0.0,0.0,0.0,0.0,0.0,0.0,0.0,0.0,0.0,0.0,0.0,0.0,-6.9009,-6.8654,-6.9162,-7.1065,-7.2927,-7.4452,-7.5379,-7.7015,-7.813,-7.8492,-7.8477,-7.8169,-7.7361,-7.7284,-7.6279,-7.393,-7.2643,-7.072,-6.7956,-6.6286,-6.4168,-6.1543,-6.0937,-5.9905,-5.8474,-5.8327,0.0,-5.8042,-5.899,-5.8919,-5.8123,-5.8413,-5.805,-5.712,-5.5593,-5.4535,-5.4068,-5.5882,-5.6675,-5.6895,-5.7703,-5.7997,-5.7997,0.0,0.0,0.0,0.0,0.0,0.0,0.0,-7.1312,-7.05,-6.8267,-7.0551,-7.1555,-6.9389,-7.1431,-7.2887,-7.254,-7.1394,-7.049,0.0,-6.8488,-6.7214,-6.6377,-6.5585,-6.5013,-6.4714,-6.4714,-6.4494,-6.4053,-6.4053,-6.4053,-6.4028,-6.3649,-6.2989,-6.2218,-6.2658,-6.3062,-6.3576,-6.5632,-6.743,-6.9045,-7.066,-7.1275,-7.1084,-7.0159,-6.8749,-6.7053,-6.5355,-6.3494,-6.1791,-6.1529,-6.2013,-6.2856,-6.3746,-6.514,-6.6659,0.0,0.0,0.0,0.0,0.0,0.0,0.0,0.0,0.0,0.0,0.0,0.0,0.0,0.0,-7.2239,-7.1468,0.0,-7.0587,-7.0183,-7.0475,-7.1297,-7.2843,-7.5226,-7.6968,-7.7231,-7.8361,-7.9323,-7.9746,-7.9785,-7.9246,-7.7977,-7.79,-7.6555,-7.3427,-7.2337,-7.0382,-6.7208,-6.5902,-6.4241,-6.2031,-6.0953,-6.0015,-5.9208,-5.8364,-5.7997,-5.8042,-5.8716,-5.8707,-5.8069,-5.7981,-5.7592,-5.6862,-5.5175,-5.4121,-5.3632,-5.5058,-5.5831,-5.6345,-5.7556,-5.7997,-5.8042,0.0,0.0,0.0,0.0,0.0,0.0,0.0,-7.1312,-7.077,-6.9282,-7.1839,-7.3058,-7.1124,-7.357,-7.4915,-7.3817,-7.2204,0.0,0.0,-6.8598,-6.7096,-6.5773,-6.5881,-6.6011,-6.6229,-6.6256,-6.6256,-6.6256,-6.6072,-6.5925,-6.5742,-6.4934,-6.42,-6.3576,-6.4237,-6.4824,-6.5375,-6.7504,-6.9339,-7.0844,-7.1296,-7.1308,-7.0949,-6.9849,-6.835,-6.6689,-6.5153,-6.3651,-6.2506,-6.2921,-6.3543,-6.4349,-6.5531,-6.7283,-6.8788,-6.8128,-6.9302,0.0,0.0,0.0,0.0,0.0,0.0,0.0,0.0,0.0,-6.9447,-7.0579,-7.1252,-7.1926,-7.2614,-7.1911,-7.1362,-7.1673,-7.2569,-7.3603,-7.4561,-7.7044,-7.8823,-7.8977,-7.9631,-8.0323,-8.1016,-8.1093,-8.0362,-7.8631,-7.8416,-7.6618,-7.2675,-7.195,-6.9895,-6.6063,-6.5508,-6.4347,-6.2365,-6.1043,-6.0236,-5.9905,-5.8621,-5.7997,-5.802,-5.857,-5.8672,-5.8333,-5.7929,-5.7341,-5.6611,-5.5102,-5.417,-5.3756,-5.4202,-5.4803,-5.5537,-5.7152,-5.7666,-5.761,0.0,0.0,0.0,0.0,0.0,0.0,0.0,0.0,-7.077,-6.9282,-7.0766,-7.1726,-7.0981,-7.1996,-7.2984,-7.3648,0.0,0.0,-7.0983,-6.9267,-6.8277,-6.8296,-6.8908,-6.9346,-6.9559,-6.9559,-6.9559,-6.9559,-6.8862,-6.8128,-6.7393,-6.6623,-6.6182,-6.6109,-6.6182,-6.743,-6.9486,-7.0477,-7.1835,-7.3208,-7.2481,-7.167,-7.0736,-6.9005,-6.7437,-6.6,-6.4983,-6.3713,-6.2784,-6.4246,-6.4884,-6.5452,-6.7761,-6.8697,-6.8898,-6.8788,0.0,-6.8972,-6.7944,-6.7084,-6.6863,-6.857,-6.795,-6.7943,0.0,0.0,-7.206,-7.3108,-7.3213,-7.3257,-7.3516,-7.2194,-7.1508,-7.2934,-7.3738,-7.464,-7.5989,-7.8168,-7.9939,-8.0708,-8.09,-8.0977,-8.1093,-8.1093,-8.0362,-7.8631,-7.8063,-7.6065,-7.2102,-7.1389,-6.9335,-6.5503,-6.5327,-6.3833,-6.0713,-6.0493,-5.9685,-5.8253,-5.807,-5.7997,-5.8042,-5.8932,-5.9299,-5.9214,-5.8526,-5.7315,-5.5775,-5.4871,-5.4015,-5.3345,-5.409,-5.4436,-5.473,-5.6345,-5.6492,-5.6029,0.0,0.0,0.0,0.0,0.0,0.0,0.0,0.0,0.0,-7.0549,-7.1728,-7.2705,-7.3045,-7.4356,-7.5359,0.0,0.0,0.0,-7.2297,-7.031,-6.9388,-6.9909,-7.0803,-7.133,-7.1476,-7.1505,-7.1505,-7.1505,-7.1174,-7.0587,-6.9779,-6.8972,-6.8605,-6.8605,-6.8605,-6.9669,-7.1541,-7.2349,-7.3377,-7.4279,-7.3333,-7.2397,-7.137,-6.9548,-6.7908,-6.6554,-6.6165,-6.5424,0.0,0.0,-6.7168,-6.8205,-6.9262,-6.9926,-7.022,-6.9743,-6.9926,0.0,-6.7922,-6.789,-6.8262,0.0,-6.8752,-7.0369,-7.2003,-7.2889,-7.3415,-7.3672,-7.3915,-7.4142,-7.4365,-7.3665,-7.3452,0.0,-7.5737,-7.676,-7.7741,-7.909,-8.026,-8.1023,-8.075,-8.066,-8.1061,-8.1093,-8.0267,-7.8177,-7.7831,-7.5852,-7.1576,-7.1101,-6.9249,-6.5437,-6.5301,-6.4163,-6.1814,-6.086,-6.0052,-5.9391,-5.8437,-5.8142,-5.8418,-5.8815,-5.902,-5.9026,-5.8217,-5.7197,-5.601,-5.466,-5.3888,-5.3543,-5.3681,-5.3995,-5.4583,-5.6235,-5.6433,-5.6125,0.0,0.0,0.0,0.0,0.0,0.0,0.0,0.0,0.0,0.0,-7.2762,-7.4046,-7.5192,-7.6527,-7.7273,0.0,0.0,0.0,0.0,-7.1405,-7.0518,-7.1197,-7.235,0.0,-7.3164,-7.3156,-7.3156,-7.3156,-7.3156,-7.2753,-7.1945,-7.1358,-7.1101,-7.1101,-7.1101,-7.1982,-7.3523,-7.4111,-7.4845,-7.5452,-7.3941,-7.3116,-7.2477,-7.0046,-6.8652,-6.7977,-6.7333,-6.683,0.0,0.0,-6.9218,-7.0435,-7.0674,-7.1174,-7.1431,-7.0403,-7.0285,-7.0075,-6.7989,0.0,0.0,-6.8311,-7.0149,-7.2406,-7.2951,-7.4079,-7.4823,-7.4375,-7.4627,-7.498,-7.5119,-7.4849,-7.5002,-7.6275,-7.7297,-7.8279,-7.9054,-7.9686,-8.0352,-8.1007,-8.0308,-8.0029,-8.0767,-8.0838,-7.9936,-7.7854,-7.7414,-7.5377,-7.1229,-7.0859,-6.9085,-6.5411,-6.5301,-6.4273,-6.2181,-6.097,-6.0199,-5.9722,-5.8547,-5.8238,-5.8733,-5.899,-5.9169,-5.9289,-5.8099,-5.7201,-5.6411,-5.4565,-5.3739,-5.3604,-5.3555,-5.3885,-5.4568,-5.6058,-5.6302,-5.6032,0.0,0.0,0.0,0.0,0.0,0.0,0.0,0.0,0.0,0.0,0.0,0.0,0.0,0.0,0.0,0.0,0.0,0.0,0.0,-7.2345,-7.1798,-7.226,-7.3732,-7.4631,-7.4815,-7.4845,-7.4845,-7.4845,-7.4845,-7.4441,-7.3634,-7.3597,-7.3597,-7.3597,-7.3597,-7.4478,-7.5983,-7.6019,-7.6497,-7.7003,-7.4296,-7.3797,-7.414,-6.9893,-6.9322,-7.0449,-6.798,0.0,0.0,0.0,-7.0496,-7.1374,-7.2202,-7.2459,0.0,-7.055,-6.9377,-6.8493,0.0,0.0,-6.9355,-7.1492,-7.2263,-7.3193,-7.5944,-7.673,-7.6681,-7.5901,-7.5751,-7.5751,-7.5785,-7.5137,-7.5301,-7.7488,-7.7953,-7.8407,-7.9604,-7.9963,-8.0352,-8.1007,-7.981,-7.9248,0.0,-8.0144,-7.9457,-7.7817,-7.6624,-7.4511,-7.118,-7.0471,-6.8632,-6.5411,-6.5301,-6.3759,-6.0493,-6.0419,-5.9612,-5.807,-5.8033,-5.8238,-5.8716,-5.9625,-6.0324,-6.0604,-5.8513,-5.7361,-5.6835,-5.4686,-5.3565,-5.3282,-5.4069,-5.4363,-5.4537,-5.5775,-5.5712,-5.5119,0.0,0.0,0.0,0.0,0.0,0.0,0.0,0.0,0.0,0.0,0.0,0.0,0.0,0.0,0.0,0.0,0.0,0.0,0.0,-7.3542,-7.3253,-7.4598,-7.5774,-7.6408,-7.6503,-7.6466,-7.6466,-7.6466,-7.6466,-7.6093,-7.5285,-7.5285,-7.5285,-7.5285,-7.5285,-7.6203,-7.7745,-7.7745,-7.8222,-7.8683,-7.5335,-7.4905,-7.5759,-7.1441,-7.0576,-7.1679,0.0,0.0,0.0,0.0,0.0,0.0,-7.1798,-7.1358,0.0,-6.8972,-6.8516,-6.8427,-6.8094,0.0,-7.0937,-7.2645,-7.4063,-7.5475,-7.7137,-7.7692,-7.7673,-7.6941,-7.5828,-7.5053,-7.5202,-7.4852,-7.5187,-7.6883,-7.7775,-7.8798,-8.0433,-8.0011,-7.9698,-8.019,-7.9427,0.0,0.0,0.0,0.0,-7.6653,-7.5596,-7.3684,-7.0555,-6.9696,-6.8091,-6.5375,-6.5301,-6.398,-6.1227,-6.0676,-5.9869,-5.8804,-5.8892,-5.9028,-5.9194,-6.0146,-6.0339,-5.9835,-5.8011,-5.6813,-5.6015,-5.4185,-5.3318,-5.3277,-5.4106,-5.4912,-5.5629,-5.5469,-5.6288,-5.7466,0.0,0.0,0.0,0.0,0.0,0.0,0.0,0.0,0.0,0.0,0.0,0.0,0.0,0.0,0.0,0.0,0.0,0.0,0.0,0.0,-7.4365,-7.5825,-7.6517,-7.698,-7.7273,-7.7273,-7.7273,-7.7273,-7.7273,-7.7017,-7.6533,-7.6533,-7.6533,-7.6533,-7.6533,-7.7121,-7.8148,-7.8148,-7.8626,-7.9118,-7.6085,-7.5763,-7.6668,-7.2689,-7.1978,0.0,0.0,0.0,0.0,0.0,0.0,0.0,-7.1578,-7.055,-6.9412,-6.8091,-6.8257,-6.895,-6.8943,-7.0802,-7.2987,-7.421,-7.5679,-7.7076,-7.7833,-7.7968,-7.7731,-7.6951,-7.5657,-7.4651,-7.4431,-7.4092,-7.4335,-7.578,-7.6531,-7.7751,-8.0019,-7.9411,-7.9149,-8.0136,-7.9466,-7.8714,0.0,0.0,0.0,-7.5569,-7.471,-7.3064,-7.0248,-6.9045,-6.7504,-6.5375,-6.4714,-6.3392,-6.119,-6.0382,-5.9575,-5.8767,-5.8857,-5.8919,-5.8954,-5.9586,-5.9492,-5.8744,-5.721,-5.6132,-5.5348,-5.3837,-5.335,-5.3702,-5.4509,-5.5607,-5.6685,-5.6257,-5.7461,-5.9059,0.0,0.0,0.0,0.0,0.0,0.0,0.0,0.0,0.0,0.0,0.0,0.0,0.0,0.0,0.0,0.0,0.0,0.0,0.0,0.0,0.0,-7.6063,-7.6056,-7.6423,-7.7163,-7.72,-7.72,-7.7163,-7.7237,-7.7273,-7.7237,-7.7273,-7.7273,-7.7273,-7.7273,-7.731,-7.7347,-7.7347,-7.7892,-7.849,-7.6593,-7.6396,-7.6924,-7.3591,0.0,0.0,0.0,0.0,0.0,0.0,0.0,0.0,0.0,-7.022,-6.8862,-6.8091,-6.8812,-6.9995,-7.0658,-7.2946,-7.5358,-7.6198,-7.7173,-7.7994,-7.8245,-7.7797,-7.7019,-7.5952,-7.5279,-7.4531,0.0,0.0,-7.3009,-7.432,-7.4658,-7.5705,-7.854,-7.8403,-7.877,0.0,0.0,0.0,0.0,0.0,0.0,-7.466,0.0,-7.2569,-7.022,-6.8531,-6.6916,-6.5375,-6.3686,-6.2034,-6.0419,-5.9551,-5.8767,-5.802,-5.8034,-5.8093,-5.8106,-5.822,-5.7977,-5.7472,-5.6254,-5.5437,-5.495,-5.3769,-5.3702,-5.4473,-5.5361,-5.6425,-5.7507,-5.7913,-5.8932,-5.9712,0.0,0.0,0.0,0.0,0.0,0.0,0.0,0.0,0.0,0.0,0.0,0.0,0.0,0.0,0.0,0.0,0.0,0.0,0.0,0.0,0.0,0.0,0.0,0.0,0.0,-7.6093,-7.613,-7.5542,0.0,-7.698,-7.6423,-7.7047,-7.7273,0.0,-7.7273,-7.7671,-7.8259,-7.8259,-7.8736,-7.926,0.0,-7.6465,-7.7065,0.0,0.0,0.0,0.0,0.0,0.0,0.0,0.0,0.0,0.0,-7.055,-7.066,-7.044,-7.0946,-7.1947,-7.3747,-7.5167,-7.6424,-7.7875,-7.8066,-7.7994,-7.8245,-7.7797,-7.6882,-7.5452,-7.4549,-7.3392,0.0,0.0,0.0,-7.3676,-7.5347,0.0,-7.889,-7.901,0.0,-7.9399,0.0,-7.8918,-7.7187,-7.6828,0.0,0.0,-7.2585,-7.1394,-7.0146,-6.8017,-6.6329,-6.5338,-6.3686,-6.2034,-6.0419,-5.9024,-5.8217,-5.802,-5.7773,-5.7828,-5.8089,-5.7896,-5.739,-5.6671,-5.5989,-5.5081,-5.4131,-5.4117,-5.4216,-5.4553,-5.6323,-5.7041,-5.7102,-5.7567,-5.8547,-5.9393,0.0,0.0,0.0,0.0,0.0,0.0,0.0,0.0,0.0,0.0,0.0,0.0,0.0,0.0,0.0,0.0,0.0,0.0,0.0,0.0,0.0,0.0,0.0,0.0,0.0,-7.5689,-7.5873,0.0,0.0,0.0,0.0,-7.709,-7.7273,-7.7273,-7.7273,-7.7598,-7.8038,0.0,0.0,0.0,0.0,0.0,0.0,0.0,0.0,0.0,0.0,0.0,0.0,0.0,0.0,-7.345,-7.2092,-7.1982,-7.2275,-7.1945,0.0,-7.3224,-7.5035,-7.6272,-7.7334,-7.8242,-7.8441,-7.8261,-7.7506,-7.7046,-7.6313,-7.4698,-7.345,0.0,0.0,0.0,0.0,0.0,0.0,0.0,-7.8566,-7.8804,-7.8978,0.0,-7.9412,0.0,-7.7111,-7.6486,-7.5403,0.0,-7.2105,-7.0954,-7.0146,-6.7467,-6.5778,-6.5301,-6.2989,-6.097,-5.9355,-5.8437,-5.7997,-5.7983,-5.7481,-5.7563,-5.8052,-5.6981,-5.6549,-5.655,-5.5383,-5.4576,-5.4098,-5.4307,-5.462,-5.5089,-5.6837,-5.7679,-5.8006,-5.8075,-5.8719,-5.9319,0.0,0.0,0.0,0.0,0.0,0.0,0.0,0.0,0.0,0.0,0.0,0.0,0.0,0.0,0.0,0.0,0.0,0.0,0.0,0.0,0.0,0.0,0.0,0.0,0.0,0.0,0.0,0.0,0.0,0.0,0.0,0.0,0.0,0.0,0.0,0.0,0.0,0.0,0.0,0.0,0.0,0.0,0.0,0.0,0.0,0.0,0.0,0.0,0.0,0.0,-7.5432,-7.4147,-7.4037,-7.4074,-7.4037,-7.334,-7.3684,-7.4533,-7.56,-7.6965,-7.8142,-7.7989,-7.853,-7.8579,-7.656,-7.6093,-7.5579,-7.3744,0.0,-7.0991,-6.9963,-6.9963,-7.066,-7.2386,0.0,-7.5706,-7.8026,-7.8329,-7.8704,-7.9847,-7.9265,-7.8484,-7.7779,-7.6293,-7.4807,-7.333,-7.1921,-7.0844,-7.0146,-6.7063,-6.5118,-6.4677,-6.1777,-5.9538,-5.7997,-5.7997,-5.7997,-5.7983,-5.7303,-5.7363,-5.8052,-5.62,-5.5905,-5.679,-5.493,-5.4306,-5.4583,-5.4656,-5.5177,-5.5991,-5.7255,-5.839,-5.9261,-5.8887,-5.8987,-5.9204,0.0,0.0,0.0,0.0,0.0,0.0,0.0,0.0,0.0,0.0,-7.6827,0.0,0.0,0.0,0.0,0.0,0.0,0.0,0.0,0.0,0.0,0.0,0.0,0.0,0.0,0.0,0.0,0.0,0.0,0.0,0.0,0.0,0.0,0.0,0.0,0.0,0.0,0.0,0.0,0.0,0.0,0.0,0.0,0.0,0.0,0.0,0.0,0.0,0.0,0.0,-7.7524,-7.657,-7.5909,-7.613,-7.665,-7.6503,-7.6942,-7.7541,-7.7744,-7.8378,-7.8855,-7.8364,-7.8346,-7.8058,-7.6449,-7.6093,0.0,0.0,0.0,-7.066,-6.8495,-6.9192,0.0,-7.312,0.0,0.0,0.0,0.0,-7.8588,0.0,0.0,0.0,0.0,0.0,0.0,0.0,-7.1098,-7.0257,-7.011,-6.7063,-6.4053,-6.1337,-6.0052,-5.8951,-5.7997,-5.7997,-5.7997,-5.802,-5.7563,-5.7641,-5.8072,-5.704,-5.67,-5.6866,-5.6108,0.0,-5.5427,-5.6124,-5.6704,-5.7292,-5.8558,-5.9013,-5.8849,-5.8489,-5.8427,-5.828,0.0,0.0,0.0,0.0,0.0,0.0,0.0,0.0,0.0,-7.657,-7.7451,-7.7594,0.0,0.0,0.0,0.0,0.0,0.0,0.0,0.0,0.0,0.0,0.0,0.0,0.0,0.0,0.0,0.0,0.0,0.0,0.0,0.0,0.0,0.0,0.0,0.0,0.0,0.0,0.0,0.0,0.0,0.0,0.0,0.0,0.0,0.0,0.0,0.0,0.0,0.0,-7.8332,-7.8002,-7.8002,-7.8295,-7.8516,-7.8112,-7.7871,-7.7846,-7.82,-7.8809,-7.9177,-7.8464,-7.8607,-7.8304,-7.6015,0.0,0.0,0.0,-7.0697,-7.0073,-6.8054,0.0,0.0,0.0,0.0,0.0,0.0,0.0,0.0,0.0,0.0,0.0,0.0,0.0,0.0,-7.1796,-7.0303,-6.9486,-6.9486,-6.6439,-6.3356,-6.0493,-5.9625,-5.8804,-5.7997,-5.7997,-5.7997,-5.802,-5.7876,-5.7997,-5.8372,-5.7383,-5.7236,-5.7772,-5.6466,-5.6034,-5.6235,-5.6638,-5.71,-5.7617,-5.8911,-5.943,-5.9421,-5.9048,-5.8665,-5.8127,0.0,0.0,0.0,0.0,0.0,0.0,0.0,-7.5175,-7.5689,-7.709,-7.7892,-7.7687,-7.5998,-7.6874,-7.7171,0.0,0.0,0.0,0.0,0.0,0.0,0.0,0.0,0.0,0.0,0.0,0.0,0.0,0.0,0.0,0.0,0.0,0.0,0.0,0.0,0.0,0.0,0.0,0.0,0.0,0.0,0.0,0.0,0.0,0.0,0.0,0.0,0.0,0.0,0.0,-7.8699,-7.8919,-7.9396,-7.9653,-7.9617,-7.8846,-7.8259,-7.7904,-7.8265,-7.8954,-7.94,-7.8768,-7.8954,-7.859,-7.5801,-7.5028,0.0,0.0,-7.0367,-6.9926,-6.8458,0.0,0.0,0.0,0.0,0.0,0.0,0.0,0.0,0.0,0.0,0.0,0.0,0.0,0.0,-7.0835,-6.9302,-6.8311,-6.8164,-6.5228,-6.2585,-6.0456,-5.9465,-5.8657,-5.7997,-5.7997,-5.8065,-5.8127,-5.8316,-5.8537,-5.8817,-5.7858,-5.7919,-5.8618,-5.6866,-5.6455,-5.7042,-5.7177,-5.7455,-5.8015,-5.9145,-5.9839,-6.0182,-5.9494,-5.8858,-5.8165,0.0,0.0,0.0,0.0,0.0,0.0,0.0,-7.5983,-7.6313,-7.7163,-7.7347,-7.6998,-7.5925,-7.7385,-7.8117,0.0,0.0,0.0,0.0,0.0,0.0,0.0,0.0,0.0,0.0,0.0,0.0,-7.5028,-7.5726,0.0,0.0,0.0,0.0,0.0,0.0,0.0,0.0,0.0,0.0,0.0,0.0,0.0,0.0,0.0,0.0,0.0,0.0,0.0,0.0,0.0,0.0,-7.958,-7.8919,-7.9213,-7.9617,-7.8846,0.0,0.0,-7.8756,-7.9154,-7.9742,-7.9669,-7.9191,-7.8204,-7.6417,0.0,0.0,-7.1725,-7.1211,-7.0917,-7.0036,-6.9412,0.0,0.0,0.0,0.0,0.0,0.0,0.0,0.0,0.0,0.0,0.0,0.0,0.0,-6.9229,-6.7614,-6.6402,-6.5668,-6.3209,-6.1374,-6.0419,-5.8914,-5.807,-5.7997,-5.7997,-5.8194,-5.8652,-5.9064,-5.9296,-5.9337,-5.9221,-5.9008,-5.8693,-5.8047,-5.7813,0.0,-5.8349,-5.8801,-5.9259,-5.9817,-6.0324,-6.0553,-5.9,-5.8357,-5.805,0.0,0.0,0.0,0.0,0.0,0.0,0.0,-7.6093,-7.657,-7.7928,-7.8075,-7.795,-7.7527,-7.8144,-7.8034,0.0,0.0,0.0,0.0,0.0,0.0,0.0,0.0,0.0,0.0,0.0,-7.5873,-7.6319,-7.6203,0.0,0.0,0.0,0.0,0.0,0.0,-7.7273,0.0,0.0,0.0,0.0,0.0,0.0,0.0,0.0,0.0,0.0,0.0,0.0,0.0,0.0,0.0,0.0,-7.7194,-7.6974,0.0,0.0,-7.8038,-7.8332,-7.8552,-7.9874,-8.1122,-8.0645,-8.0277,-7.947,-7.7341,0.0,0.0,-7.177,-7.1293,-7.1064,-7.0257,-6.9449,-6.9633,0.0,0.0,0.0,0.0,0.0,0.0,0.0,0.0,0.0,0.0,0.0,-6.9926,-6.8311,-6.6696,-6.5448,-6.4604,-6.2658,-6.1227,-6.0419,-5.8841,-5.7997,-5.7997,-5.7997,-5.8238,-5.8713,-5.8894,-5.899,-5.899,-5.899,-5.8696,-5.826,-5.8074,-5.7997,0.0,-5.8524,-5.899,-5.9441,-5.9916,-6.0378,-6.0666,-5.9473,-5.8704,-5.8127,0.0,0.0,0.0,0.0,0.0,0.0,-7.5652,-7.6166,-7.69,-7.8075,-7.8222,-7.8295,-7.8552,-7.8369,-7.7788,-7.6729,0.0,0.0,0.0,0.0,0.0,0.0,0.0,0.0,0.0,0.0,-7.6754,-7.7273,-7.7011,-7.7011,0.0,0.0,-7.753,-7.7273,0.0,0.0,0.0,0.0,0.0,0.0,0.0,0.0,0.0,0.0,0.0,0.0,0.0,0.0,0.0,0.0,0.0,0.0,0.0,0.0,0.0,0.0,-7.709,-7.7567,-7.8956,-8.0718,-8.2113,-8.1782,-8.1342,-8.0424,0.0,0.0,0.0,-7.2422,-7.1835,-7.1505,-7.0917,-7.0146,-7.0073,0.0,0.0,0.0,0.0,0.0,0.0,0.0,0.0,0.0,0.0,0.0,-6.9082,-6.7467,-6.6072,-6.4971,-6.4127,-6.2291,-6.0896,-6.0089,-5.8731,-5.7997,-5.7997,-5.7997,-5.8326,-5.8913,-5.8756,-5.8756,-5.8913,-5.8756,-5.8439,-5.7997,-5.7997,-5.8074,0.0,-5.8696,-5.9176,-5.9642,-6.0132,-6.0508,-6.0704,-5.9819,-5.9011,-5.8165,0.0,0.0,0.0,0.0,0.0,0.0,0.0,-7.6246,-7.7273,-7.731,-7.731,-7.764,-7.8516,-7.7855,-7.764,-7.8516,0.0,0.0,0.0,0.0,0.0,0.0,0.0,0.0,0.0,0.0,-7.7273,-7.7273,-7.8148,-7.8148,-7.731,-7.8185,-7.8148,-7.7273,0.0,0.0,0.0,0.0,0.0,0.0,0.0,0.0,-7.7273,0.0,0.0,0.0,0.0,0.0,0.0,0.0,0.0,0.0,0.0,0.0,0.0,0.0,-7.668,-7.7824,-8.0314,-8.1562,-8.237,-8.3177,-8.2186,-8.0571,0.0,0.0,0.0,-7.3817,-7.3046,-7.2496,-7.2496,-7.1835,-7.1541,0.0,0.0,0.0,0.0,0.0,0.0,0.0,0.0,0.0,0.0,0.0,-6.8238,-6.6623,-6.5778,0.0,-6.4127,-6.1777,-6.0052,-5.9221,-5.8437,-5.7997,-5.7997,-5.7997,-5.8482,-5.9372,-5.8932,-5.8951,-5.9372,-5.8913,-5.8439,-5.7997,-5.7997,-5.826,0.0,-5.9194,-5.9658,-6.0146,-6.061,-6.0781,-6.0704,-5.9819,-5.9011,-5.8165,0.0,0.0,0.0,0.0,0.0,0.0,0.0,-7.6246,-7.7273,-7.7273,-7.7273,-7.7635,-7.8516,-7.7818,-7.7671,-7.8516,0.0,0.0,0.0,0.0,0.0,0.0,0.0,0.0,0.0,0.0,-7.7273,-7.7273,-7.8185,-7.8479,-7.8185,-7.8479,-7.8442,-7.8185,-7.7598,-7.7273,0.0,0.0,0.0,0.0,0.0,-7.7273,-7.7273,0.0,0.0,0.0,0.0,0.0,0.0,0.0,0.0,0.0,0.0,0.0,0.0,-7.5139,-7.5873,0.0,-7.8846,-8.0351,-8.1452,-8.1709,-8.0975,-7.9727,-7.8112,0.0,0.0,0.0,-7.2679,-7.2496,-7.2496,-7.1394,-7.0917,-7.2275,0.0,0.0,0.0,0.0,0.0,0.0,0.0,0.0,0.0,0.0,-6.765,-6.6586,-6.5742,-6.4457,-6.2475,-6.1117,-6.0272,-6.0052,-5.8694,-5.7997,-5.7997,-5.8326,-5.8776,-5.9389,-5.8932,-5.8951,-5.9372,-5.857,-5.8142,-5.7997,-5.7997,-5.826,-5.8716,-5.9194,-5.9696,-6.0146,-6.0622,-6.0781,-6.0704,-5.9819,-5.9011,-5.8165,0.0,0.0,0.0,0.0,0.0,0.0,0.0,-7.643,-7.7273,-7.7273,-7.7273,-7.7635,-7.8516,-7.7818,-7.7671,-7.8516,0.0,0.0,0.0,0.0,0.0,0.0,0.0,0.0,-7.7273,-7.7273,-7.7457,-7.7818,-7.8626,-7.8883,-7.8589,-7.8919,-7.8699,-7.8112,-7.7561,-7.7273,0.0,0.0,0.0,0.0,-7.7273,-7.7273,-7.7273,0.0,0.0,0.0,0.0,0.0,0.0,0.0,0.0,0.0,0.0,0.0,0.0,0.0,-7.5249,-7.6093,0.0,-7.9543,-8.0608,-8.0938,-8.0388,0.0,0.0,0.0,0.0,0.0,0.0,0.0,0.0,-7.0991,0.0,0.0,0.0,0.0,0.0,0.0,0.0,0.0,0.0,0.0,0.0,-6.81,-6.7204,-6.6119,-6.4965,-6.3523,-6.1704,-6.0566,-5.9942,-5.9942,-5.8694,-5.7997,-5.7997,-5.8482,-5.8835,-5.9121,-5.8835,-5.8855,-5.9102,-5.8332,-5.7997,-5.7997,-5.7997,-5.8354,0.0,-5.9266,-5.9792,-6.0378,-6.071,-6.0781,-6.0742,-6.0204,-5.9281,-5.8204,0.0,0.0,0.0,0.0,0.0,0.0,0.0,0.0,0.0,0.0,-7.7273,-7.7635,-7.8405,-7.7781,-7.7635,0.0,0.0,0.0,0.0,0.0,0.0,0.0,0.0,0.0,-7.7273,-7.7273,-7.7708,-7.8516,-7.9323,-7.9323,-7.8626,-7.936,-7.8883,-7.7384,-7.731,-7.7273,0.0,0.0,0.0,-7.7273,-7.7273,-7.7273,0.0,0.0,0.0,0.0,0.0,0.0,0.0,0.0,0.0,0.0,0.0,0.0,0.0,0.0,0.0,0.0,0.0,-7.8883,-7.9727,-8.0534,-8.0131,-7.9103,0.0,0.0,0.0,0.0,0.0,0.0,0.0,0.0,0.0,0.0,0.0,0.0,0.0,0.0,0.0,0.0,0.0,0.0,-6.6806,-6.7092,-6.6867,-6.5433,-6.3657,-6.2314,-6.1569,-6.0052,-5.9148,-5.9111,-5.84,-5.7997,-5.7997,-5.8524,-5.8716,-5.8713,-5.8716,-5.8716,-5.8693,-5.8194,-5.7997,0.0,-5.8042,-5.8549,-5.9389,-5.9424,-5.9977,-6.0781,-6.0781,-6.0781,-6.0781,-6.0781,-5.9742,-5.8319,0.0,0.0,0.0,0.0,0.0,0.0,0.0,0.0,0.0,0.0,-7.7273,-7.7384,-7.7567,-7.742,0.0,0.0,0.0,0.0,0.0,0.0,0.0,0.0,0.0,0.0,-7.7273,-7.7273,-7.7384,-7.7635,-7.8479,-7.8772,-7.8589,-7.8772,-7.8662,-7.8259,-7.7598,-7.7273,0.0,0.0,-7.7273,-7.7273,-7.7273,-7.7273,0.0,0.0,0.0,0.0,-7.7273,-7.7163,0.0,0.0,0.0,0.0,0.0,0.0,0.0,0.0,-7.4845,-7.5689,-7.5028,0.0,-7.7157,-7.7965,-7.7561,-7.6717,0.0,0.0,0.0,0.0,0.0,0.0,0.0,0.0,0.0,0.0,0.0,0.0,0.0,0.0,0.0,0.0,0.0,-6.8715,-6.7504,-6.6393,-6.5633,-6.5322,-6.3176,-6.1507,-6.0701,-5.9758,-5.8914,-5.829,-5.8107,-5.7997,-5.7997,-5.8815,-5.9065,-5.8676,-5.9047,-5.9065,-5.8693,-5.8194,-5.7997,-5.802,-5.8375,-5.8874,-5.9424,-5.9792,-6.0297,-6.0781,-6.0781,-6.0781,-6.0781,-6.0781,-5.9742,-5.8319,0.0,0.0,0.0,0.0,0.0,0.0,0.0,0.0,0.0,0.0,0.0,0.0,0.0,0.0,0.0,0.0,0.0,0.0,0.0,0.0,0.0,0.0,0.0,-7.7273,-7.7273,-7.7273,-7.7494,-7.7892,-7.8369,-7.8589,-7.8589,-7.8589,-7.8405,-7.8002,-7.7494,-7.7273,-7.7273,-7.7273,-7.7273,-7.7273,-7.7273,0.0,0.0,0.0,0.0,0.0,-7.7273,-7.7053,0.0,-7.7163,-7.6796,-7.6173,0.0,0.0,0.0,0.0,-7.4882,-7.5359,-7.4478,-7.5175,-7.613,-7.6203,-7.6166,-7.5799,-7.4625,0.0,0.0,0.0,0.0,0.0,0.0,0.0,0.0,0.0,0.0,0.0,0.0,0.0,0.0,0.0,0.0,-6.7614,0.0,-6.528,-6.4101,-6.416,-6.1832,-6.0295,-5.987,-5.9098,-5.8437,-5.7997,-5.7997,-5.7997,-5.7997,-5.8932,-5.9065,-5.8375,-5.9047,-5.9028,-5.8354,-5.8119,-5.8119,-5.8348,-5.8591,-5.9065,-5.976,-5.9977,-6.0365,-6.0781,-6.0781,-6.0781,-6.0781,-6.0781,-5.9742,-5.8319,0.0,0.0,0.0,0.0,0.0,0.0,0.0,0.0,0.0,0.0,0.0,0.0,0.0,0.0,0.0,0.0,0.0,0.0,0.0,0.0,0.0,0.0,0.0,-7.7273,-7.7273,-7.7273,-7.7671,-7.8405,-7.8516,-7.8589,-7.8589,-7.8589,-7.8148,-7.7273,-7.7273,-7.7273,-7.7273,-7.7273,-7.7273,-7.7273,-7.7273,0.0,0.0,0.0,0.0,0.0,0.0,0.0,0.0,-7.7053,-7.6393,-7.5359,-7.5909,0.0,0.0,0.0,0.0,0.0,-7.4625,-7.5212,-7.5763,-7.5065,-7.5322,-7.5395,-7.4001,0.0,0.0,0.0,0.0,0.0,0.0,-6.8238,0.0,0.0,0.0,0.0,0.0,0.0,0.0,0.0,0.0,0.0,-6.5976,-6.3961,-6.2719,-6.2625,-6.046,-5.9143,-5.9187,-5.8437,-5.7997,-5.7997,-5.7886,-5.7895,-5.8097,-5.8971,-5.8932,-5.802,-5.8951,-5.8913,-5.7997,-5.8051,-5.8348,-5.8733,-5.8855,0.0,-6.0118,-6.0175,-6.0456,-6.0781,-6.0781,-6.0781,-6.0781,-6.0781,-5.9742,-5.828,0.0,0.0,0.0,0.0,0.0,0.0,0.0,0.0,0.0,0.0,0.0,0.0,0.0,0.0,0.0,0.0,0.0,0.0,0.0,0.0,0.0,0.0,-7.7273,-7.7273,-7.7273,-7.7273,-7.7347,-7.7494,-7.8259,-7.8589,-7.8589,-7.8589,-7.8148,-7.7273,-7.7273,-7.7273,-7.7273,-7.7273,-7.7273,-7.7273,-7.7273,0.0,0.0,0.0,0.0,0.0,0.0,0.0,0.0,-7.7237,-7.7127,-7.6833,-7.6276,0.0,0.0,0.0,0.0,0.0,-7.323,-7.3964,-7.5065,-7.4955,-7.4478,-7.4001,0.0,0.0,0.0,0.0,0.0,0.0,0.0,0.0,-6.7687,0.0,0.0,0.0,0.0,0.0,-6.7577,-6.6769,0.0,-6.565,-6.3591,-6.3019,-6.2493,-6.1842,-6.0178,-5.92,-5.9197,-5.8437,-5.7997,-5.7997,-5.7336,-5.7508,-5.8591,-5.9121,-5.8932,-5.802,-5.8951,-5.8913,-5.802,-5.8418,-5.8632,-5.8736,0.0,-5.9962,-6.0132,-6.0521,-6.0746,-6.0781,-6.0781,-6.0781,-6.0781,-6.0781,-5.9742,-5.8088,0.0,0.0,0.0,0.0,0.0,0.0,0.0,0.0,0.0,0.0,0.0,0.0,0.0,0.0,0.0,0.0,0.0,0.0,0.0,0.0,0.0,-7.7273,-7.7273,-7.7273,-7.7273,-7.7273,-7.7745,-7.8662,-7.9029,-7.969,-8.0534,-7.9653,-7.8552,-7.7273,-7.7273,-7.7273,-7.7273,-7.7273,-7.7273,-7.7273,0.0,0.0,0.0,0.0,0.0,0.0,0.0,0.0,0.0,0.0,-7.7273,-7.7237,-7.69,0.0,0.0,0.0,0.0,0.0,-7.3487,-7.3046,-7.3083,-7.3487,-7.3634,-7.334,0.0,0.0,0.0,0.0,0.0,0.0,0.0,0.0,0.0,-6.8348,0.0,-6.8311,-6.8164,-6.7136,-6.6256,0.0,0.0,-6.3584,-6.2859,-6.2025,-6.1149,-6.0358,-5.9628,-5.9004,-5.8574,-5.8217,-5.7813,-5.7373,-5.7409,-5.7626,-5.8042,-5.8708,-5.8796,-5.8375,-5.9047,-5.9028,-5.8375,-5.8591,-5.899,-5.9475,0.0,-6.0231,-6.0495,-6.0722,-6.0781,-6.0781,-6.0781,-6.0781,-6.0742,-6.0281,-5.9627,-5.8704,0.0,0.0,0.0,0.0,0.0,0.0,0.0,0.0,0.0,0.0,0.0,0.0,0.0,0.0,0.0,0.0,0.0,0.0,0.0,0.0,-7.7273,-7.7273,-7.7273,-7.7384,-7.7598,-7.7818,-7.8699,-8.0351,-8.0534,-8.1158,-8.215,-8.0534,-7.8993,-7.7598,-7.7384,-7.7273,-7.7273,-7.7273,-7.7273,-7.7273,0.0,0.0,0.0,0.0,0.0,0.0,0.0,0.0,0.0,0.0,0.0,0.0,0.0,0.0,0.0,-7.613,-7.5395,-7.4698,-7.367,-7.2679,-7.1945,-7.2165,0.0,0.0,0.0,0.0,0.0,0.0,0.0,0.0,0.0,0.0,0.0,0.0,-6.8605,-6.8128,-6.6696,-6.5962,-6.5448,-6.5081,-6.3157,-6.1981,-6.2213,-6.1123,-6.0,-5.9003,-5.9104,-5.883,-5.8047,-5.7997,-5.7629,-5.6822,-5.7508,-5.782,-5.7678,-5.8276,-5.8609,-5.8676,-5.9047,-5.9065,-5.8713,-5.8815,-5.9302,-6.0118,-6.0203,-6.0469,-6.0781,-6.0781,-6.0781,-6.0781,-6.0781,-6.0781,-6.0704,-5.9819,-5.9511,-5.9281,0.0,0.0,0.0,0.0,0.0,0.0,0.0,0.0,0.0,0.0,0.0,0.0,0.0,0.0,0.0,0.0,0.0,0.0,0.0,0.0,-7.7273,-7.7273,-7.7273,-7.7708,-7.8479,-7.925,-8.0388,-8.2039,-8.2774,-8.281,-8.215,-8.0534,-7.9323,-7.8479,-7.7671,-7.7273,-7.7273,-7.7273,-7.7273,-7.7273,-7.7273,0.0,0.0,0.0,0.0,0.0,0.0,0.0,0.0,0.0,0.0,0.0,0.0,0.0,-7.698,-7.5469,-7.4955,-7.4588,-7.301,-7.3046,-7.3193,-7.1762,-7.0881,0.0,-7.2018,-7.0513,0.0,-6.9853,0.0,0.0,0.0,0.0,0.0,0.0,0.0,-6.7467,-6.6623,0.0,-6.5852,-6.4347,-6.3303,-6.2148,-6.0727,-6.0476,-5.9773,-5.8225,-5.8792,-5.8844,-5.8033,-5.7997,-5.7629,-5.6822,-5.727,-5.7734,-5.8148,-5.8185,-5.837,-5.8713,-5.8716,-5.8716,-5.8696,-5.9139,-5.9609,-6.0132,-6.0546,-6.0757,-6.0781,-6.0781,-6.0781,-6.0781,-6.0781,-6.0781,-6.0704,-5.9819,-5.9511,-5.9396,0.0,0.0,0.0,0.0,0.0,0.0,0.0,0.0,0.0,0.0,0.0,0.0,0.0,0.0,0.0,0.0,0.0,0.0,0.0,0.0,-7.7273,-7.7273,-7.7273,-7.7708,-7.8589,-7.9874,-8.1819,-8.4425,-8.4756,-8.3985,-8.215,-8.0534,-7.9066,-7.7781,-7.742,-7.7273,-7.7273,-7.7273,-7.7273,-7.7273,-7.7273,-7.7273,0.0,0.0,0.0,0.0,0.0,0.0,0.0,0.0,-7.7273,-7.7273,0.0,0.0,-7.7053,-7.5983,-7.5285,-7.4661,-7.356,-7.2753,-7.2055,-7.1439,-7.033,0.0,0.0,-6.9522,-6.8385,-6.9192,-6.7834,0.0,0.0,0.0,0.0,0.0,0.0,-6.6659,-6.5888,-6.5301,-6.4558,-6.3412,-6.2134,-6.0691,-5.9074,-5.9375,-5.8993,-5.7429,-5.8518,-5.8877,-5.8033,-5.7997,-5.7409,-5.6088,-5.6957,-5.7192,-5.6651,-5.7357,-5.7922,-5.8351,-5.8896,-5.9121,-5.9139,-5.9609,-6.0103,-6.0572,-6.0734,-6.0781,-6.0781,-6.0781,-6.0781,-6.0781,-6.0781,-6.0781,-6.0742,-6.0435,-6.0319,-6.0204,0.0,0.0,0.0,0.0,0.0,0.0,0.0,0.0,0.0,0.0,0.0,0.0,0.0,0.0,0.0,0.0,0.0,0.0,-7.7273,-7.7273,-7.7273,-7.7273,-7.7273,-7.7855,-7.8956,-8.0571,-8.27,-8.5416,-8.5673,-8.4535,-8.215,-8.0534,-7.9029,-7.7708,-7.742,-7.7273,-7.7273,-7.7273,-7.7273,-7.7273,-7.7273,-7.7127,0.0,0.0,0.0,0.0,0.0,0.0,0.0,0.0,-7.7273,0.0,0.0,0.0,0.0,0.0,-7.5139,-7.4294,-7.323,-7.2165,-7.1211,-7.0697,0.0,0.0,-6.9706,-6.8678,-6.7907,-6.8752,-6.7614,-6.6586,-6.688,0.0,0.0,0.0,-6.5925,-6.5448,-6.464,-6.3833,-6.2907,-6.1823,-6.0701,-5.9386,-5.7823,-5.8355,-5.8284,-5.7004,-5.8083,-5.8584,-5.8033,-5.7997,-5.7262,-5.5669,-5.6898,-5.693,-5.5508,-5.6668,-5.7528,-5.8127,-5.8748,-5.9125,-5.9407,-5.9885,-6.0351,-6.0781,-6.0781,-6.0781,-6.0781,-6.0781,-6.0781,-6.0781,-6.0781,-6.0781,-6.0781,-6.0781,-6.0781,-6.0704,0.0,0.0,0.0,0.0,0.0,0.0,0.0,0.0,0.0,0.0,0.0,0.0,0.0,0.0,0.0,0.0,0.0,0.0,-7.7273,-7.7273,-7.7273,-7.7273,-7.7273,-7.8075,-7.9727,-8.1342,-8.2957,-8.4609,-8.538,-8.4535,-8.215,-8.0534,-7.9323,-7.8552,-7.7708,-7.7273,-7.7273,-7.7273,-7.7273,-7.7273,-7.7273,-7.6827,-7.6093,0.0,0.0,0.0,0.0,0.0,0.0,0.0,-7.7273,-7.7273,0.0,0.0,0.0,0.0,-7.4331,-7.334,-7.1762,-7.1293,-7.0889,0.0,0.0,0.0,-6.9265,-6.8274,-6.7944,-6.8752,-6.7614,-6.6256,-6.5448,-6.5301,0.0,-6.5264,-6.4604,-6.3759,-6.2915,-6.2108,-6.1005,-5.9463,-5.9238,-5.8576,-5.7057,-5.7548,-5.7653,-5.6934,-5.7576,-5.7997,-5.7997,-5.7997,-5.7262,-5.5669,-5.7211,-5.7128,-5.5119,-5.6301,-5.7314,-5.8199,-5.8216,-5.8652,-5.9407,-5.9885,-6.0351,-6.0781,-6.0781,-6.0781,-6.0781,-6.0781,-6.0781,-6.0781,-6.0781,-6.0781,-6.0781,-6.0781,-6.0781,-6.0781,0.0,0.0,0.0,0.0,0.0,0.0,0.0,0.0,0.0,0.0,0.0,0.0,0.0,0.0,0.0,0.0,0.0,0.0,-7.7273,-7.7273,-7.7273,-7.7273,-7.7273,-7.753,-7.8038,-7.9653,-8.1856,-8.4609,-8.4829,-8.3434,-8.0461,-7.8809,-7.7928,-7.764,-7.742,-7.7273,-7.7237,-7.6717,-7.646,-7.6423,-7.5836,-7.5469,-7.5285,0.0,0.0,0.0,0.0,0.0,0.0,0.0,0.0,0.0,0.0,0.0,0.0,0.0,-7.4771,-7.3597,-7.312,-7.2165,0.0,-7.0,0.0,0.0,0.0,0.0,0.0,0.0,-6.721,-6.6256,-6.5448,-6.4347,0.0,-6.2805,-6.2034,-6.141,-6.1153,-6.0896,-6.0183,-5.8652,-5.8455,-5.7588,-5.5483,-5.6404,-5.6834,-5.6084,-5.7275,-5.7997,-5.7997,-5.7997,-5.7262,-5.5669,-5.6357,-5.594,-5.4205,-5.5983,-5.7033,-5.7314,-5.8812,-5.9673,-5.9901,-6.0365,-6.0659,-6.0781,-6.0781,-6.0781,-6.0781,-6.0781,-6.0781,-6.0781,-6.0781,-6.0781,-6.0781,-6.0781,-6.0781,-6.0781,0.0,0.0,0.0,0.0,0.0,0.0,0.0,0.0,0.0,0.0,-7.7273,-7.7273,0.0,0.0,0.0,0.0,0.0,0.0,0.0,0.0,-7.7273,-7.7273,-7.7273,-7.7457,-7.7818,-7.9433,-8.0901,-8.2223,-8.2847,-8.1856,-7.9286,-7.8295,-7.7635,-7.7273,-7.7273,-7.7127,-7.679,-7.6313,-7.5909,-7.5579,-7.5102,-7.4735,-7.4441,0.0,0.0,0.0,0.0,0.0,0.0,0.0,0.0,0.0,0.0,0.0,0.0,-7.5432,-7.4221,-7.3083,-7.2422,0.0,0.0,0.0,-6.9853,-7.0073,-6.8128,0.0,0.0,0.0,0.0,-6.5411,-6.4897,-6.3466,0.0,-6.1667,-6.0676,-5.9942,-5.9942,-5.9648,-5.8869,-5.7313,-5.7423,-5.6725,-5.4364,-5.5792,-5.6509,-5.5759,-5.713,-5.7997,-5.7997,-5.7703,-5.6932,-5.5647,-5.5697,-5.5022,-5.3602,-5.5463,-5.6614,-5.697,-5.876,-5.9897,-6.0378,-6.0659,-6.0781,-6.0781,-6.0781,-6.0781,-6.0781,-6.0781,-6.0781,-6.0781,-6.0435,-6.0281,-6.0242,-5.9935,-6.0012,-6.0281,0.0,0.0,0.0,0.0,0.0,0.0,0.0,0.0,0.0,0.0,-7.7273,-7.7273,0.0,0.0,0.0,0.0,0.0,0.0,0.0,0.0,-7.7273,-7.7273,-7.7273,-7.7671,-7.8479,-7.991,-7.9947,-7.8479,-8.0167,-8.0131,-7.8479,-7.8479,-7.8075,-7.7273,-7.7273,-7.6864,-7.6093,-7.6019,-7.5542,-7.4808,-7.4735,-7.4221,-7.3487,-7.356,0.0,0.0,0.0,0.0,0.0,0.0,0.0,0.0,0.0,0.0,0.0,-7.4551,-7.3193,-7.2092,0.0,0.0,0.0,0.0,0.0,0.0,-6.8201,-6.6953,-6.6109,-6.5448,0.0,-6.4163,-6.4016,-6.2658,-6.1557,-6.141,-6.0089,-5.9074,-5.9074,-5.8474,-5.7413,-5.5893,-5.6332,-5.5919,-5.3818,-5.554,-5.6502,-5.5844,-5.7155,-5.7997,-5.7997,-5.7262,-5.6418,-5.5633,-5.5215,-5.4459,-5.3251,-5.498,-5.6279,-5.7068,-5.8415,-5.9664,-6.0781,-6.0781,-6.0781,-6.0781,-6.0781,-6.0781,-6.0781,-6.0704,-6.0666,-6.0589,-5.9819,-5.9473,-5.9319,-5.8742,-5.8934,-5.9511,0.0,0.0,0.0,0.0,0.0,0.0,0.0,0.0,0.0,0.0,0.0,0.0,0.0,0.0,0.0,0.0,0.0,0.0,0.0,0.0,-7.7273,-7.7273,-7.7273,-7.7384,-7.7598,-7.7897,-7.7934,-7.7567,-7.9874,-7.9837,-7.7567,-7.7567,-7.7457,-7.7273,-7.7273,-7.6864,-7.6056,-7.5432,-7.4698,-7.3891,-7.3266,-7.2532,-7.1908,-7.2532,-7.2753,0.0,0.0,0.0,0.0,0.0,0.0,0.0,-7.7273,-7.643,-7.5469,-7.5542,-7.367,0.0,0.0,0.0,0.0,0.0,0.0,0.0,0.0,0.0,-6.4751,-6.5228,-6.5154,-6.464,-6.3319,-6.2254,-6.119,-5.9942,-5.8914,-5.8253,-5.8253,-5.8107,-5.7413,-5.5893,-5.5865,-5.5525,-5.4485,-5.5348,-5.6126,-5.6589,-5.7498,-5.7997,-5.7997,-5.7262,-5.6418,-5.5633,-5.5215,-5.4577,-5.3701,-5.6015,-5.7297,-5.7487,-5.946,-6.0529,-6.0781,-6.0781,-6.0781,-6.0781,-6.0781,-6.0781,-6.0742,-6.005,-5.9781,-5.9742,-5.9588,-5.9127,-5.8704,-5.9858,-5.9935,-5.9588,0.0,0.0,0.0,0.0,0.0,0.0,0.0,0.0,0.0,0.0,0.0,0.0,0.0,0.0,0.0,0.0,-7.7273,-7.7273,-7.7273,-7.7273,-7.7273,-7.7273,-7.7273,-7.7273,-7.7273,-7.7273,-7.7273,-7.7273,-7.8594,-7.8558,-7.7273,-7.7273,-7.7273,-7.7273,-7.7273,-7.6644,-7.5469,-7.4661,-7.3634,-7.2496,-7.1688,-7.1321,-7.1329,-7.1798,-7.2422,-7.3193,-7.4037,0.0,0.0,0.0,0.0,0.0,0.0,0.0,-7.4845,-7.4478,0.0,0.0,0.0,0.0,0.0,0.0,0.0,0.0,0.0,0.0,0.0,0.0,-6.409,-6.3246,-6.2401,-6.1557,-6.0639,-5.9404,-5.851,-5.7997,-5.7997,-5.7997,-5.7413,-5.5893,-5.5724,-5.5408,-5.4665,-5.5262,-5.5889,-5.6284,-5.7388,-5.7666,-5.6895,-5.6455,-5.5868,-5.506,-5.4622,-5.4224,-5.3777,-5.6345,-5.76,-5.7638,-5.9753,-6.0781,-6.0781,-6.0781,-6.0781,-6.0781,-6.0781,-6.055,-6.0127,-5.9704,-5.9281,-5.8934,-5.8934,-5.8665,-5.8396,-5.9281,-5.955,-5.955,0.0,0.0,0.0,0.0,0.0,0.0,0.0,0.0,0.0,0.0,0.0,0.0,0.0,0.0,-7.7273,0.0,0.0,0.0,-7.7273,-7.7273,-7.7273,-7.7273,-7.7273,-7.7273,-7.7273,-7.7273,-7.7273,-7.7273,-7.7273,-7.7273,-7.7273,-7.7273,-7.7273,-7.7273,-7.7273,-7.6393,-7.4882,-7.4184,-7.2973,-7.1468,-7.0624,-7.0697,-7.1293,-7.1293,-7.2202,-7.3487,-7.3634,-7.4625,-7.5909,-7.5909,0.0,0.0,0.0,0.0,-7.4441,-7.312,0.0,0.0,0.0,0.0,0.0,0.0,0.0,0.0,0.0,0.0,0.0,0.0,0.0,-6.1557,-6.141,-6.075,-5.9942,-5.9111,-5.8437,-5.7997,-5.7997,-5.7997,-5.7413,-5.5893,-5.5724,-5.5466,-5.4848,-5.535,-5.5837,-5.6075,-5.7277,-5.7373,-5.5868,-5.5706,-5.5251,-5.4549,-5.4128,-5.4034,-5.4235,-5.6557,-5.781,-5.7963,-5.9893,-6.0781,-6.0781,-6.0781,-6.0781,-6.0781,-6.0781,-6.0319,-5.9473,-5.9358,-5.8819,-5.8088,-5.8242,-5.8204,-5.8127,-5.8588,-5.905,-5.9511,0.0,0.0,0.0,0.0,0.0,0.0,0.0,0.0,0.0,0.0,-7.6827,-7.7273,0.0,-7.7273,-7.7273,-7.7273,-7.7273,-7.7273,-7.7273,0.0,0.0,-7.7273,-7.7273,-7.7273,-7.7273,-7.7273,-7.7273,-7.7273,-7.7273,-7.7273,-7.7273,-7.7273,-7.7273,-7.7273,-7.7273,-7.6393,-7.4918,-7.4808,-7.3817,-7.2275,-7.1468,-7.1183,-7.1293,-7.1293,-7.1872,-7.2753,-7.345,-7.4294,-7.5065,-7.5065,-7.5065,0.0,0.0,0.0,-7.3817,-7.3597,0.0,0.0,0.0,0.0,0.0,0.0,0.0,0.0,0.0,0.0,0.0,0.0,0.0,0.0,-6.0676,-5.9905,-5.9074,-5.829,-5.807,-5.7997,-5.7997,-5.7997,-5.7413,-5.5893,-5.5724,-5.5667,-5.5581,-5.5667,-5.6268,-5.7604,-5.7877,-5.7593,-5.6712,-5.5978,-5.5407,-5.4928,-5.4603,-5.4919,-5.605,-5.7506,-5.8569,-5.9261,-6.0308,-6.0781,-6.0781,-6.0781,-6.0781,-6.0781,-6.0781,-6.0319,-5.9435,-5.8742,-5.7934,-5.7253,-5.8011,-5.7857,-5.7445,-5.9665,-6.005,-5.9627,0.0,0.0,0.0,0.0,0.0,0.0,0.0,0.0,0.0,0.0,0.0,-7.7273,0.0,-7.7273,-7.7273,-7.7273,-7.7273,-7.7273,-7.7273,-7.7273,-7.7273,-7.7273,-7.7273,-7.7273,-7.7273,-7.7273,-7.7273,-7.7273,-7.7273,-7.7273,-7.7273,-7.7273,-7.7053,-7.6607,-7.6166,-7.5322,-7.4184,-7.3266,-7.2202,-7.1056,-7.0138,-6.9542,-6.9431,-7.0618,-7.1102,-7.1321,-7.2569,-7.3523,-7.4221,-7.4221,-7.4221,-7.4221,-7.4221,0.0,0.0,0.0,0.0,0.0,0.0,0.0,0.0,0.0,0.0,0.0,0.0,0.0,0.0,0.0,0.0,0.0,0.0,-6.0126,-5.9465,-5.8217,-5.7997,-5.7997,-5.7997,-5.7655,-5.6953,-5.5836,-5.5724,-5.5724,-5.5724,-5.6087,-5.6644,-5.7267,-5.774,-5.7262,-5.5537,-5.5537,-5.5207,-5.4354,-5.4443,-5.5117,-5.6379,-5.7668,-5.8934,-6.0242,-6.0627,-6.0781,-6.0781,-6.0781,-6.0781,-6.0781,-6.0781,-6.005,-5.8819,-5.8434,-5.778,-5.7099,-5.7973,-5.8357,-5.8588,-6.0204,-6.055,-6.0281,0.0,0.0,0.0,0.0,0.0,0.0,0.0,0.0,0.0,0.0,0.0,0.0,0.0,0.0,0.0,0.0,-7.7273,-7.7273,-7.7273,-7.7273,-7.7273,-7.7273,-7.7273,-7.7273,-7.7273,-7.7273,-7.7273,-7.7273,0.0,-7.7273,-7.7273,-7.709,-7.668,-7.6056,-7.5469,-7.4661,-7.3597,-7.1982,-7.0891,-7.018,-6.8741,-6.8283,-6.853,-6.9533,-7.0101,-7.0403,-7.1488,-7.2532,-7.3377,-7.3377,-7.3377,-7.3377,-7.3377,-7.2973,0.0,0.0,0.0,0.0,0.0,0.0,0.0,0.0,0.0,0.0,0.0,0.0,0.0,0.0,0.0,0.0,0.0,0.0,-5.9722,-5.851,-5.8143,-5.7997,-5.7997,-5.7376,-5.6616,-5.5808,-5.5724,-5.5724,-5.5724,-5.6421,-5.6973,-5.7107,-5.7666,-5.7042,-5.4803,-5.5244,-5.5085,-5.4034,-5.4305,-5.5276,-5.6856,-5.8254,-5.955,-6.0781,-6.0781,-6.0781,-6.0781,-6.0781,-6.0781,-6.0781,-6.0781,-5.9973,-5.8588,-5.8588,-5.8088,-5.7407,-5.828,-5.8973,-5.9627,-6.0473,-6.0781,-6.0781,0.0,0.0,0.0,0.0,0.0,0.0,0.0,0.0,0.0,0.0,0.0,0.0,-7.7273,-7.7273,-7.7273,-7.7273,-7.7273,-7.7273,-7.7273,-7.7273,-7.7273,-7.7273,-7.7273,0.0,-7.7273,-7.7273,0.0,0.0,0.0,0.0,-7.7273,-7.6533,-7.613,-7.6093,-7.6056,-7.5175,-7.3597,-7.1982,-7.1129,-7.0648,-6.8254,-6.8526,-7.0159,-6.8151,-6.8788,-7.071,-7.033,-7.1211,-7.2569,-7.2569,-7.2569,-7.2569,-7.2569,-7.2532,-7.2496,0.0,0.0,0.0,0.0,0.0,0.0,0.0,0.0,0.0,0.0,0.0,0.0,0.0,0.0,0.0,0.0,0.0,0.0,0.0,-5.851,-5.7997,-5.7997,-5.7376,-5.6616,-5.5808,-5.5724,-5.5724,-5.5724,-5.6421,-5.7191,-5.7877,-5.796,-5.7262,-5.5633,-5.5596,-5.5249,-5.4495,-5.4468,-5.5674,-5.817,-5.9846,-6.0704,-6.0781,-6.0781,-6.0781,-6.0781,-6.0781,-6.0781,-6.0781,-6.0781,-6.0281,-5.9435,-5.9435,-5.8973,-5.8319,-5.9127,-5.9473,-5.9627,-6.0473,-6.0781,-6.0781,0.0,0.0,0.0,0.0,0.0,0.0,0.0,0.0,0.0,0.0,0.0,0.0,0.0,-7.6792,-7.7125,-7.7125,-7.7245,-7.7273,-7.7273,-7.7273,-7.7273,-7.7273,-7.7273,0.0,0.0,0.0,0.0,0.0,0.0,-7.7017,-7.6533,-7.624,-7.5836,-7.5322,-7.4771,-7.3964,-7.2826,-7.1211,-7.037,-6.9988,-6.8375,-6.7864,-6.8103,-6.7823,-6.8062,-6.8517,-6.8552,-6.9596,-7.0881,-7.0367,-7.055,-7.0954,-7.0954,-7.1321,-7.1725,-7.1725,0.0,0.0,0.0,0.0,0.0,0.0,0.0,0.0,0.0,0.0,0.0,0.0,0.0,0.0,0.0,0.0,0.0,0.0,0.0,0.0,-5.9538,-5.8467,-5.7556,-5.7254,-5.6797,-5.6447,-5.6447,-5.7166,-5.7922,-5.8707,-5.829,-5.7519,-5.6418,-5.5868,-5.5269,-5.4528,-5.4484,-5.5712,-5.8269,-5.9973,-6.0781,-6.0781,-6.0781,-6.0781,-6.0781,-6.0781,-6.0781,-6.0781,-6.0781,-6.0319,-5.9511,-5.9511,-5.9319,-5.9088,-5.9396,-5.9858,-6.0358,-6.0666,-6.0781,-6.0781,0.0,0.0,0.0,-7.3266,0.0,-7.2863,-7.3927,-7.3854,-7.4001,-7.4808,0.0,0.0,0.0,0.0,-7.6621,-7.6699,-7.6803,-7.698,-7.7273,-7.7047,-7.7047,-7.7273,-7.7273,0.0,0.0,0.0,0.0,0.0,0.0,0.0,0.0,-7.5836,-7.5432,-7.4882,-7.4074,-7.3083,-7.1982,-7.0578,-6.978,-6.9454,-6.8012,-6.7578,-6.7759,-6.7542,-6.7748,-6.8147,-6.7895,-6.884,-7.0075,-6.9078,-6.9073,-6.96,-6.9972,-7.0844,-7.1615,-7.1064,-7.0697,0.0,0.0,0.0,0.0,0.0,0.0,0.0,0.0,0.0,0.0,0.0,0.0,0.0,0.0,0.0,0.0,0.0,0.0,0.0,0.0,-5.9474,-5.8382,-5.8129,-5.7634,-5.7309,-5.7309,-5.8203,-5.9024,-5.9551,-5.8877,0.0,-5.7262,-5.6301,-5.56,-5.5125,-5.5555,-5.6738,-5.8692,-6.0089,-6.0781,-6.0781,-6.0781,-6.0781,-6.0781,-6.0781,-6.0781,-6.0781,-6.0781,-6.0473,-5.9935,-5.9935,-5.9935,-5.9935,-5.9935,-6.0281,-6.0781,-6.0781,-6.0781,-6.0781,-7.367,-7.367,-7.3891,-7.4698,-7.356,-7.3046,-7.4588,-7.4184,-7.3927,-7.4735,0.0,0.0,0.0,0.0,0.0,-7.6146,-7.613,-7.646,-7.7237,-7.657,-7.646,-7.7237,-7.7273,0.0,0.0,0.0,0.0,0.0,0.0,0.0,0.0,0.0,-7.4845,-7.4771,-7.4001,-7.2753,-7.1166,-7.0151,-6.9567,-6.9126,-6.7241,-6.7752,-6.9473,-6.7256,-6.7921,-6.9853,-6.8395,-6.8991,-7.0169,-6.8786,-6.8328,-6.8567,-6.9704,-7.1138,-7.2092,-7.0513,-7.0624,-7.0734,0.0,0.0,0.0,0.0,0.0,0.0,0.0,0.0,0.0,0.0,0.0,0.0,0.0,0.0,0.0,0.0,0.0,0.0,0.0,0.0,-5.9157,-5.8336,-5.8228,-5.8228,-5.8192,-5.9577,-6.0493,-6.0529,-5.9758,-5.8914,-5.8107,-5.6899,-5.6286,-5.6442,-5.7668,-5.8704,-5.9473,-6.0358,-6.0781,-6.0781,-6.0781,-6.0781,-6.0781,-6.0781,-6.0781,-6.0781,-6.0781,-6.0781,-6.0781,-6.0781,-6.0781,-6.0781,-6.0781,-6.0781,-6.0781,-6.0781,-6.0781,-6.0781,-7.2826,-7.2826,-7.2899,-7.312,-7.2789,-7.2642,-7.312,-7.2973,-7.2899,0.0,0.0,0.0,-7.5516,-7.662,-7.7405,-7.7654,-7.6715,-7.646,-7.7237,-7.657,-7.646,-7.7237,-7.7273,0.0,0.0,0.0,0.0,0.0,0.0,0.0,0.0,0.0,0.0,0.0,-7.2679,-7.1615,-6.9587,-7.03,-7.0068,-6.924,-6.8458,-6.8748,-6.9473,-6.7256,-6.7196,-6.8045,-6.6105,-6.6426,-6.7608,-6.6269,-6.6565,-6.7749,-6.8894,-6.9559,-6.9816,-6.9376,-6.9412,-6.9302,-6.8017,0.0,0.0,0.0,0.0,0.0,-6.8495,-6.8128,0.0,0.0,0.0,0.0,0.0,0.0,0.0,0.0,0.0,0.0,0.0,0.0,0.0,0.0,-6.1503,-6.1247,-6.0688,-6.1532,-6.2401,0.0,-6.1741,-6.0566,-5.9795,-5.7821,-5.6889,-5.7243,-5.8513,-5.9281,-5.9511,-6.0358,-6.0781,-6.0781,-6.0781,-6.0781,-6.0781,-6.0781,-6.0781,-6.0781,-6.0781,-6.0781,-6.0781,-6.0781,-6.0781,-6.0781,-6.0781,-6.0781,-6.0781,-6.0781,-6.0781,-6.0781,-7.2936,-7.2716,-7.2496,-7.2496,-7.2714,-7.2899,-7.2899,-7.3066,-7.325,0.0,0.0,0.0,-7.5769,-7.6765,-7.7372,-7.7308,-7.5937,-7.5432,-7.6246,-7.5873,-7.5983,-7.679,-7.7127,0.0,0.0,0.0,0.0,0.0,0.0,0.0,0.0,0.0,0.0,-7.1293,-7.1798,-7.0844,-6.899,-7.0201,-7.0389,-6.9808,-6.9349,-6.9817,-7.0525,-6.8507,-6.8265,-6.8717,-6.6777,-6.6543,-6.6899,-6.5206,-6.5441,-6.6519,-6.7169,-6.8091,-6.8898,-6.8898,-6.8898,-6.8715,-6.7907,-6.7687,-6.7797,-6.8274,0.0,0.0,-6.743,-6.7283,-6.71,0.0,0.0,0.0,0.0,0.0,0.0,0.0,0.0,0.0,0.0,0.0,0.0,0.0,0.0,-6.3172,-6.2695,-6.3392,-6.4053,-6.4567,-6.3356,-6.1995,-6.0565,-5.884,-5.8028,-5.8374,-5.911,-5.9665,-6.005,-6.055,-6.0781,-6.0781,-6.0781,-6.0781,-6.0781,-6.0781,-6.0781,-6.0781,-6.0781,-6.0781,-6.0781,-6.0781,-6.0781,-6.0781,-6.0781,-6.0781,-6.0781,-6.0781,-6.0781,-6.0781,0.0,-7.2973,-7.2496,-7.2496,-7.2997,-7.3391,-7.3391,-7.3911,-7.4293,0.0,-7.4865,-7.5585,-7.6402,-7.6683,-7.6609,-7.6056,-7.4672,-7.4125,-7.4845,-7.4845,-7.5139,0.0,0.0,0.0,0.0,0.0,0.0,0.0,0.0,0.0,0.0,0.0,0.0,-7.1174,-7.1174,-7.033,-6.898,-7.0151,-7.0671,-7.068,-7.008,-7.0783,-7.2014,-7.0321,-7.009,-7.0398,-6.8821,-6.7885,-6.7136,-6.5178,-6.4837,-6.5191,-6.5375,-6.6916,-6.8641,-6.8752,-6.8788,-6.8605,-6.7871,-6.7687,-6.7687,-6.7687,-6.7687,0.0,-6.5778,-6.5999,-6.6292,0.0,0.0,0.0,0.0,0.0,0.0,0.0,0.0,0.0,0.0,0.0,0.0,0.0,0.0,0.0,-6.464,-6.5301,-6.5742,-6.5852,-6.4934,-6.3423,-6.1243,-6.0148,-5.964,-5.9796,-5.9704,-6.0012,-6.0781,-6.0781,-6.0781,-6.0781,-6.0781,-6.0781,-6.0781,-6.0781,-6.0781,-6.0781,-6.0781,-6.0781,-6.0781,-6.0781,-6.0781,-6.0781,-6.0781,-6.0781,-6.0781,-6.0781,-6.0781,-6.0781,-7.2716,-7.2606,-7.2496,-7.2496,-7.2997,-7.3391,0.0,0.0,-7.4293,-7.4293,-7.5396,-7.6397,-7.7054,-7.7296,-7.7197,-7.6609,-7.5246,-7.4552,-7.4875,-7.4294,0.0,0.0,0.0,0.0,0.0,0.0,0.0,0.0,0.0,0.0,0.0,0.0,0.0,0.0,-7.033,-6.9816,-6.9017,0.0,0.0,-7.1491,-7.0923,-7.1283,-7.2014,-7.0321,-6.936,-6.8744,-6.7705,-6.6859,-6.6159,-6.5553,-6.4911,-6.4567,-6.5852,-6.6586,-6.71,-6.7724,-6.7907,-6.7907,-6.7724,-6.7687,-6.7687,-6.7687,-6.7687,0.0,-6.6476,-6.6402,-6.6476,0.0,0.0,0.0,0.0,0.0,0.0,0.0,0.0,0.0,0.0,0.0,0.0,0.0,0.0,0.0,-6.8017,-6.8128,-6.8458,-6.9119,-6.721,-6.5606,-6.4613,-6.2485,-6.1386,-6.1577,-6.0896,-6.0627,-6.0781,-6.0781,-6.0781,-6.0781,-6.0781,-6.0781,-6.0781,-6.0781,-6.0781,-6.0781,-6.0781,-6.0781,-6.0781,-6.0781,-6.0781,-6.0781,-6.0781,-6.0781,-6.0781,-6.0781,-6.0781,-6.0781,-7.3083,-7.2789,-7.2496,-7.2496,-7.325,-7.3841,0.0,0.0,0.0,-7.5167,-7.6144,-7.6782,-7.6692,-7.648,-7.6103,-7.5544,-7.4209,-7.3427,-7.3663,-7.3707,0.0,0.0,0.0,0.0,0.0,0.0,0.0,0.0,0.0,0.0,0.0,0.0,0.0,0.0,0.0,0.0,0.0,0.0,-7.161,-7.2168,-7.1705,-7.1822,-7.2014,-7.0321,-6.9167,-6.8282,-6.7398,-6.5991,-6.4448,-6.4105,-6.3476,-6.3062,-6.4273,-6.4934,-6.5521,-6.6733,-6.71,-6.7173,-6.7577,-6.7687,-6.7687,-6.7687,-6.7393,0.0,0.0,-6.5888,-6.5888,0.0,0.0,0.0,0.0,0.0,0.0,0.0,0.0,0.0,0.0,0.0,0.0,0.0,0.0,0.0,-6.9522,-6.9486,-6.9669,-7.0073,-6.8605,-6.7235,-6.6137,-6.4558,-6.3344,-6.2719,-6.2281,-6.205,-6.205,-6.1627,-6.1447,-6.1435,-6.1012,-6.0781,-6.0781,-6.0781,-6.0781,-6.0781,-6.0781,-6.0781,-6.0781,-6.0781,-6.0781,-6.0781,-6.0781,-6.0781,-6.0781,-6.0781,-6.1089,-6.1408,-7.345,-7.2936,-7.2496,-7.2496,0.0,0.0,0.0,0.0,0.0,-7.6015,-7.6322,-7.6284,-7.5592,-7.4801,-7.4083,-7.3539,-7.2312,-7.1714,-7.2134,-7.2729,0.0,0.0,0.0,-7.4368,0.0,0.0,0.0,0.0,0.0,0.0,0.0,0.0,0.0,0.0,0.0,0.0,0.0,0.0,0.0,-7.2359,0.0,-7.2206,-7.2014,-7.0321,-6.9167,-6.8244,-6.7051,-6.5061,-6.2951,-6.2725,-6.2321,-6.204,-6.2916,-6.3567,-6.4303,-6.5804,-6.6145,-6.6256,-6.721,-6.7467,-6.7504,-6.765,-6.71,-6.6329,0.0,0.0,0.0,0.0,0.0,0.0,0.0,0.0,0.0,0.0,0.0,0.0,0.0,0.0,0.0,0.0,0.0,0.0,-7.033,-7.0477,-7.0513,-7.033,-6.9743,-6.8789,-6.7492,-6.6498,-6.5376,-6.4064,-6.3897,-6.3743,-6.3551,-6.2897,-6.2409,-6.2101,-6.1408,-6.0973,-6.0781,-6.0781,-6.0781,-6.0781,-6.0781,-6.0781,-6.0781,-6.0781,-6.0781,-6.0781,-6.0781,-6.0781,-6.0819,-6.0973,-6.1512,-6.2024,-7.2642,-7.2569,-7.2496,-7.2496,0.0,0.0,0.0,0.0,0.0,0.0,-7.4784,-7.3899,-7.3783,-7.2356,-7.1168,-7.0618,-6.9983,-7.0023,-7.0908,-7.0696,-7.0844,0.0,0.0,0.0,-7.1696,0.0,0.0,0.0,0.0,0.0,0.0,0.0,0.0,0.0,-6.8568,0.0,0.0,0.0,-7.027,0.0,-7.201,-7.2206,0.0,-7.0321,-6.9167,-6.809,-6.5743,-6.3904,-6.2756,-6.3432,-6.3303,-6.3122,-6.4233,-6.4153,-6.3891,-6.5087,-6.4934,-6.4677,-6.6219,-6.6623,-6.6806,-6.7504,-6.71,-6.6476,-6.6366,0.0,-6.5521,-6.6219,0.0,0.0,0.0,0.0,0.0,0.0,0.0,0.0,0.0,0.0,0.0,0.0,0.0,0.0,0.0,-7.1835,-7.1945,-7.1248,-7.1101,-7.075,-7.011,-6.859,-6.7405,-6.6679,-6.5974,-6.5243,-6.4474,-6.4359,-6.3551,-6.2101,-6.1985,-6.155,-6.0781,-6.0781,-6.0781,-6.0781,-6.0781,-6.0781,-6.0781,-6.0781,-6.0781,-6.0781,-6.0781,-6.0781,-6.0896,-6.1678,-6.2024,-6.2178,-7.2992,-7.2653,-7.2468,-7.2913,0.0,0.0,0.0,0.0,0.0,0.0,0.0,-7.3822,-7.286,-7.2091,-7.1242,-7.0192,-6.9867,-6.9844,-7.0065,-7.0397,-7.0786,0.0,0.0,0.0,0.0,0.0,0.0,0.0,-7.2386,0.0,0.0,0.0,0.0,0.0,-6.8808,0.0,-6.8871,0.0,-7.0764,0.0,0.0,0.0,0.0,-6.9398,-6.7821,-6.6013,-6.4397,-6.3025,-6.2048,0.0,-6.2774,0.0,-6.3147,-6.346,-6.3721,-6.4401,-6.4347,-6.4347,-6.5485,-6.5815,-6.5888,-6.6219,-6.5913,-6.557,-6.5746,-6.5729,-6.5866,-6.6371,0.0,0.0,0.0,0.0,0.0,0.0,-6.9486,0.0,0.0,0.0,0.0,0.0,0.0,0.0,0.0,0.0,0.0,-7.2018,-7.2018,-7.1749,-7.1223,-7.0098,-6.9188,-6.8641,-6.7782,-6.7167,-6.6821,-6.5859,-6.4743,-6.3551,-6.2563,-6.1639,-6.0781,-6.0781,-6.0781,-6.0781,-6.0781,-6.1089,-6.1524,-6.1012,-6.1089,-6.155,-6.155,-6.155,-6.1601,-6.1985,-6.2716,-6.3512,-7.3071,-7.2585,-7.2208,0.0,0.0,0.0,0.0,0.0,0.0,0.0,-7.3976,-7.3206,-7.1975,-7.1437,-7.0748,-6.9725,-6.9289,-6.917,-6.9378,-7.0037,-7.0536,-7.0713,-7.1971,-7.2526,-7.2304,0.0,0.0,0.0,0.0,0.0,0.0,0.0,0.0,0.0,0.0,-6.9108,-6.8542,0.0,-7.0856,-7.0975,-7.1591,-7.0706,-6.8898,-6.8052,-6.6128,-6.382,-6.3205,-6.2209,-6.1381,-6.2194,-6.2231,0.0,-6.2296,-6.2816,-6.3351,0.0,0.0,-6.3696,-6.4731,-6.5027,-6.5138,-6.5606,-6.5343,-6.5195,-6.5875,-6.603,-6.6189,-6.69,-6.7379,0.0,0.0,0.0,0.0,0.0,0.0,-7.022,0.0,0.0,0.0,0.0,0.0,0.0,0.0,0.0,0.0,-7.2165,-7.2386,-7.2368,-7.2052,-7.1513,-7.1067,-7.0755,-7.0129,-6.959,-6.909,-6.7667,-6.6282,-6.4936,-6.3243,-6.1973,-6.1127,-6.0896,-6.0781,-6.0781,-6.0781,-6.1166,-6.1716,-6.132,-6.1524,-6.2139,-6.232,-6.2551,-6.2781,-6.2781,-6.3551,-6.4551,-7.2336,-7.2146,-7.1545,0.0,0.0,0.0,0.0,0.0,0.0,-7.3538,-7.2091,-7.1014,-7.0937,-6.9475,-6.85,-6.8448,-6.7278,-6.7164,-6.8697,-6.9152,-6.9327,-6.9265,-7.1659,-7.2623,-7.1836,-7.2018,0.0,0.0,0.0,0.0,0.0,0.0,0.0,0.0,0.0,-6.9051,-6.9275,-6.9333,-6.9957,-7.0898,-7.0937,-6.9436,-6.709,0.0,-6.4397,-6.2178,-6.2139,0.0,0.0,-6.1808,-6.2115,0.0,0.0,0.0,0.0,0.0,0.0,0.0,0.0,0.0,-6.4707,-6.6347,-6.6141,-6.5972,-6.7555,-6.6914,-6.6476,-6.8115,-6.8047,-6.7687,-6.7687,-6.8348,-6.9119,-6.9889,0.0,0.0,0.0,0.0,0.0,0.0,0.0,0.0,0.0,0.0,-7.1329,-7.1329,-7.2055,-7.2627,-7.294,-7.293,-7.306,-7.337,-7.336,-7.2552,-7.0821,-6.9975,-6.8321,-6.582,-6.4089,-6.2858,-6.2024,-6.1166,-6.0781,-6.0781,-6.0781,-6.0819,-6.0896,-6.1716,-6.2062,-6.2178,-6.2974,-6.3782,-6.4512,-6.4512,-6.4551,-6.4705,-7.0708,-7.0961,-7.1367,-7.1938,-7.2685,0.0,0.0,-7.3514,-7.3091,-7.1937,-7.1283,-7.0475,-6.936,-6.8744,-6.8167,-6.759,-6.7138,-6.694,-6.7126,-6.8306,-6.9058,-6.9196,-7.1082,-7.2289,-7.2574,-7.268,0.0,0.0,0.0,0.0,0.0,0.0,0.0,0.0,0.0,-6.8576,0.0,0.0,0.0,0.0,0.0,-6.8398,-6.6898,0.0,-6.332,-6.2024,-6.1447,-6.105,0.0,-6.1127,-6.1639,-6.2079,-6.1807,-6.2132,-6.2474,-6.1969,-6.1787,-6.1938,0.0,0.0,-6.2805,-6.3371,0.0,-6.4617,-6.537,-6.6352,-6.726,-6.8032,-6.8494,-6.8786,-6.8977,-6.9248,0.0,0.0,0.0,0.0,0.0,0.0,0.0,0.0,0.0,0.0,0.0,0.0,0.0,-7.0513,-7.1248,-7.2098,-7.2946,-7.2989,-7.3402,-7.4255,-7.3783,-7.3245,-7.2629,-7.0667,-6.8975,-6.7552,-6.5243,-6.3705,-6.2897,-6.2589,-6.2166,-6.1678,-6.1678,-6.1973,-6.2435,-6.2204,-6.2743,-6.3782,-6.4051,-6.4359,-6.4589,-6.4589,-6.4974,-6.5513,-6.9821,-7.0129,-7.0734,-7.1574,-7.2046,-7.2355,-7.2563,-7.2591,-7.2091,-7.0667,-7.0475,-6.9937,-6.8552,-6.8385,-6.8167,-6.7628,-6.7282,-6.7061,-6.7072,-6.8342,-6.9208,-6.9373,-7.097,-7.2148,-7.2718,-7.2488,-7.2642,-7.3124,0.0,-7.0487,0.0,0.0,0.0,0.0,0.0,-6.9131,-6.8811,0.0,-7.0378,0.0,0.0,-6.7705,0.0,0.0,-6.282,-6.1985,0.0,-6.0781,-6.0781,-6.0781,-6.1166,-6.1591,-6.1234,-6.1496,-6.1874,-6.1568,-6.1451,-6.1527,-6.1831,-6.1907,0.0,-6.2249,-6.2963,0.0,-6.4671,0.0,-6.7347,-6.8129,-6.8828,-6.9453,-6.9934,-6.9845,0.0,0.0,0.0,0.0,0.0,-7.055,0.0,0.0,0.0,0.0,0.0,0.0,-6.9669,-6.9669,-7.044,-7.1505,0.0,-7.301,-7.3801,-7.5562,-7.513,-7.4707,-7.4399,-7.2168,-7.0321,-6.8821,-6.6282,-6.4628,-6.3743,-6.3435,-6.3012,-6.2512,-6.2512,-6.282,-6.3281,-6.3089,-6.3628,-6.4628,-6.4936,-6.5051,-6.5051,-6.5051,-6.559,-6.632,-6.9706,-6.9744,-6.9826,-7.0097,-7.0129,-7.0314,-7.0805,-7.0898,-7.0591,-6.9744,-6.9629,-6.9283,-6.8398,-6.8269,-6.8269,-6.8269,-6.7513,-6.7398,-6.8282,-6.9167,-6.9667,-6.9706,-7.1245,-7.2129,-7.2129,-7.1625,-7.1717,-7.2556,0.0,0.0,0.0,0.0,0.0,0.0,-7.0597,0.0,-7.0209,-7.0993,-7.1166,-7.0744,-6.909,-6.7436,-6.5743,-6.3974,-6.282,-6.1985,-6.1089,-6.0781,-6.0781,-6.0781,-6.0781,-6.0781,-6.0781,-6.0781,-6.0781,-6.0781,-6.0781,-6.0973,-6.1831,-6.2062,-6.2204,-6.3012,-6.3205,0.0,0.0,0.0,-6.6739,0.0,-6.8999,-6.9524,-7.0506,0.0,0.0,0.0,0.0,0.0,0.0,0.0,-7.1064,0.0,0.0,0.0,0.0,-6.8898,-6.8862,-6.8898,-6.9633,0.0,0.0,0.0,-7.441,-7.7231,-7.7323,-7.6938,-7.6053,-7.4361,-7.2245,-6.9744,-6.7167,-6.5513,-6.4628,-6.382,-6.3423,-6.3346,-6.3346,-6.3346,-6.3435,-6.4282,-6.4628,-6.4743,-6.559,-6.5897,-6.5897,-6.5936,-6.6436,-6.709,-6.959,-7.0167,-7.0602,-7.0695,-7.0681,-7.0748,-7.0885,-7.0898,-7.0398,-6.8936,-6.8744,-6.8167,-6.6705,-6.6551,-6.6551,-6.6551,-6.632,-6.6551,-6.7359,-6.8244,-6.9013,-6.9667,-7.0706,-7.1245,-7.1245,-7.1723,-7.1857,-7.1624,0.0,0.0,-7.0884,0.0,0.0,0.0,0.0,0.0,-7.1086,-7.1277,-7.1182,-7.0744,-6.909,-6.7744,-6.6551,0.0,-6.282,-6.1985,-6.1089,-6.0781,-6.0781,-6.0781,-6.0781,-6.0781,-6.0781,-6.0781,-6.0781,-6.0781,-6.0781,-6.0858,-6.105,-6.1127,-6.1166,-6.1396,-6.1935,-6.2512,0.0,0.0,0.0,0.0,0.0,0.0,0.0,0.0,0.0,0.0,0.0,0.0,0.0,-7.1835,-7.1908,-7.1101,-7.0807,-7.0477,-6.9853,-6.8715,-6.8238,-6.8862,-6.9633,0.0,0.0,0.0,0.0,-7.7269,-7.7861,-7.7784,-7.6976,-7.4668,-7.2514,-7.0552,-6.8013,-6.6359,-6.5551,-6.532,-6.4897,-6.4282,-6.4282,-6.4282,-6.4282,-6.4512,-6.4974,-6.559,-6.582,-6.5897,-6.5974,-6.6551,-6.6898,-6.7167,-6.9513,-7.036,-7.0898,-7.0898,-7.0591,-7.0398,-7.0398,-7.0667,-7.0167,-6.809,-6.8167,-6.7782,-6.609,-6.5897,-6.5897,-6.5897,-6.5897,-6.6397,-6.759,-6.8129,-6.8936,-7.0167,-7.0667,-7.0898,-7.0898,-7.136,-7.1478,-7.1121,0.0,0.0,-7.1616,0.0,0.0,0.0,0.0,-7.1992,0.0,-7.1344,-7.0853,-7.0244,-6.8936,-6.7436,0.0,-6.4012,-6.2551,-6.1485,-6.0973,-6.0781,-6.0781,-6.0781,-6.0781,-6.0781,-6.0781,-6.0781,-6.0781,-6.0781,-6.0781,-6.0781,-6.0781,-6.0781,-6.0781,-6.0781,-6.1447,-6.2178,-6.2551,-6.4012,-6.5551,0.0,-6.7552,-6.9023,0.0,0.0,0.0,0.0,0.0,0.0,-7.1937,-7.2202,-7.2349,-7.1872,-7.1747,-7.1571,-7.1166,-6.9669,-6.8788,-6.8898,-6.9633,0.0,0.0,0.0,0.0,-7.7769,-7.8246,-7.8284,-7.7823,-7.5284,-7.3168,-7.1437,-6.8898,-6.7244,-6.6397,-6.6051,-6.5628,-6.5166,-6.5166,-6.5166,-6.5166,-6.5166,-6.5474,-6.5897,-6.5897,-6.609,-6.6513,-6.7359,-6.7667,-6.7782,-6.9513,-7.036,-7.0898,-7.0898,-7.0321,-6.9821,-6.9706,-7.0206,-6.9744,-6.7398,0.0,-6.759,-6.5897,-6.5743,-6.5667,-6.5551,-6.5667,-6.6397,-6.7975,-6.8269,-6.909,-7.0667,-7.0821,-7.086,-7.0744,-7.0744,-7.0744,-7.0744,0.0,0.0,0.0,0.0,0.0,0.0,0.0,0.0,0.0,-7.1206,-7.036,-6.9475,-6.8706,-6.6859,-6.4512,-6.3628,-6.2243,-6.0781,-6.0781,-6.0781,-6.0781,-6.0781,-6.0781,-6.0781,-6.0781,-6.0781,-6.0781,-6.0781,-6.0781,-6.0781,-6.0781,-6.0781,-6.0781,-6.0781,-6.1358,-6.2089,-6.282,-6.3666,-6.4512,-6.5397,-6.6821,-6.8282,-6.9475,0.0,0.0,0.0,0.0,-7.3272,-7.2867,-7.2716,-7.2671,-7.2786,-7.2622,0.0,-7.2437,-7.1094,-6.9926,-6.9265,0.0,0.0,0.0,0.0,0.0,-7.8423,-7.8707,-7.8707,-7.8477,-7.6207,-7.4091,-7.2168,-6.986,-6.8167,-6.709,-6.6359,-6.6013,-6.5897,-6.5897,-6.5897,-6.5897,-6.5897,-6.5897,-6.5897,-6.5897,-6.6397,-6.7205,-6.809,-6.8475,-6.8706,-6.9398,-7.036,-7.0898,-7.0898,-7.0783,-7.0475,-6.9821,-6.9206,-6.8436,-6.7244,-6.7244,-6.6705,-6.5013,-6.482,-6.4551,-6.382,-6.4397,0.0,0.0,0.0,-6.8859,-6.986,-7.0552,-7.0591,-6.9937,-6.9898,-6.9898,-6.9898,0.0,0.0,0.0,0.0,0.0,0.0,0.0,0.0,-7.1129,-7.0975,0.0,-6.8629,-6.8462,-6.6859,-6.4512,-6.3628,-6.2243,-6.0781,-6.0781,-6.0781,-6.0781,-6.0781,-6.0781,-6.0781,-6.0781,-6.0781,-6.0781,-6.0781,-6.0781,-6.0781,-6.0781,-6.0781,-6.0781,-6.0781,-6.0896,-6.105,-6.1204,-6.1897,-6.2781,-6.3589,-6.4551,-6.6167,-6.9167,0.0,0.0,0.0,0.0,-7.3643,-7.4382,-7.3927,-7.3681,-7.4174,-7.4183,-7.3676,-7.2383,-7.1417,-7.0828,0.0,0.0,0.0,0.0,0.0,0.0,0.0,-7.99,0.0,0.0,0.0,-7.5284,-7.2168,-7.1014,-6.9283,-6.709,-6.6936,-6.6513,-6.5897,-6.5897,-6.5897,-6.5897,-6.5897,-6.5897,-6.5897,-6.5897,-6.6397,-6.7205,-6.809,-6.8859,-6.959,-6.8859,0.0,-7.0129,-6.9667,0.0,0.0,0.0,-6.7628,-6.709,-6.709,-6.709,-6.6474,-6.4782,-6.4589,-6.4243,-6.3397,-6.3666,-6.432,-6.5166,-6.6397,-6.7667,-6.8975,-6.9398,-6.9821,-7.0321,-6.9898,-6.9898,-7.0321,0.0,0.0,0.0,0.0,0.0,0.0,0.0,-7.1437,0.0,0.0,0.0,-6.7744,-6.7744,-6.6205,-6.3897,-6.3474,-6.2243,-6.0781,-6.0781,-6.0781,-6.0781,-6.0781,-6.0781,-6.0781,-6.0781,-6.0781,-6.0781,-6.0781,-6.0781,-6.0781,-6.0781,-6.0781,-6.0781,-6.0781,-6.1127,-6.1485,-6.1485,-6.1793,-6.2216,-6.2589,-6.3705,-6.5782,-6.9629,-7.1434,0.0,-7.3456,-7.3725,-7.3927,-7.422,-7.4294,-7.4401,-7.4592,-7.486,-7.4472,-7.2957,0.0,0.0,0.0,0.0,0.0,0.0,0.0,0.0,0.0,0.0,0.0,-7.9169,0.0,-7.5553,-7.3476,-7.1745,-6.9783,-6.7744,-6.7321,-6.6898,-6.6513,-6.6513,-6.6513,-6.6474,-6.6051,-6.6397,-6.7167,-6.6705,-6.7321,-6.8513,-6.8936,-6.959,-7.0398,-6.8359,-6.8936,0.0,0.0,-6.8282,-6.8129,-6.7244,-6.6397,-6.6051,-6.6513,-6.6551,-6.5936,-6.4243,-6.4051,-6.3705,-6.2858,-6.2935,-6.3358,-6.4012,-6.5205,-6.6474,-6.7821,-6.8205,-6.909,-7.0591,-6.986,-6.9821,0.0,0.0,0.0,0.0,0.0,0.0,0.0,0.0,0.0,0.0,0.0,-6.7821,-6.6859,-6.7013,-6.5551,-6.3308,-6.3308,-6.2243,-6.0781,-6.0781,-6.0781,-6.0781,-6.0781,-6.0781,-6.0781,-6.0781,-6.0781,-6.0781,-6.0781,-6.0781,-6.0781,-6.0781,-6.0781,-6.0781,-6.0781,-6.132,-6.1831,-6.1831,-6.1831,-6.1831,-6.1831,-6.3281,-6.5782,-6.9667,-7.0667,0.0,0.0,0.0,-7.4165,-7.4108,-7.4675,-7.5107,-7.5058,-7.5411,-7.5161,-7.3916,0.0,0.0,0.0,0.0,0.0,-7.4287,0.0,0.0,0.0,0.0,-7.9708,-7.9515,0.0,-7.5938,-7.4668,-7.2476,-7.0475,-6.8667,-6.7975,-6.7552,-6.7359,-6.7359,-6.7359,-6.7321,-6.6705,-6.7205,-6.8321,-6.7628,-6.8321,-6.9706,-6.9706,-7.0321,-7.1168,0.0,0.0,0.0,0.0,0.0,-6.8129,-6.7244,-6.6397,-6.5628,-6.4936,-6.482,-6.4205,-6.2524,-6.2332,-6.1985,-6.1089,-6.1743,-6.2255,-6.2332,-6.4551,-6.5974,-6.6128,-6.759,-6.8859,-6.9783,-6.8975,-6.8936,0.0,0.0,-6.986,0.0,0.0,0.0,0.0,0.0,0.0,0.0,-6.8423,-6.7475,-6.609,-6.6821,-6.5551,-6.3308,-6.3308,-6.2243,-6.0781,-6.0781,-6.0781,-6.0781,-6.0781,-6.0781,-6.0781,-6.0781,-6.0781,-6.0781,-6.0781,-6.0781,-6.0781,-6.0781,-6.0781,-6.0781,-6.0781,-6.0858,-6.0935,-6.0935,-6.0935,-6.0935,-6.0935,-6.2897,-6.5436,-6.8129,-6.9898,-7.1242,0.0,0.0,0.0,-7.5399,-7.5618,-7.5905,-7.6465,-7.6338,-7.5894,-7.4999,-7.5666,0.0,0.0,-7.3639,0.0,0.0,0.0,0.0,-7.7385,0.0,-7.9438,-7.8631,-7.84,-7.7053,-7.4707,-7.3707,-7.1975,-6.959,-6.9475,-6.9052,-6.8282,-6.8282,-6.8282,-6.8282,-6.8205,-6.8282,-6.8385,-6.8321,-6.8859,-6.9706,-6.9706,-7.0706,-7.1975,0.0,0.0,0.0,0.0,0.0,0.0,0.0,-6.4551,-6.4051,-6.3205,-6.3512,-6.3397,-6.2216,-6.2101,-6.1755,-6.0858,-6.1127,-6.132,-6.132,-6.2755,-6.4051,-6.5089,-6.5743,-6.7013,-6.8898,-6.809,-6.8052,0.0,0.0,0.0,0.0,0.0,0.0,0.0,0.0,-6.7936,-6.759,-6.709,-6.6513,-6.5936,-6.6244,-6.5128,-6.3308,-6.3308,-6.2243,-6.0781,-6.0781,-6.0781,-6.0781,-6.0781,-6.0781,-6.0781,-6.0781,-6.0781,-6.0781,-6.0781,-6.0781,-6.0781,-6.0781,-6.0781,-6.0781,-6.0781,-6.0781,-6.0781,-6.0781,-6.0781,-6.0781,-6.0781,-6.2397,-6.4589,-6.7167,-6.859,-7.0105,-7.2227,0.0,0.0,0.0,0.0,-7.6375,-7.6452,-7.637,-7.5988,-7.5167,-7.5396,0.0,0.0,0.0,0.0,0.0,0.0,0.0,-7.7269,0.0,-7.8861,-7.8477,-7.8015,-7.6746,-7.4707,-7.3899,-7.2168,-6.9706,-6.9706,-6.9513,-6.9167,-6.9167,-6.9436,-6.9821,-6.8821,-6.9013,-6.986,-6.936,-7.0014,-7.1206,-7.1206,-7.1975,-7.2937,-6.5013,0.0,-6.4743,0.0,-6.382,-6.3935,-6.3089,-6.2935,-6.2743,-6.2178,-6.2358,-6.2358,-6.1781,-6.1716,-6.1485,-6.0858,-6.0781,-6.0781,-6.0781,-6.1639,-6.2627,-6.382,-6.4089,0.0,-6.7628,-6.7051,-6.7282,-6.8385,-6.9013,0.0,0.0,0.0,0.0,0.0,-6.7744,-6.709,-6.7051,-6.6244,-6.5897,-6.5897,-6.5897,-6.4859,-6.3308,-6.3308,-6.2243,-6.0781,-6.0781,-6.0781,-6.0781,-6.0781,-6.0781,-6.0781,-6.0781,-6.0781,-6.0781,-6.0781,-6.0781,-6.0781,-6.0781,-6.0781,-6.0781,-6.0781,-6.0781,-6.0781,-6.0781,-6.0781,-6.0935,-6.1435,-6.2474,-6.4089,-6.6628,-6.7821,-6.9149,-7.1379,0.0,0.0,0.0,-7.5885,0.0,-7.6313,-7.6249,-7.6012,-7.5417,-7.534,0.0,0.0,0.0,0.0,0.0,0.0,0.0,0.0,0.0,0.0,-7.8477,-7.7707,-7.6438,-7.4707,-7.363,-7.2052,-7.0052,-7.0052,-7.0052,-7.0052,-7.0052,-7.0398,-7.0821,-6.9629,-6.9821,-7.086,-7.0552,-7.1168,-7.2206,-7.2476,-7.3129,-7.3822,-6.5551,-6.4512,-6.332,-6.3308,-6.3308,-6.3051,-6.2255,-6.2101,-6.2101,-6.2101,-6.1358,-6.0819,-6.0819,-6.0819,-6.0819,-6.0781,-6.0781,-6.0781,-6.0781,-6.1639,-6.2101,0.0,0.0,-6.4128,-6.5897,-6.5897,-6.6744,-6.8385,0.0,0.0,-6.8436,0.0,-6.8436,-6.8398,-6.7475,-6.709,-6.7051,-6.6244,-6.5897,-6.5897,-6.5897,-6.4859,-6.3308,-6.3308,-6.2243,-6.0781,-6.0781,-6.0781,-6.0781,-6.0781,-6.0781,-6.0781,-6.0781,-6.0781,-6.0781,-6.0781,-6.0781,-6.0781,-6.0781,-6.0781,-6.0781,-6.0781,-6.0781,-6.0781,-6.0781,-6.0781,-6.1281,-6.2935,-6.3269,-6.4089,-6.6628,-6.7821,-6.8706,-6.9577,0.0,0.0,0.0,-7.5264,0.0,-7.6312,-7.612,-7.6015,-7.6015,-7.6015,0.0,0.0,0.0,0.0,0.0,0.0,0.0,-7.7284,-7.8938,0.0,-7.8515,-7.7707,-7.6438,-7.4668,-7.3014,-7.1745,-7.0898,-7.0898,-7.0898,-7.0898,-7.0898,-7.0898,-7.0898,-7.0898,-7.0898,-7.0975,-7.1822,-7.2168,-7.2283,-7.3168,-7.4014,-7.4591,-6.332,-6.2858,-6.2281,-6.1704,-6.1589,-6.1512,-6.1243,-6.1204,-6.1204,-6.1204,-6.0973,-6.0781,-6.0781,-6.0781,-6.0781,0.0,-6.0781,-6.0781,0.0,-6.105,-6.1485,-6.2062,-6.2358,-6.3012,-6.4089,-6.4705,-6.5282,-6.582,0.0,0.0,0.0,-6.7782,-6.7513,-6.7475,-6.6628,-6.6282,-6.6282,-6.6013,-6.5897,-6.5897,-6.5897,-6.4859,-6.3308,-6.3308,-6.2243,-6.0781,-6.0781,-6.0781,-6.0781,-6.0781,-6.0781,-6.0781,-6.0781,-6.0781,-6.0781,-6.0781,-6.0781,-6.0781,-6.0781,-6.0781,-6.0781,-6.0781,-6.0781,-6.0781,-6.0781,-6.0781,-6.0935,-6.1473,-6.2512,-6.3743,-6.5128,-6.7051,-6.8859,-7.0283,-7.1747,0.0,-7.3499,0.0,-7.5226,-7.5226,-7.5656,-7.6015,-7.6015,-7.6015,0.0,0.0,0.0,0.0,0.0,0.0,0.0,0.0,-7.8092,0.0,-7.6784,-7.5938,-7.4668,-7.2976,-7.2437,-7.1745,-7.0898,-7.0898,-7.0898,-7.0898,-7.0898,-7.0898,-7.0898,-7.0898,-7.1245,-7.1822,-7.2091,-7.2899,-7.3937,-7.4207,-7.4861,-7.5553,-6.2139,-6.2101,-6.1947,-6.1358,-6.1281,-6.1166,-6.0858,-6.0781,-6.0781,-6.0781,-6.1089,-6.1166,-6.0819,-6.1089,0.0,-6.0819,-6.0781,-6.0781,-6.0781,-6.0781,-6.105,-6.1601,-6.1601,-6.2012,-6.282,-6.3666,0.0,-6.5089,-6.6436,-6.7205,-6.7436,-6.6898,-6.6628,-6.6628,-6.6128,-6.5897,-6.5897,-6.5897,-6.5897,-6.5859,-6.5551,-6.4551,-6.3281,-6.2974,-6.2012,-6.0781,-6.0781,-6.0781,-6.0781,-6.0781,-6.0781,-6.0858,-6.1166,-6.1281,-6.1204,-6.0896,-6.0781,-6.0858,-6.1204,-6.105,-6.0858,-6.1204,-6.105,-6.0781,-6.0781,-6.105,-6.1281,-6.1281,-6.2627,-6.3935,-6.4512,-6.6667,-6.8744,-6.9783,-7.1206,-7.2399,-7.2937,0.0,-7.4361,0.0,0.0,-7.5784,0.0,-7.6207,-7.613,0.0,0.0,0.0,0.0,0.0,-7.7977,-7.8477,-7.8323,-7.7515,-7.6015,-7.513,-7.386,-7.2206,-7.186,-7.1437,-7.0898,-7.0898,-7.0898,-7.0898,-7.0898,-7.0898,-7.0898,-7.0898,-7.1398,-7.2206,-7.2552,-7.3514,-7.4745,-7.5091,-7.5515,-7.6015,-6.2024,-6.2139,-6.2139,0.0,-6.2178,-6.1908,-6.1089,-6.0935,-6.0896,-6.0973,-6.1639,-6.1793,-6.0973,-6.1589,-6.1755,-6.0858,0.0,0.0,-6.0781,-6.0781,-6.0781,-6.0781,-6.0781,-6.1166,-6.1985,-6.2858,-6.4166,-6.5897,-6.6628,-6.6628,-6.5897,-6.5897,-6.5897,-6.5897,-6.5897,-6.5897,-6.5897,-6.5897,-6.5897,-6.582,-6.5013,-6.4128,-6.3243,-6.2474,-6.1589,-6.0819,-6.0858,-6.0896,-6.0896,-6.0935,-6.0973,-6.1127,-6.1947,-6.2178,-6.2024,-6.1127,-6.0896,-6.105,-6.1831,-6.1396,-6.0973,-6.1831,-6.1408,-6.0781,-6.0781,-6.1435,-6.2024,-6.2024,-6.332,-6.4512,-6.4512,-6.6628,-6.8385,-6.8385,-7.0475,-7.2091,-7.2091,-7.286,-7.3707,0.0,0.0,0.0,-7.713,-7.6553,-7.6438,0.0,0.0,0.0,0.0,0.0,-7.8477,-7.8592,-7.9323,-7.8477,-7.5938,-7.5053,-7.3783,-7.2091,-7.136,-7.0975,-7.0898,-7.1014,-7.1052,-7.0975,-7.1052,-7.1091,-7.1091,-7.1091,-7.1591,-7.2437,-7.3283,-7.4091,-7.4899,-7.5707,-7.6053,-7.6092,0.0,0.0,-6.2281,-6.2897,-6.3012,-6.2935,-6.2743,-6.2204,-6.2012,-6.2627,-6.2358,-6.2024,-6.1831,-6.1985,-6.1755,-6.0858,-6.0781,-6.0781,-6.0781,-6.0781,-6.0781,-6.0781,-6.0781,-6.0896,-6.1089,-6.2551,-6.4166,-6.5897,-6.609,-6.609,-6.5897,-6.5897,-6.5897,-6.5897,-6.5897,-6.5897,-6.5897,-6.5897,-6.5897,-6.5859,-6.5667,-6.4666,-6.3281,-6.3089,-6.2089,-6.0896,-6.155,-6.1793,-6.1897,-6.2512,-6.2704,-6.2743,-6.2935,-6.3012,-6.2858,-6.2012,-6.1793,-6.1678,-6.1243,-6.0973,-6.0858,-6.105,-6.0935,-6.0781,-6.0781,-6.0973,-6.1089,-6.1089,-6.2435,-6.3628,-6.3628,-6.6244,-6.8385,-6.8385,-6.9975,-7.1206,-7.1206,-7.1975,-7.2822,0.0,-7.4322,-7.5399,-7.713,-7.7092,-7.7092,0.0,0.0,0.0,-7.7553,-7.7592,-7.8169,-7.9438,-7.9054,-7.7592,-7.5014,-7.4207,-7.2937,-7.1206,-7.1668,-7.1552,-7.0937,-7.2283,-7.2514,-7.1937,-7.2591,-7.2899,-7.2899,-7.2899,-7.336,-7.413,-7.4361,-7.4938,-7.5707,-7.5938,-7.6399,-7.6976,-6.3205,-6.3281,-6.3243,-6.3281,-6.3628,-6.3782,-6.3346,-6.2935,-6.282,-6.3231,-6.3281,-6.3089,-6.2704,-6.3012,-6.2743,-6.1512,-6.1408,-6.1243,-6.0819,-6.1166,-6.1216,-6.0819,-6.0781,-6.0781,-6.0781,-6.2435,-6.4166,-6.5897,-6.5897,-6.5897,-6.5897,-6.5897,-6.5897,-6.5897,-6.5897,-6.5897,-6.5897,-6.5897,-6.5897,-6.5859,-6.5474,-6.4512,-6.3281,-6.2897,-6.1935,-6.0858,-6.1331,-6.1755,-6.2178,-6.2589,-6.3012,-6.3308,-6.3308,-6.3589,-6.3666,-6.2435,-6.2101,-6.1985,-6.1524,-6.1089,-6.0781,-6.0781,-6.1089,-6.1408,-6.1408,-6.1666,-6.1858,-6.1473,-6.2743,-6.3782,-6.3346,-6.5782,-6.7936,-6.8346,-6.9513,-7.0475,-7.086,-7.1321,-7.2091,-7.336,-7.3899,-7.4976,-7.7092,-7.6938,-7.6861,-7.7284,-7.6938,0.0,-7.7284,-7.7284,-7.7707,-7.8631,-7.8207,-7.6746,-7.4168,-7.2937,-7.2052,-7.1514,-7.1975,-7.2168,-7.2129,-7.3091,-7.3245,-7.2822,-7.3283,-7.3514,-7.3514,-7.3514,-7.3976,-7.4707,-7.4707,-7.5245,-7.6053,-7.6438,-7.6899,-7.7361,-6.3666,-6.4282,-6.4589,-6.3974,-6.4474,-6.4743,-6.4012,-6.3666,-6.3538,-6.3666,-6.4205,-6.432,-6.3589,-6.4166,-6.3974,-6.2409,-6.2409,-6.2012,-6.0858,-6.1473,-6.1562,-6.0819,-6.0935,-6.1012,-6.1012,-6.2627,-6.4282,-6.5897,-6.5897,-6.5897,-6.5897,-6.5897,-6.5897,-6.5897,-6.5897,-6.5897,-6.5897,-6.5897,-6.5897,-6.582,-6.5089,-6.4282,-6.3435,-6.2743,-6.1935,-6.1204,-6.132,-6.1858,-6.2524,-6.2639,-6.3128,-6.3666,-6.3538,-6.4089,-6.4436,-6.2639,-6.2293,-6.2409,-6.2178,-6.1562,-6.1012,-6.1012,-6.155,-6.2101,-6.2101,-6.2627,-6.2974,-6.2397,-6.3397,-6.4205,-6.3628,-6.5474,-6.7398,-6.8282,-6.9013,-6.9821,-7.0783,0.0,-7.1398,-7.3283,-7.3514,-7.4514,-7.7053,-7.663,-7.6515,-7.7246,-7.6592,-7.6399,-7.6861,-7.7015,-7.6976,-7.6746,-7.6976,-7.5861,-7.3322,-7.1822,-7.1475,-7.2206,-7.2437,-7.2899,-7.3514,-7.3783,-7.3822,-7.3707,-7.3822,-7.3899,-7.3899,-7.3899,-7.4361,-7.5091,-7.5091,-7.563,-7.6476,-7.7207,-7.7553,-7.7784,-6.5359,-6.559,-6.5859,-6.6397,-6.6628,-6.6667,-6.6513,-6.532,-6.4666,-6.5397,-6.4974,-6.4551,-6.4397,-6.4512,-6.4205,-6.3205,-6.3782,-6.3243,-6.0935,-6.0935,-6.0935,-6.0819,-6.1524,-6.1908,-6.1908,-6.3551,-6.4897,-6.5897,-6.5897,-6.5897,-6.5897,-6.5897,-6.5897,-6.5897,-6.5897,-6.5897,-6.5897,-6.5897,-6.5897,-6.5897,-6.5743,-6.5166,-6.4397,-6.4243,-6.3666,-6.3012,-6.3743,-6.4089,-6.432,-6.5051,-6.5397,-6.5359,-6.4628,-6.5013,-6.5205,-6.2832,-6.3089,-6.3897,-6.2486,-6.1985,-6.1908,-6.1908,-6.1985,-6.2101,-6.2101,-6.2216,-6.2435,-6.3012,-6.332,-6.3705,-6.4282,-6.5897,-6.7398,-6.8282,-6.85,-6.9129,-7.0667,0.0,-7.0783,-7.3206,-7.3514,-7.4514,-7.7053,-7.7169,-7.713,-7.7284,-7.7169,-7.6515,-7.5168,-7.5784,-7.5553,-7.413,-7.5476,-7.4976,-7.2437,-7.2129,-7.2052,-7.2206,-7.363,-7.4053,-7.3553,-7.4976,-7.5207,-7.4553,-7.5284,-7.563,-7.563,-7.563,-7.613,-7.6899,-7.6899,-7.74,-7.813,-7.8246,-7.8784,-7.9438,-6.7167,-6.7244,-6.7359,-6.7744,-6.7782,-6.7628,-6.7167,-6.6436,-6.5936,-6.5897,-6.5551,-6.5282,-6.5282,-6.5282,-6.4936,-6.4089,-6.4359,-6.3897,-6.2243,-6.2166,-6.1935,-6.1524,-6.1908,-6.2524,-6.3435,-6.4205,-6.5013,-6.5897,-6.5897,-6.5897,-6.5897,-6.5897,-6.5897,-6.5897,-6.5897,-6.5897,-6.5897,-6.5897,-6.5897,-6.5897,-6.5897,-6.5397,-6.4589,-6.4589,-6.4051,-6.3346,-6.3782,-6.4205,-6.4666,-6.5051,-6.5513,-6.5667,-6.432,-6.482,-6.5397,-6.287,-6.2639,-6.3166,-6.282,-6.2743,-6.2743,-6.2743,-6.3089,-6.3435,-6.3435,-6.3435,-6.3551,-6.3935,-6.4012,-6.4128,-6.4551,-6.5974,-6.7244,-6.7628,-6.809,0.0,-6.9436,-6.9629,-7.0321,-7.1898,-7.2514,-7.3437,-7.5091,-7.5668,-7.5707,-7.5284,-7.6092,-7.6053,-7.4784,-7.5091,-7.4938,-7.4168,-7.4014,-7.3399,-7.2206,-7.2206,-7.2437,-7.2899,-7.413,-7.4745,-7.4861,-7.5668,-7.5784,-7.5438,-7.5822,-7.6284,-7.6707,-7.6707,-7.7169,-7.7938,-7.7938,-7.8169,-7.8554,-7.9015,-7.9438,-7.9862,-6.8385,-6.8538,-6.8706,-6.8706,-6.8706,-6.8475,-6.7821,-6.7513,-6.7167,-6.6551,-6.6474,-6.6474,-6.6474,-6.6474,-6.6128,-6.5243,-6.5166,-6.482,-6.3974,-6.3705,-6.3243,-6.2397,-6.2551,-6.3358,-6.4859,-6.4897,-6.5243,-6.5897,-6.5897,-6.5897,-6.5897,-6.5897,-6.5897,-6.5897,-6.5897,-6.5897,-6.5897,-6.5897,-6.5897,-6.5897,-6.5897,-6.5397,-6.4628,-6.482,-6.4359,-6.3628,-6.382,-6.432,-6.4897,-6.4897,-6.5359,-6.5628,-6.4089,-6.4666,-6.5436,-6.3051,-6.2512,-6.282,-6.3435,-6.3589,-6.3589,-6.3589,-6.4128,-6.4589,-6.4589,-6.4589,-6.4666,-6.4859,-6.4743,-6.4705,-6.5128,-6.6244,-6.7244,-6.7628,0.0,-6.8552,-6.8936,-6.9398,-7.0052,-7.1091,-7.1783,-7.2552,-7.3437,-7.4245,-7.4361,-7.3553,-7.4861,-7.5245,-7.4168,-7.4322,-7.4322,-7.413,-7.286,-7.2206,-7.2206,-7.2399,-7.2937,-7.3783,-7.463,-7.5361,-7.6015,-7.6015,-7.6015,-7.6015,-7.6015,-7.6361,-7.7015,-7.7207,-7.7746,-7.853,-7.8707,-7.8938,-7.9169,-7.9862,-8.0092,-8.0208,-6.8385,-6.9052,-6.959,-6.959,-6.959,-6.959,-6.9513,-6.8821,-6.8282,-6.8244,-6.8244,-6.8244,-6.8244,-6.8244,-6.7859,-6.6974,-6.6898,-6.6551,-6.5743,-6.4936,-6.4128,-6.3243,-6.3974,-6.4859,-6.5782,-6.5782,-6.582,-6.5897,-6.5897,-6.5897,-6.5897,-6.5897,-6.5897,-6.5897,-6.5897,-6.5897,-6.5897,-6.5897,-6.5897,-6.5897,-6.5897,-6.5397,-6.4705,-6.5513,-6.5243,-6.4628,-6.5436,-6.5743,-6.5782,-6.5782,-6.5859,-6.5743,-6.4782,-6.5166,-6.5551,-6.3743,-6.3782,-6.4436,-6.4474,-6.4512,-6.4512,-6.4512,-6.4551,-6.4589,-6.4589,-6.4589,-6.482,-6.5628,-6.5166,-6.5089,-6.6628,-6.7013,-6.7628,-6.9244,0.0,0.0,-7.0514,-7.0129,-7.0283,-7.1898,-7.2168,-7.2552,-7.3437,-7.4245,-7.4361,-7.3553,-7.4322,-7.4091,-7.2476,-7.3168,-7.3206,-7.2399,-7.2245,-7.2206,-7.2206,-7.3014,-7.3822,-7.463,-7.5476,-7.5938,-7.6015,-7.6015,-7.6015,-7.6015,-7.6015,-7.6053,-7.6169,-7.6976,-7.7746,-7.8592,-7.94,-8.0208,-8.09,-8.0977,-8.1016,-8.1016,-7.0052,-7.0667,-7.1091,-7.0552,-7.0437,-7.0283,-6.9783,-6.9436,-6.9013,-6.8475,-6.8385,-6.8385,-6.8385,-6.8385,-6.8282,-6.7936,-6.7898,-6.7782,-6.7475,-6.7128,-6.609,-6.4205,-6.4436,-6.5013,-6.5859,-6.5897,-6.5897,-6.5897,-6.5897,-6.5897,-6.5897,-6.5897,-6.5897,-6.5897,-6.5897,-6.5897,-6.5897,-6.5897,-6.5897,-6.5897,-6.5897,-6.5705,-6.5436,-6.5782,-6.5705,-6.5436,-6.5782,-6.6205,-6.6551,-6.6051,-6.6244,-6.6397,-6.5013,-6.5205,-6.5859,-6.5705,-6.5897,-6.6167,-6.6167,-6.5782,-6.5397,-6.5397,-6.5397,-6.5397,-6.5397,-6.5397,-6.5513,-6.582,-6.5628,-6.559,-6.6244,-6.6744,-6.7321,-6.7975,0.0,-6.8615,-6.9283,-6.9552,-6.9937,-7.0552,-7.1091,-7.1514,-7.186,-7.2668,-7.2783,-7.1937,-7.3168,-7.3437,-7.2245,-7.2514,-7.2283,-7.1398,-7.1398,-7.1629,-7.2168,-7.3053,-7.3899,-7.4707,-7.5592,-7.6015,-7.6015,-7.6015,-7.6015,-7.6015,-7.6553,-7.6823,-7.6899,-7.8284,-7.9015,-7.94,-8.0285,-8.0823,-8.1093,-8.1093,-8.1093,-8.1093,-7.1052,-7.1591,-7.1937,-7.1052,-7.0898,-7.0706,-7.0167,-7.009,-6.986,-6.9283,-6.9206,-6.9206,-6.9206,-6.9206,-6.909,-6.8821,-6.8821,-6.8706,-6.8436,-6.8385,-6.7513,-6.5474,-6.5128,-6.5282,-6.5897,-6.6128,-6.6128,-6.5897,-6.6128,-6.6128,-6.5897,-6.5897,-6.5897,-6.5897,-6.5897,-6.5897,-6.5897,-6.5897,-6.5897,-6.5897,-6.5897,-6.5743,-6.5513,-6.5782,-6.5897,-6.5936,-6.6205,-6.6821,-6.7436,-6.6859,-6.7051,-6.7321,-6.6167,-6.6205,-6.6782,-6.7359,-6.7513,-6.7513,-6.7513,-6.6898,-6.6205,-6.5974,-6.609,-6.6282,-6.6282,-6.6282,-6.6282,-6.6282,-6.609,-6.5974,-6.6244,-6.6936,-6.759,-6.7859,-6.8629,-6.9206,-6.9206,-6.9706,-7.009,-7.009,-7.0552,-7.0898,-7.0898,-7.1668,-7.1937,-7.136,-7.2437,-7.2706,-7.1822,-7.1783,-7.1514,-7.0937,-7.1168,-7.1745,-7.2591,-7.3206,-7.4053,-7.513,-7.5707,-7.6015,-7.6015,-7.6015,-7.613,-7.6438,-7.7053,-7.7438,-7.7784,-7.9208,-7.9823,-7.99,-8.0746,-8.1093,-8.1093,-8.1093,-8.1093,-8.1093,-7.1091,-7.1629,-7.1937,-7.1052,-7.0937,-7.0937,-7.0937,-7.0937,-7.0937,-7.0898,-7.0898,-7.0898,-7.0898,-7.0898,-7.0591,-6.9783,-6.9706,-6.936,-6.8475,-6.8398,-6.8013,-6.7167,-6.6359,-6.5897,-6.5897,-6.6705,-6.6705,-6.5897,-6.6705,-6.6705,-6.5897,-6.5897,-6.5897,-6.5897,-6.5897,-6.5897,-6.5897,-6.5897,-6.5897,-6.5897,-6.5897,-6.5397,-6.4705,-6.559,-6.5897,-6.6013,-6.6821,-6.7667,-6.8398,-6.8385,-6.8385,-6.8398,-6.8385,-6.8385,-6.8398,-6.8398,-6.8398,-6.8398,-6.8398,-6.7782,-6.6898,-6.609,-6.6513,-6.709,-6.709,-6.709,-6.709,-6.709,-6.6474,-6.6167,-6.6974,-6.7821,-6.8706,-6.9552,-7.036,-7.0898,-7.0898,-7.0898,-7.0898,-7.0898,-7.0898,-7.0898,-7.0898,-7.1668,-7.2206,-7.2206,-7.2206,-7.1822,-7.0975,-7.0898,-7.0898,-7.0898,-7.1745,-7.2629,-7.3514,-7.3514,-7.4361,-7.6015,-7.6015,-7.6015,-7.6015,-7.6015,-7.6476,-7.7284,-7.7323,-7.7746,-7.8554,-7.9438,-7.9823,-7.99,-8.0746,-8.1093,-8.1093,-8.1093,-8.1093,-8.1093,-7.2899,-7.3399,-7.3707,-7.286,-7.2706,-7.2706,-7.2706,-7.2706,-7.2514,-7.1898,-7.1822,-7.1591,-7.0975,-7.0898,-7.0783,-7.0552,-7.0552,-7.0437,-7.0167,-6.9629,-6.9206,-6.8936,-6.8129,-6.7667,-6.7667,-6.7898,-6.7898,-6.7667,-6.7898,-6.7898,-6.7628,-6.7013,-6.6744,-6.6705,-6.6128,-6.6205,-6.6744,-6.6744,-6.709,-6.7667,-6.7667,-6.7128,-6.6436,-6.7321,-6.7282,-6.6859,-6.7705,-6.859,-6.9206,-6.8629,-6.8821,-6.9206,-6.859,-6.8821,-6.9321,-6.9321,-6.9321,-6.9321,-6.9321,-6.8667,-6.7821,-6.6936,-6.6898,-6.6936,-6.6397,-6.7167,-6.7859,-6.7244,-6.7398,-6.7744,-6.7975,-6.8244,-6.8706,-6.9552,-6.9898,-7.0244,-7.0821,-7.0898,-7.0898,-7.0898,-7.0898,-7.0898,-7.0898,-7.1668,-7.2206,-7.2206,-7.2206,-7.2091,-7.1822,-7.1245,-7.1168,-7.1783,-7.2052,-7.2899,-7.4322,-7.4361,-7.4899,-7.6015,-7.6015,-7.6015,-7.6015,-7.663,-7.7053,-7.7361,-7.8554,-7.8823,-7.8631,-8.0092,-8.0362,-7.99,-8.0746,-8.1093,-8.1093,-8.1093,-8.1093,-8.1093,-7.3654,-7.4168,-7.4437,-7.363,-7.3514,-7.3514,-7.3514,-7.3514,-7.3322,-7.2783,-7.2706,-7.2514,-7.1975,-7.1937,-7.1937,-7.1937,-7.1629,-7.1283,-7.0937,-7.0437,-7.0167,-7.0167,-6.9667,-6.909,-6.8398,-6.8744,-6.8744,-6.8385,-6.8744,-6.8744,-6.8385,-6.7859,-6.7628,-6.759,-6.7128,-6.7167,-6.7628,-6.7628,-6.7936,-6.8385,-6.8385,-6.809,-6.7667,-6.8205,-6.8282,-6.8205,-6.8744,-6.9475,-7.009,-6.959,-6.9744,-7.009,-6.9552,-6.9744,-7.0167,-7.0167,-7.0167,-7.0167,-7.0167,-6.9552,-6.8783,-6.8244,-6.8129,-6.8013,-6.7513,-6.8205,-6.8744,-6.8244,-6.8282,-6.8385,-6.8385,-6.8667,-6.909,-6.9629,-6.9975,-7.036,-7.0821,-7.0898,-7.0898,-7.0898,-7.0898,-7.0898,-7.0898,-7.136,-7.1822,-7.2168,-7.2514,-7.2552,-7.2206,-7.136,-7.1283,-7.2168,-7.2514,-7.336,-7.4707,-7.5053,-7.5476,-7.6015,-7.6015,-7.6169,-7.6515,-7.7053,-7.7669,-7.8361,-7.9361,-7.9708,-7.9592,-8.0669,-8.0785,-8.0362,-8.09,-8.1093,-8.1093,-8.1093,-8.1093,-8.1093,-7.386,-7.4322,-7.4591,-7.386,-7.3745,-7.3745,-7.3745,-7.3745,-7.3707,-7.363,-7.363,-7.3591,-7.3514,-7.3514,-7.3514,-7.3514,-7.2783,-7.1975,-7.1168,-7.1129,-7.1129,-7.1129,-7.1129,-7.0437,-6.8885,-6.9552,-6.9513,-6.8615,-6.9513,-6.9475,-6.8615,-6.8552,-6.8513,-6.85,-6.8423,-6.8423,-6.8513,-6.8513,-6.8552,-6.8615,-6.8615,-6.859,-6.8552,-6.8667,-6.9167,-6.9821,-6.9898,-7.0398,-7.1014,-7.0937,-7.0898,-7.0898,-7.0898,-7.0898,-7.0898,-7.0898,-7.0898,-7.0898,-7.0898,-7.036,-6.9821,-6.9821,-6.9821,-6.9783,-6.9629,-6.9706,-6.9783,-6.9706,-6.9129,-6.8615,-6.8615,-6.9283,-6.9821,-6.9821,-7.0437,-7.0898,-7.0898,-7.0898,-7.0898,-7.0898,-7.0898,-7.0898,-7.0898,-7.1052,-7.1514,-7.2476,-7.3206,-7.3245,-7.2476,-7.1591,-7.1514,-7.2399,-7.3206,-7.4014,-7.4822,-7.5668,-7.6092,-7.6015,-7.6092,-7.6515,-7.7323,-7.7438,-7.8361,-7.9823,-7.99,-8.0362,-8.1093,-8.1093,-8.1093,-8.1093,-8.1093,-8.1093,-8.1093,-8.1093,-8.1093,-8.1093,-7.5476,-7.5592,-7.5668,-7.5476,-7.5476,-7.5476,-7.5476,-7.5476,-7.5207,-7.4553,-7.4437,-7.4207,-7.3591,-7.3514,-7.3514,-7.3514,-7.3322,-7.3129,-7.2937,-7.2937,-7.2937,-7.2937,-7.2937,-7.2783,-7.2385,-7.1898,-7.1245,-7.036,-7.1245,-7.1206,-7.036,-6.9706,-6.9436,-6.9398,-6.8706,-6.8783,-6.9436,-6.9436,-6.9783,-7.036,-7.036,-6.9975,-6.9552,-7.086,-7.1052,-7.0744,-7.1398,-7.1783,-7.1822,-7.1129,-7.0898,-7.0898,-7.0898,-7.0898,-7.0898,-7.0898,-7.0898,-7.0898,-7.0898,-7.0783,-7.0629,-7.0629,-7.0629,-7.0283,-6.8975,-6.9706,-7.0475,-6.9821,-7.0052,-7.036,-7.036,-7.0514,-7.0629,-7.0629,-7.0783,-7.0898,-7.0898,-7.0898,-7.0898,-7.0898,-7.0898,-7.0898,-7.0898,-7.2129,-7.3553,-7.5053,-7.4707,-7.4361,-7.4168,-7.3399,-7.3322,-7.413,-7.4361,-7.4861,-7.5707,-7.6592,-7.6669,-7.6015,-7.6669,-7.713,-7.7323,-7.8669,-7.9477,-7.9862,-8.0516,-8.0939,-8.1093,-8.1093,-8.1093,-8.1093,-8.1093,-8.1093,-8.1093,-8.1093,-8.1093,-8.1093,-7.6015,-7.6015,-7.6015,-7.6015,-7.6015,-7.6015,-7.6015,-7.6015,-7.5822,-7.5399,-7.5322,-7.5168,-7.4745,-7.4707,-7.4553,-7.413,-7.4091,-7.3899,-7.3553,-7.3514,-7.3514,-7.3514,-7.3514,-7.3514,-7.3514,-7.3437,-7.2976,-7.2129,-7.2591,-7.2591,-7.2129,-7.1706,-7.1514,-7.1475,-7.1052,-7.086,-7.0898,-7.0898,-7.0898,-7.0937,-7.136,-7.1283,-7.1014,-7.2322,-7.2552,-7.2206,-7.2668,-7.2822,-7.2745,-7.2283,-7.186,-7.1514,-7.1514,-7.1514,-7.1437,-7.1014,-7.1475,-7.2052,-7.1629,-7.1822,-7.2129,-7.2129,-7.2129,-7.1822,-7.0514,-7.0898,-7.1398,-7.0975,-7.1245,-7.1398,-7.0975,-7.0898,-7.0898,-7.0898,-7.0898,-7.0898,-7.0898,-7.0898,-7.0898,-7.0898,-7.0898,-7.1052,-7.1475,-7.3091,-7.4437,-7.5322,-7.4976,-7.4707,-7.4707,-7.3937,-7.386,-7.4668,-7.5091,-7.5745,-7.6592,-7.7438,-7.763,-7.7207,-7.763,-7.8092,-7.8515,-7.94,-8.0015,-8.0439,-8.09,-8.1093,-8.1093,-8.1093,-8.1093,-8.1093,-8.1093,-8.1093,-8.1093,-8.1093,-8.1093,-8.1093,-7.6438,-7.6322,-7.6284,-7.6399,-7.6322,-7.6284,-7.6399,-7.6438,-7.6438,-7.6438,-7.6438,-7.6361,-7.6245,-7.6207,-7.5938,-7.5207,-7.513,-7.4822,-7.3976,-7.4091,-7.4168,-7.4168,-7.4284,-7.4361,-7.4361,-7.5014,-7.4745,-7.3514,-7.363,-7.363,-7.3514,-7.3514,-7.3514,-7.3514,-7.3514,-7.3091,-7.2399,-7.2399,-7.1937,-7.1206,-7.2052,-7.2322,-7.2322,-7.3322,-7.3707,-7.3707,-7.3707,-7.363,-7.3514,-7.3514,-7.3014,-7.2399,-7.2399,-7.2399,-7.2283,-7.1552,-7.236,-7.336,-7.2629,-7.2937,-7.3514,-7.3514,-7.3514,-7.336,-7.2745,-7.2514,-7.2399,-7.2399,-7.2399,-7.2206,-7.1475,-7.1206,-7.1168,-7.1321,-7.1206,-7.1168,-7.1321,-7.1206,-7.1129,-7.1129,-7.1129,-7.1514,-7.2514,-7.3899,-7.4784,-7.4899,-7.4938,-7.4938,-7.4938,-7.4284,-7.4322,-7.513,-7.5861,-7.663,-7.7476,-7.8323,-7.8707,-7.8707,-7.8861,-7.9246,-7.9823,-7.9939,-8.0439,-8.1093,-8.1093,-8.1093,-8.1093,-8.1093,-8.1093,-8.1093,-8.1093,-8.1093,-8.1093,-8.1093,-8.1093,-8.1093,-7.8169,-7.7592,-7.7323,-7.8054,-7.7592,-7.7361,-7.8054,-7.8169,-7.8169,-7.8169,-7.8169,-7.79,-7.7207,-7.713,-7.7092,-7.6938,-7.6938,-7.6592,-7.5707,-7.6361,-7.6784,-7.6784,-7.7438,-7.7823,-7.7823,-7.7938,-7.6515,-7.3514,-7.4207,-7.4168,-7.3514,-7.3514,-7.3514,-7.3514,-7.3514,-7.3437,-7.3322,-7.3322,-7.2822,-7.2091,-7.2976,-7.286,-7.236,-7.3937,-7.4553,-7.4553,-7.4553,-7.4091,-7.3514,-7.3514,-7.3437,-7.3322,-7.3322,-7.3322,-7.3322,-7.3168,-7.3322,-7.3476,-7.336,-7.3399,-7.3514,-7.3514,-7.3514,-7.3668,-7.4245,-7.3822,-7.3322,-7.3322,-7.3322,-7.3283,-7.3168,-7.2514,-7.2283,-7.3053,-7.2514,-7.2283,-7.3053,-7.2514,-7.2014,-7.2014,-7.2014,-7.2629,-7.4207,-7.4591,-7.5014,-7.5784,-7.5822,-7.5822,-7.5822,-7.5707,-7.6053,-7.6899,-7.7053,-7.7515,-7.8323,-7.9208,-7.9631,-7.9631,-8.04,-8.0439,-7.9823,-8.0592,-8.0977,-8.1093,-8.1093,-8.1093,-8.1093,-8.1093,-8.1093,-8.1093,-8.1093,-8.1093,-8.1093,-8.1093,-8.1093,-8.1093,-7.8477,-7.8207,-7.8092,-7.8438,-7.8207,-7.8092,-7.8438,-7.8477,-7.8323,-7.79,-7.8207,-7.8169,-7.74,-7.7707,-7.7977,-7.7977,-7.7977,-7.7823,-7.74,-7.7746,-7.7977,-7.7977,-7.8284,-7.8477,-7.8477,-7.8477,-7.7784,-7.6284,-7.6207,-7.5707,-7.4899,-7.4899,-7.4899,-7.4899,-7.4899,-7.463,-7.4168,-7.4168,-7.3707,-7.3014,-7.3822,-7.3937,-7.3745,-7.4976,-7.5438,-7.5438,-7.5438,-7.5207,-7.4899,-7.4899,-7.4591,-7.4168,-7.4168,-7.4168,-7.4091,-7.363,-7.4168,-7.4784,-7.4322,-7.4553,-7.4899,-7.4899,-7.4899,-7.4976,-7.5361,-7.5168,-7.4745,-7.4284,-7.4168,-7.4053,-7.3591,-7.3206,-7.3053,-7.3437,-7.3168,-7.3053,-7.3437,-7.3168,-7.2937,-7.2937,-7.3322,-7.3899,-7.463,-7.513,-7.5592,-7.5976,-7.6015,-7.6015,-7.6015,-7.6476,-7.6899,-7.7284,-7.8207,-7.8861,-7.9208,-8.0092,-8.0516,-8.0516,-8.0939,-8.09,-8.0554,-8.0939,-8.1093,-8.1093,-8.1093,-8.1093,-8.1093,-8.1093,-8.1093,-8.1093,-8.1093,-8.1093,-8.1093,-8.1093,-8.1093,-8.1093]},{"header":{"parameterUnit":"m.s-1","parameterCategory":1,"la1":30.6,"la2":28.766,"lo1":-90.7593,"lo2":-88.6598,"dy":0.0162,"dx":0.0183,"nx":116,"ny":114,"refTime":"2024-02-27T18:00:00:Z","depth":0,"parameterNumber":3,"parameterNumberName":"V-component_of_WINDS"},"data":[0.0,0.0,0.0,0.0,0.0,0.0,0.0,0.0,0.0,0.0,0.0,0.0,0.0,0.0,0.0,0.0,0.0,0.0,0.0,0.0,0.0,0.0,0.0,0.0,0.0,0.0,0.0,0.0,0.0,0.0,0.0,0.0,0.0,0.0,0.0,0.0,0.0,0.0,0.0,0.0,0.0,0.0,0.0,0.0,0.0,0.0,0.0,0.0,0.0,0.0,0.0,0.0,0.0,0.0,0.0,0.0,0.0,0.0,0.0,0.0,0.0,0.0,0.0,0.0,0.0,0.0,0.0,0.0,0.0,0.0,0.0,0.0,0.0,0.0,0.0,0.0,0.0,0.0,0.0,0.0,0.0,0.0,0.0,0.0,0.0,0.0,0.0,0.0,0.0,0.0,0.0,0.0,0.0,0.0,0.0,0.0,0.0,0.0,0.0,0.0,0.0,0.0,0.0,0.0,0.0,0.0,0.0,0.0,0.0,0.0,0.0,0.0,0.0,0.0,0.0,0.0,0.0,0.0,0.0,0.0,0.0,0.0,0.0,0.0,0.0,0.0,0.0,0.0,0.0,0.0,0.0,0.0,0.0,0.0,0.0,0.0,0.0,0.0,0.0,0.0,0.0,0.0,0.0,0.0,0.0,0.0,0.0,0.0,0.0,0.0,0.0,0.0,0.0,0.0,0.0,0.0,0.0,0.0,0.0,0.0,0.0,0.0,0.0,0.0,0.0,0.0,0.0,0.0,0.0,0.0,0.0,0.0,0.0,0.0,0.0,0.0,0.0,0.0,0.0,0.0,0.0,0.0,0.0,0.0,0.0,0.0,0.0,0.0,0.0,0.0,0.0,0.0,0.0,0.0,0.0,0.0,0.0,0.0,0.0,0.0,0.0,0.0,0.0,0.0,0.0,0.0,0.0,0.0,0.0,0.0,0.0,0.0,0.0,0.0,0.0,0.0,0.0,0.0,0.0,0.0,0.0,0.0,0.0,0.0,0.0,0.0,0.0,0.0,0.0,0.0,0.0,0.0,0.0,0.0,0.0,0.0,0.0,0.0,0.0,0.0,0.0,0.0,0.0,0.0,0.0,0.0,0.0,0.0,0.0,0.0,0.0,0.0,0.0,0.0,0.0,0.0,0.0,0.0,0.0,0.0,0.0,0.0,0.0,0.0,0.0,0.0,0.0,0.0,0.0,0.0,0.0,0.0,0.0,0.0,0.0,0.0,0.0,0.0,0.0,0.0,0.0,0.0,0.0,0.0,0.0,0.0,0.0,0.0,0.0,0.0,0.0,0.0,0.0,0.0,0.0,0.0,0.0,0.0,0.0,0.0,0.0,0.0,0.0,0.0,0.0,0.0,0.0,0.0,0.0,0.0,0.0,0.0,0.0,0.0,0.0,0.0,0.0,0.0,0.0,0.0,0.0,0.0,0.0,0.0,0.0,0.0,0.0,0.0,0.0,0.0,0.0,0.0,0.0,0.0,0.0,0.0,0.0,0.0,0.0,0.0,0.0,0.0,0.0,0.0,0.0,0.0,0.0,0.0,0.0,0.0,0.0,0.0,0.0,0.0,0.0,0.0,0.0,0.0,0.0,0.0,0.0,0.0,0.0,0.0,0.0,0.0,0.0,0.0,0.0,0.0,0.0,0.0,0.0,0.0,0.0,0.0,0.0,0.0,0.0,0.0,0.0,0.0,0.0,0.0,0.0,0.0,0.0,0.0,0.0,0.0,0.0,0.0,0.0,0.0,0.0,0.0,0.0,0.0,0.0,0.0,0.0,0.0,0.0,0.0,0.0,0.0,0.0,0.0,0.0,0.0,0.0,0.0,0.0,0.0,0.0,0.0,0.0,0.0,0.0,0.0,0.0,0.0,0.0,0.0,0.0,0.0,0.0,0.0,0.0,0.0,0.0,0.0,0.0,0.0,0.0,0.0,0.0,0.0,0.0,0.0,0.0,0.0,0.0,0.0,0.0,0.0,0.0,0.0,0.0,0.0,0.0,0.0,0.0,0.0,0.0,0.0,0.0,0.0,0.0,0.0,0.0,0.0,0.0,0.0,0.0,0.0,0.0,0.0,0.0,0.0,0.0,0.0,0.0,0.0,0.0,0.0,0.0,0.0,0.0,0.0,0.0,0.0,0.0,0.0,0.0,0.0,0.0,0.0,0.0,0.0,0.0,0.0,0.0,0.0,0.0,0.0,0.0,0.0,0.0,0.0,0.0,0.0,0.0,0.0,0.0,0.0,0.0,0.0,0.0,0.0,0.0,0.0,0.0,0.0,0.0,0.0,0.0,0.0,0.0,0.0,0.0,0.0,0.0,0.0,0.0,0.0,0.0,0.0,0.0,0.0,0.0,0.0,0.0,0.0,0.0,0.0,0.0,0.0,0.0,0.0,0.0,0.0,0.0,0.0,0.0,0.0,0.0,0.0,0.0,0.0,0.0,0.0,0.0,0.0,0.0,0.0,0.0,0.0,0.0,0.0,0.0,0.0,0.0,0.0,0.0,0.0,0.0,0.0,0.0,0.0,0.0,0.0,0.0,0.0,0.0,0.0,0.0,0.0,0.0,0.0,0.0,0.0,0.0,0.0,0.0,0.0,0.0,0.0,0.0,0.0,0.0,0.0,0.0,0.0,0.0,0.0,0.0,0.0,0.0,0.0,0.0,0.0,0.0,0.0,0.0,0.0,0.0,0.0,0.0,0.0,0.0,0.0,0.0,0.0,0.0,0.0,0.0,0.0,0.0,0.0,0.0,0.0,0.0,0.0,0.0,0.0,0.0,0.0,0.0,0.0,0.0,0.0,0.0,0.0,0.0,0.0,0.0,0.0,0.0,0.0,0.0,0.0,0.0,0.0,0.0,0.0,0.0,0.0,0.0,0.0,0.0,0.0,0.0,0.0,0.0,0.0,0.0,0.0,0.0,0.0,0.0,0.0,0.0,0.0,0.0,0.0,0.0,0.0,0.0,0.0,0.0,0.0,0.0,0.0,0.0,0.0,0.0,0.0,0.0,0.0,0.0,0.0,0.0,0.0,0.0,0.0,0.0,0.0,0.0,0.0,0.0,0.0,0.0,0.0,0.0,0.0,0.0,0.0,0.0,0.0,0.0,0.0,0.0,0.0,0.0,0.0,0.0,0.0,0.0,0.0,0.0,0.0,0.0,0.0,0.0,0.0,0.0,0.0,0.0,0.0,0.0,0.0,0.0,0.0,0.0,0.0,0.0,0.0,0.0,0.0,0.0,0.0,0.0,0.0,0.0,0.0,0.0,0.0,0.0,0.0,0.0,0.0,0.0,0.0,0.0,0.0,0.0,0.0,0.0,0.0,0.0,0.0,0.0,0.0,0.0,0.0,0.0,0.0,0.0,0.0,0.0,0.0,0.0,0.0,0.0,0.0,0.0,0.0,0.0,0.0,0.0,0.0,0.0,0.0,0.0,0.0,0.0,0.0,0.0,0.0,0.0,0.0,0.0,0.0,0.0,0.0,0.0,0.0,0.0,0.0,0.0,0.0,0.0,0.0,0.0,0.0,0.0,0.0,0.0,0.0,0.0,0.0,0.0,0.0,0.0,0.0,0.0,0.0,0.0,0.0,0.0,0.0,0.0,0.0,0.0,0.0,0.0,0.0,0.0,0.0,0.0,0.0,0.0,0.0,0.0,0.0,0.0,0.0,0.0,0.0,0.0,0.0,0.0,0.0,0.0,0.0,0.0,0.0,0.0,0.0,0.0,0.0,0.0,0.0,0.0,0.0,0.0,0.0,0.0,0.0,0.0,0.0,0.0,0.0,0.0,0.0,0.0,0.0,0.0,0.0,0.0,0.0,0.0,0.0,0.0,0.0,0.0,0.0,0.0,0.0,0.0,0.0,0.0,0.0,0.0,0.0,0.0,0.0,0.0,0.0,0.0,0.0,0.0,0.0,0.0,0.0,0.0,0.0,0.0,0.0,0.0,0.0,0.0,0.0,0.0,0.0,0.0,0.0,0.0,0.0,0.0,0.0,0.0,0.0,0.0,0.0,0.0,0.0,0.0,0.0,0.0,0.0,0.0,0.0,0.0,0.0,0.0,0.0,0.0,0.0,0.0,0.0,0.0,0.0,0.0,0.0,0.0,0.0,0.0,0.0,0.0,0.0,0.0,0.0,0.0,0.0,0.0,0.0,0.0,0.0,0.0,0.0,0.0,0.0,0.0,0.0,0.0,0.0,0.0,0.0,0.0,0.0,0.0,0.0,0.0,0.0,0.0,0.0,0.0,0.0,0.0,0.0,0.0,0.0,0.0,0.0,0.0,0.0,0.0,0.0,0.0,0.0,0.0,0.0,0.0,0.0,0.0,0.0,0.0,0.0,0.0,0.0,0.0,0.0,0.0,0.0,0.0,0.0,0.0,0.0,0.0,0.0,0.0,0.0,0.0,0.0,0.0,0.0,0.0,0.0,0.0,0.0,0.0,0.0,0.0,0.0,0.0,0.0,0.0,0.0,0.0,0.0,0.0,0.0,0.0,0.0,0.0,0.0,0.0,0.0,0.0,0.0,0.0,0.0,0.0,0.0,0.0,0.0,0.0,0.0,0.0,0.0,0.0,0.0,0.0,0.0,0.0,0.0,0.0,0.0,0.0,0.0,0.0,0.0,0.0,0.0,0.0,0.0,0.0,0.0,0.0,0.0,0.0,0.0,0.0,0.0,0.0,0.0,0.0,0.0,0.0,0.0,0.0,0.0,0.0,0.0,0.0,0.0,0.0,0.0,0.0,0.0,0.0,0.0,0.0,0.0,0.0,0.0,0.0,0.0,0.0,0.0,0.0,0.0,0.0,0.0,0.0,0.0,0.0,0.0,0.0,0.0,0.0,0.0,0.0,0.0,0.0,0.0,0.0,0.0,0.0,0.0,0.0,0.0,0.0,0.0,0.0,0.0,0.0,0.0,0.0,0.0,0.0,0.0,0.0,0.0,0.0,0.0,0.0,0.0,0.0,0.0,0.0,0.0,0.0,0.0,0.0,0.0,0.0,0.0,0.0,0.0,0.0,0.0,0.0,0.0,0.0,0.0,0.0,0.0,0.0,0.0,0.0,0.0,0.0,0.0,0.0,0.0,0.0,0.0,0.0,0.0,0.0,0.0,0.0,0.0,0.0,0.0,0.0,0.0,0.0,0.0,0.0,0.0,0.0,0.0,0.0,0.0,0.0,0.0,0.0,0.0,0.0,0.0,0.0,0.0,0.0,0.0,0.0,0.0,0.0,0.0,0.0,0.0,0.0,0.0,0.0,0.0,0.0,0.0,0.0,0.0,0.0,0.0,0.0,0.0,0.0,0.0,0.0,0.0,0.0,0.0,0.0,0.0,0.0,0.0,0.0,0.0,0.0,0.0,0.0,0.0,0.0,0.0,0.0,0.0,0.0,0.0,0.0,0.0,0.0,0.0,0.0,0.0,0.0,0.0,0.0,0.0,0.0,0.0,0.0,0.0,0.0,0.0,0.0,0.0,0.0,0.0,0.0,0.0,0.0,0.0,0.0,0.0,0.0,0.0,0.0,0.0,0.0,0.0,0.0,0.0,0.0,0.0,0.0,0.0,0.0,0.0,0.0,0.0,0.0,0.0,0.0,0.0,0.0,0.0,0.0,0.0,0.0,0.0,0.0,0.0,0.0,0.0,0.0,0.0,0.0,0.0,0.0,0.0,0.0,0.0,0.0,0.0,0.0,0.0,0.0,0.0,0.0,0.0,0.0,0.0,0.0,0.0,0.0,0.0,0.0,0.0,0.0,0.0,0.0,0.0,0.0,0.0,0.0,0.0,0.0,0.0,0.0,0.0,0.0,0.0,0.0,0.0,0.0,0.0,0.0,0.0,0.0,0.0,0.0,0.0,0.0,0.0,0.0,0.0,0.0,0.0,0.0,0.0,0.0,0.0,0.0,0.0,0.0,0.0,0.0,0.0,0.0,0.0,0.0,0.0,0.0,0.0,0.0,0.0,0.0,0.0,0.0,0.0,0.0,0.0,0.0,0.0,0.0,0.0,0.0,0.0,0.0,0.0,0.0,0.0,0.0,0.0,0.0,0.0,0.0,0.0,0.0,0.0,0.0,0.0,0.0,0.0,0.0,0.0,0.0,0.0,0.0,0.0,-2.5861,-2.7348,0.0,0.0,0.0,0.0,0.0,0.0,0.0,0.0,0.0,0.0,0.0,0.0,0.0,0.0,0.0,0.0,0.0,0.0,0.0,0.0,0.0,0.0,0.0,0.0,0.0,0.0,-2.7004,-2.6386,-2.6386,-2.6386,-2.6386,-2.6386,-2.8009,-2.8377,-2.7302,-2.7892,-2.7791,-2.6758,-2.5283,-2.3883,-2.2573,-2.191,-2.2276,-2.3489,0.0,0.0,0.0,0.0,0.0,0.0,0.0,0.0,0.0,0.0,0.0,0.0,0.0,0.0,0.0,0.0,0.0,0.0,0.0,0.0,0.0,0.0,0.0,0.0,0.0,0.0,0.0,0.0,0.0,0.0,0.0,0.0,0.0,0.0,0.0,0.0,0.0,0.0,0.0,0.0,0.0,0.0,0.0,0.0,0.0,0.0,0.0,0.0,0.0,0.0,0.0,0.0,0.0,0.0,0.0,0.0,0.0,0.0,0.0,0.0,0.0,0.0,0.0,0.0,0.0,0.0,0.0,0.0,0.0,0.0,-2.4458,-2.5312,0.0,0.0,0.0,0.0,0.0,0.0,0.0,0.0,0.0,0.0,0.0,0.0,0.0,0.0,0.0,0.0,0.0,0.0,0.0,0.0,0.0,0.0,0.0,-3.2201,-3.0438,-2.6702,-2.6346,-2.6333,-2.6386,-2.6346,-2.6333,-2.6386,-2.7438,-2.7378,-2.5956,-2.7003,-2.6819,-2.5358,-2.4332,-2.2481,-1.9742,-1.829,-1.8445,-2.0074,0.0,0.0,0.0,0.0,0.0,0.0,0.0,0.0,0.0,0.0,0.0,0.0,0.0,0.0,0.0,0.0,0.0,0.0,0.0,0.0,0.0,0.0,0.0,0.0,0.0,0.0,0.0,0.0,0.0,0.0,0.0,0.0,0.0,0.0,0.0,0.0,0.0,0.0,0.0,0.0,0.0,0.0,0.0,0.0,0.0,0.0,0.0,0.0,0.0,0.0,0.0,0.0,0.0,0.0,0.0,0.0,0.0,0.0,0.0,0.0,0.0,0.0,0.0,0.0,-2.2609,-2.3422,-2.3704,-2.1431,-2.0952,-2.1906,-2.2671,-2.2704,-2.2301,-2.2917,0.0,0.0,0.0,0.0,0.0,0.0,0.0,0.0,0.0,0.0,0.0,0.0,0.0,0.0,0.0,0.0,0.0,0.0,0.0,0.0,0.0,-3.09,-2.8905,-2.6623,-2.6159,-2.6119,-2.6373,-2.6159,-2.6132,-2.6373,-2.6542,-2.6364,-2.5585,-2.6053,-2.5783,-2.4756,-2.2281,-1.914,-1.5417,-1.4927,-1.4999,-1.5586,-1.81,0.0,0.0,0.0,0.0,0.0,0.0,0.0,0.0,0.0,0.0,0.0,0.0,0.0,0.0,0.0,0.0,0.0,0.0,0.0,0.0,0.0,0.0,0.0,0.0,0.0,0.0,0.0,0.0,0.0,0.0,0.0,0.0,0.0,0.0,0.0,0.0,0.0,0.0,0.0,0.0,0.0,0.0,0.0,-2.3297,-2.2891,0.0,0.0,0.0,0.0,0.0,0.0,0.0,0.0,0.0,0.0,0.0,0.0,0.0,-1.8201,-1.9509,-2.2318,-2.3388,-2.2751,-2.1216,-2.127,-2.2826,-2.0623,-1.855,-1.6868,-1.8825,0.0,-1.9829,-2.1669,0.0,0.0,0.0,0.0,0.0,0.0,0.0,0.0,0.0,0.0,0.0,0.0,0.0,0.0,0.0,0.0,0.0,0.0,0.0,0.0,0.0,-3.0403,-2.8147,-2.6047,-2.5785,-2.5758,-2.5892,-2.6092,-2.6253,-2.6386,-2.6239,-2.6106,-2.6012,-2.5651,-2.5037,-2.4155,-2.1768,-1.9594,-1.7658,-1.5298,-1.4271,-1.435,-1.4525,-1.65,-1.9659,-2.0764,0.0,0.0,0.0,0.0,0.0,0.0,0.0,0.0,0.0,0.0,0.0,0.0,0.0,0.0,0.0,0.0,0.0,0.0,0.0,0.0,0.0,0.0,0.0,0.0,0.0,0.0,0.0,0.0,0.0,0.0,0.0,0.0,0.0,0.0,0.0,0.0,0.0,0.0,0.0,-2.4327,-2.2496,-2.2039,-2.0602,-1.9549,0.0,0.0,0.0,0.0,0.0,0.0,0.0,0.0,0.0,-1.4676,-1.4901,-1.5428,-1.6254,-1.9624,-2.0611,-1.9223,-2.0628,-2.1559,-2.2086,-1.8747,-1.7285,-1.7262,-1.5863,-1.5259,-1.5496,-1.7587,-1.9301,-2.0704,0.0,0.0,0.0,0.0,-2.4096,-2.473,0.0,0.0,0.0,0.0,0.0,0.0,0.0,0.0,0.0,0.0,0.0,0.0,-3.2451,-2.9438,-2.6983,-2.5429,-2.5224,-2.5237,-2.5398,-2.5745,-2.6039,-2.6266,-2.6079,-2.6052,-2.6279,-2.5344,-2.4269,-2.3028,-2.1371,-2.011,-1.9286,-1.638,-1.498,-1.4911,-1.2998,-1.3986,-1.7196,-1.8481,-1.96,0.0,0.0,0.0,0.0,0.0,0.0,0.0,0.0,0.0,0.0,0.0,0.0,0.0,0.0,0.0,0.0,0.0,0.0,0.0,0.0,0.0,0.0,0.0,0.0,0.0,0.0,0.0,0.0,0.0,0.0,0.0,0.0,0.0,0.0,0.0,0.0,0.0,0.0,-2.3786,-2.1425,-2.0929,-1.8922,-1.7427,0.0,0.0,0.0,0.0,0.0,0.0,-1.3112,-1.3152,-1.3227,-1.3342,-1.3376,-1.3624,-1.4077,-1.7727,-1.8866,-1.7658,-2.0723,-2.2259,-2.2316,-1.8501,-1.7396,-1.816,-1.4993,-1.3006,-1.2285,-1.453,-1.6415,-1.7941,-1.8914,-2.0266,-2.1612,-2.2068,-2.2968,-2.3941,0.0,0.0,0.0,0.0,0.0,0.0,0.0,0.0,0.0,0.0,0.0,-3.2234,-3.1736,-2.7571,-2.475,-2.4676,-2.4422,-2.4502,-2.5064,-2.4863,-2.5104,-2.5945,-2.6037,-2.6037,-2.605,-2.4836,-2.3194,-2.103,-2.0462,-1.9158,-1.7318,-1.7168,-1.7027,-1.6947,-1.4928,-1.3976,-1.3764,-1.4449,-1.5718,-1.7451,0.0,0.0,0.0,0.0,0.0,0.0,0.0,0.0,0.0,0.0,0.0,0.0,0.0,0.0,0.0,0.0,0.0,0.0,0.0,0.0,0.0,0.0,0.0,0.0,0.0,0.0,0.0,0.0,0.0,0.0,0.0,0.0,0.0,0.0,0.0,0.0,0.0,0.0,0.0,-1.8393,-1.5201,0.0,0.0,0.0,0.0,-1.3203,-1.3043,-1.2963,-1.2969,-1.3098,-1.3173,-1.3186,-1.3322,-1.422,-1.6071,-1.8366,-2.0216,-2.149,-2.1708,-2.2593,-2.4017,-2.1414,-1.9343,-1.7694,-1.7187,-1.491,-1.1832,-1.4316,-1.5317,-1.568,-1.9319,-2.085,-2.1114,-2.2685,-2.331,-2.3327,0.0,0.0,0.0,0.0,0.0,0.0,0.0,0.0,-4.0469,-4.0312,-3.5771,-3.2484,-3.2351,-2.7703,-2.4636,-2.4636,-2.4369,-2.4369,-2.477,-2.4877,-2.5237,-2.601,-2.6037,-2.5692,-2.5117,-2.4142,-2.3122,-2.2179,-2.1795,-2.1351,-2.0825,-1.9634,-1.8919,-1.8694,-1.6737,-1.5718,-1.5404,-1.4464,-1.4596,-1.5737,-1.9152,-2.0828,0.0,0.0,0.0,0.0,0.0,0.0,0.0,0.0,0.0,0.0,0.0,0.0,0.0,0.0,0.0,0.0,0.0,0.0,0.0,0.0,0.0,0.0,0.0,0.0,0.0,0.0,0.0,0.0,0.0,0.0,0.0,0.0,0.0,0.0,0.0,0.0,0.0,-1.661,-1.4191,0.0,-1.2318,-1.2698,-1.2922,-1.282,-1.2901,-1.3003,-1.3091,-1.3057,-1.3078,-1.3166,-1.4408,-1.5249,-1.5777,-1.9064,-2.0827,-2.1005,-2.2188,-2.284,-2.2908,-1.9692,-1.7774,-1.6865,-1.438,-1.3253,-1.306,-1.3937,-1.3697,-1.2832,-1.4244,-1.5502,-1.6698,-1.8353,-1.9767,-2.0921,0.0,0.0,0.0,0.0,0.0,0.0,0.0,0.0,-4.0586,-4.0137,-3.5807,-3.2584,-3.2201,-2.7541,-2.4489,-2.4489,-2.4128,-2.4115,-2.4609,-2.4636,-2.5037,-2.5996,-2.5772,-2.5251,-2.4369,-2.3567,-2.302,-2.2712,-2.2418,-2.2418,-2.2712,-2.1457,-2.073,-2.049,-1.8561,-1.7722,-1.7449,-1.4919,-1.4145,-1.4849,-1.8023,-1.9851,-2.0814,0.0,0.0,0.0,0.0,0.0,0.0,0.0,0.0,0.0,0.0,0.0,0.0,0.0,0.0,0.0,0.0,0.0,0.0,0.0,0.0,0.0,0.0,0.0,0.0,0.0,0.0,0.0,0.0,0.0,0.0,0.0,0.0,0.0,0.0,0.0,-1.7813,-1.5662,-1.3844,-1.2651,-1.2461,-1.2759,-1.2935,-1.2881,-1.2976,-1.3071,-1.3166,-1.3085,-1.3346,-1.3975,-1.5201,-1.6338,-1.7301,-1.995,-2.1228,-2.1349,-2.2536,-2.2859,-2.2138,-1.9104,-1.7286,-1.6335,-1.3249,-1.2218,-1.2819,-1.3419,-1.3026,-1.2192,-1.3535,-1.474,-1.5982,-1.7736,-1.9209,-2.0431,0.0,0.0,0.0,0.0,0.0,0.0,0.0,-4.1172,-4.0703,-3.9394,-3.556,-3.2392,-3.1148,-2.6939,-2.4235,-2.4235,-2.3701,-2.3728,-2.4596,-2.4115,-2.4436,-2.5943,-2.5358,-2.4636,-2.3768,-2.3153,-2.2699,-2.2405,-2.2124,-2.2138,-2.2418,-2.2432,-2.2418,-2.2338,-2.0478,-1.9652,-1.9447,-1.5741,-1.4342,-1.4813,-1.6992,-1.8268,-1.9369,0.0,0.0,0.0,0.0,0.0,0.0,0.0,0.0,0.0,0.0,0.0,0.0,0.0,0.0,0.0,0.0,0.0,0.0,0.0,0.0,0.0,0.0,0.0,0.0,0.0,0.0,0.0,0.0,0.0,0.0,0.0,0.0,0.0,-2.1939,-1.9919,-1.7737,-1.5453,-1.3704,-1.2739,-1.2739,-1.2874,-1.3024,-1.3159,-1.318,-1.318,-1.318,-1.3247,-1.3902,-1.536,-1.5568,-1.7283,-2.0715,-2.0862,-2.1568,-2.2887,-2.2887,-2.2525,-2.1885,-1.9858,-1.7949,-1.6283,-1.4107,-1.2274,-1.0902,-1.266,-1.3373,-1.3801,-1.7597,-1.9131,-1.9331,-2.1213,-2.1964,-2.1964,0.0,0.0,0.0,0.0,0.0,0.0,0.0,-4.1172,-4.082,-3.9824,-3.5897,-3.28,-3.182,-2.7804,-2.5064,-2.4863,-2.4489,-2.4476,-2.493,-2.4609,-2.4676,-2.5291,-2.4556,0.0,-2.346,-2.2645,-2.2191,-2.2111,-2.2031,-2.2138,-2.2418,-2.2645,-2.2512,-2.2111,-2.1554,-2.1355,-2.1168,-1.897,-1.8417,-1.8875,-1.8052,-1.9071,-2.1314,0.0,0.0,0.0,0.0,0.0,0.0,0.0,0.0,0.0,0.0,0.0,0.0,0.0,0.0,0.0,0.0,0.0,0.0,0.0,0.0,0.0,0.0,0.0,0.0,0.0,0.0,0.0,0.0,0.0,0.0,0.0,-2.4516,-2.3044,-1.9504,-1.8669,-1.7198,-1.3662,-1.3019,-1.2895,-1.2895,-1.303,-1.3132,-1.3166,-1.3275,-1.3336,-1.3336,-1.4569,-1.4725,-1.3512,-1.7455,-1.9158,-1.8091,-2.0931,-2.2219,-2.1976,-2.1976,-2.171,-2.1221,-1.8189,-1.6431,-1.5697,-1.2629,-1.1645,-1.2418,-1.4051,-1.5491,-1.6672,-1.6764,-1.6815,-1.7021,-1.8788,-2.0233,-2.1349,0.0,0.0,0.0,0.0,0.0,0.0,0.0,-4.1172,-4.0742,-3.9512,-3.607,-3.3188,-3.1845,-2.8227,-2.5718,-2.5291,-2.4997,-2.4943,-2.5237,-2.5104,0.0,0.0,0.0,-2.3447,-2.314,-2.2378,-2.2044,-2.2164,-2.2044,-2.2138,-2.2418,-2.2592,-2.2432,-2.1991,-2.2111,-2.2098,-2.1872,-2.0435,-2.0707,-2.2017,-2.0134,-2.0495,-2.2397,-2.558,-2.8159,-3.0197,-3.0569,-3.2492,-3.4482,-3.153,0.0,0.0,0.0,0.0,0.0,0.0,0.0,0.0,0.0,0.0,0.0,0.0,0.0,0.0,0.0,0.0,0.0,0.0,0.0,0.0,0.0,0.0,0.0,0.0,-2.3819,-2.1921,-1.8579,-1.8261,-1.6977,-1.3141,-1.2963,-1.3193,-1.3315,-1.3403,-1.3431,-1.337,-1.3444,-1.3417,-1.3227,-1.5025,-1.5668,-1.481,-1.8832,-2.0517,-1.9484,-2.162,-2.2352,-2.1802,-2.1681,-2.1403,-2.0982,-1.7474,-1.5856,-1.5516,-1.2024,-1.0984,-1.1964,-1.4323,-1.5866,-1.6887,0.0,0.0,0.0,0.0,-2.0259,-2.1109,0.0,0.0,0.0,0.0,0.0,0.0,0.0,-4.1172,-4.0547,-3.8809,-3.6201,-3.3676,-3.1433,-2.8479,-2.6354,-2.5611,-2.5291,-2.5237,-2.5491,0.0,0.0,-2.3527,-2.3407,-2.3233,-2.2926,-2.2405,-2.2245,-2.2472,-2.2205,-2.2218,-2.2472,-2.2472,-2.2311,-2.2044,-2.2298,-2.2298,-2.2058,-2.0965,-2.1953,-2.413,-2.2806,-2.2533,-2.3365,-2.7463,-3.0403,-3.2517,-3.3725,-3.5153,-3.6122,-3.3065,0.0,0.0,0.0,0.0,0.0,0.0,0.0,0.0,0.0,0.0,0.0,0.0,0.0,0.0,0.0,0.0,0.0,0.0,0.0,0.0,0.0,0.0,0.0,0.0,-2.3142,-2.0864,-1.8719,-1.8323,-1.6879,-1.345,-1.3268,-1.3553,-1.3817,-1.3838,-1.3783,-1.3641,-1.3627,-1.352,-1.3405,0.0,0.0,0.0,0.0,-2.1491,-2.2493,-2.2431,-2.2205,-2.1884,-2.163,-2.1363,-2.0982,-1.7474,-1.5856,-1.5516,-1.2001,-1.0385,-1.0503,-1.383,-1.5422,-1.6049,-1.9059,-2.0441,-2.0708,-2.1002,-2.1109,-2.1109,0.0,0.0,0.0,0.0,0.0,0.0,0.0,-4.1172,-4.0547,-3.8809,-3.7294,-3.5023,-3.1548,-2.9563,-2.7802,-2.6034,-2.5598,-2.5451,0.0,0.0,-2.4676,-2.4396,-2.3928,-2.3541,-2.3247,-2.3126,-2.2979,-2.2779,-2.2726,-2.2726,-2.2779,-2.2779,-2.2619,-2.2338,-2.2392,-2.2525,-2.2726,-2.2977,-2.3667,-2.4549,-2.5003,-2.5204,-2.5619,-2.8023,-3.0015,-3.1622,-3.316,-3.4557,-3.522,-3.2482,-3.0313,-2.849,-2.661,0.0,0.0,0.0,0.0,0.0,0.0,0.0,0.0,0.0,0.0,0.0,0.0,0.0,0.0,0.0,0.0,0.0,0.0,0.0,0.0,-2.5117,-2.3055,-2.0815,-1.9125,-1.7677,-1.591,-1.3631,-1.358,-1.3777,-1.3752,-1.3838,-1.3783,-1.3641,-1.3627,-1.4137,-1.5546,-1.7356,-1.8289,-1.805,-2.1378,-2.2173,-1.9922,-2.1355,-2.1804,-2.1283,-2.1229,0.0,-2.0982,-1.7474,-1.5856,-1.5506,-1.1884,-1.0236,-1.0329,-1.3411,-1.6283,-1.8749,-2.0064,-2.0628,-2.0708,-2.1002,-2.1109,-2.1109,0.0,0.0,0.0,0.0,0.0,0.0,0.0,-4.1172,-4.0703,-3.9414,-3.7217,-3.4803,-3.2357,-2.9862,-2.7796,-2.6492,-2.5985,-2.618,0.0,-2.672,-2.6223,-2.5896,-2.5669,-2.4875,-2.3554,-2.3554,-2.3474,-2.3313,-2.3313,-2.3313,-2.3383,-2.3166,-2.2926,-2.2645,-2.2806,-2.2953,-2.314,-2.3888,-2.4543,-2.513,-2.5718,-2.6649,-2.7911,-2.9962,-3.1694,-3.3249,-3.4841,-3.5559,-3.5317,-3.2802,-3.075,-2.8894,-2.6976,-2.5413,-2.4262,0.0,0.0,0.0,0.0,0.0,0.0,0.0,0.0,0.0,0.0,0.0,0.0,0.0,0.0,-2.6293,-2.6012,0.0,-2.5692,-2.5545,-2.2644,-2.0192,-1.9433,-1.6936,-1.47,-1.3705,-1.3817,-1.3987,-1.4061,-1.4068,-1.3973,-1.3749,-1.3736,-1.4361,-1.6027,-1.7952,-1.9106,-1.943,-2.2291,-2.2907,-2.1057,-2.166,-2.1844,-2.155,-2.1243,-2.1109,-2.0982,-1.8372,-1.6626,-1.5559,-1.2788,-1.0999,-1.0218,-1.331,-1.6031,-1.8336,-1.97,-2.0321,-2.0508,-2.0949,-2.1109,-2.0982,0.0,0.0,0.0,0.0,0.0,0.0,0.0,-4.1172,-4.0859,-4.0,-3.7198,-3.4651,-3.3071,-3.0005,-2.773,-2.6867,-2.6727,0.0,0.0,-2.8941,-2.8481,-2.7496,-2.7542,-2.6503,-2.4187,-2.4115,-2.4115,-2.4115,-2.4048,-2.3995,-2.3928,-2.3634,-2.3367,-2.314,-2.338,-2.3594,-2.3794,-2.4569,-2.5237,-2.5785,-2.6479,-2.8089,-3.0299,-3.2293,-3.3799,-3.4994,-3.6674,-3.6472,-3.5005,-3.2842,-3.0735,-2.8818,-2.706,-2.5828,-2.5037,-2.4796,-2.5224,0.0,0.0,0.0,0.0,0.0,0.0,0.0,0.0,0.0,-2.2648,-2.5254,-2.6374,-2.6803,-2.6519,-2.6619,-2.6415,-2.5557,-2.21,-1.9464,-1.9196,-1.6113,-1.3899,-1.3926,-1.4041,-1.4163,-1.4285,-1.4299,-1.417,-1.3865,-1.418,-1.5067,-1.6528,-1.8524,-2.0125,-2.1306,-2.2957,-2.342,-2.2699,-2.2218,-2.1924,-2.1804,-2.1336,-2.1109,-2.1046,-1.896,-1.7171,-1.563,-1.3374,-1.1862,-1.1132,-1.3611,-1.5725,-1.7596,-1.9194,-1.9947,-2.0214,-2.0802,-2.0989,-2.0684,0.0,0.0,0.0,0.0,0.0,0.0,0.0,0.0,-4.0859,-4.0,-3.8223,-3.5957,-3.3193,-3.0932,-2.8841,-2.6988,0.0,0.0,-2.9311,-3.093,-3.0846,-2.8551,-2.8807,-2.7842,-2.5317,-2.5317,-2.5317,-2.5317,-2.5064,-2.4796,-2.4529,-2.4249,-2.4088,-2.4062,-2.4088,-2.4543,-2.5291,-2.5651,-2.6146,-2.6827,-2.8734,-3.0699,-3.2703,-3.4499,-3.4825,-3.4541,-3.6578,-3.5408,-3.2683,-3.1075,-2.9058,-2.6944,-2.5672,-2.5173,-2.5077,-2.5037,0.0,-2.5104,-2.473,-2.3181,-2.1242,-1.95,-1.8525,-1.8842,0.0,0.0,-2.3327,-2.6069,-2.8471,-2.9319,-2.7121,-2.8075,-2.7898,-2.405,-2.1318,-1.9043,-1.7282,-1.5283,-1.4095,-1.4231,-1.4265,-1.4278,-1.4299,-1.4299,-1.417,-1.3865,-1.5616,-1.7299,-1.8563,-2.0723,-2.2361,-2.3437,-2.3696,-2.3233,-2.2098,-2.2017,-2.1724,-2.1203,-2.1136,-2.1109,-2.0982,-1.7667,-1.6097,-1.5659,-1.2107,-1.1987,-1.4295,-1.451,-1.6385,-1.9153,-1.962,-1.9813,-1.992,-2.0508,-2.0561,-2.0117,0.0,0.0,0.0,0.0,0.0,0.0,0.0,0.0,0.0,-3.8704,-3.6646,-3.4484,-3.2046,-3.0042,-2.8551,0.0,0.0,0.0,-3.2,-3.232,-3.208,-3.1217,-3.0145,-2.8458,-2.6104,-2.6026,-2.6026,-2.6026,-2.5905,-2.5692,-2.5398,-2.5104,-2.497,-2.497,-2.497,-2.5358,-2.6039,-2.6333,-2.6707,-2.7311,-2.9443,-3.1479,-3.347,-3.5245,-3.5445,-3.483,-3.5645,-3.4878,0.0,0.0,-2.8511,-2.7643,-2.5896,-2.5451,-2.5558,-2.5384,-2.5451,0.0,-2.3387,-2.0433,-1.7654,0.0,-1.5636,-1.5923,-2.0137,-2.1159,-2.227,-2.5998,-2.893,-3.0049,-2.7527,-2.8925,-2.8933,0.0,-2.1717,-1.9584,-1.7324,-1.6631,-1.5783,-1.4469,-1.5513,-1.577,-1.4476,-1.4299,-1.4696,-1.5639,-1.6544,-1.8211,-2.0778,-2.1823,-2.2751,-2.3736,-2.3768,-2.3354,-2.2498,-2.2151,-2.1857,-2.1617,-2.1269,-2.0589,-1.9546,-1.8052,-1.6229,-1.4171,-1.2441,-1.2353,-1.3512,-1.5287,-1.6797,-1.811,-1.9141,-1.9653,-1.9867,-2.0468,-1.9915,-1.8643,0.0,0.0,0.0,0.0,0.0,0.0,0.0,0.0,0.0,0.0,-3.4999,-3.2389,-3.0475,-2.8994,-2.8221,0.0,0.0,0.0,0.0,-3.3486,-3.3353,-3.2259,-3.0897,0.0,-2.672,-2.6627,-2.6627,-2.6627,-2.6627,-2.648,-2.6186,-2.5972,-2.5879,-2.5879,-2.5879,-2.6199,-2.676,-2.6974,-2.7241,-2.7742,-3.0438,-3.1982,-3.303,-3.5211,-3.5453,-3.4543,-3.4772,-3.3868,0.0,0.0,-2.8054,-2.7745,-2.6248,-2.5905,-2.5999,-2.5625,-2.5148,-2.4214,-2.1437,0.0,0.0,-1.4364,-1.3953,-1.4813,-1.8866,-2.0544,-2.2608,-2.7162,-2.9679,-3.058,-2.8741,-2.9862,-2.9261,-2.3867,-2.18,-1.979,-1.6803,-1.721,-1.6896,-1.4557,-1.6339,-1.7102,-1.5425,-1.5256,-1.581,-1.6993,-1.8229,-1.9933,-2.2202,-2.2853,-2.3367,-2.3808,-2.3768,-2.3394,-2.2632,-2.2191,-2.1911,-2.1737,-2.1309,-2.0195,-1.8448,-1.7474,-1.5371,-1.2467,-1.2615,-1.2878,-1.3348,-1.5904,-1.7267,-1.7806,-1.9031,-1.9613,-1.9794,-1.992,-1.8975,-1.7532,0.0,0.0,0.0,0.0,0.0,0.0,0.0,0.0,0.0,0.0,0.0,0.0,0.0,0.0,0.0,0.0,0.0,0.0,0.0,-3.4604,-3.5018,-3.0208,-3.0635,-2.9775,-2.7323,-2.7241,-2.7241,-2.7241,-2.7241,-2.7094,-2.68,-2.6787,-2.6787,-2.6787,-2.6787,-2.7108,-2.7655,-2.7669,-2.7843,-2.8503,-3.2305,-3.2664,-3.128,-3.4467,-3.4563,-3.3132,-3.4451,0.0,0.0,0.0,-2.7591,-2.6155,-2.6279,-2.6373,0.0,-2.5678,-2.3719,-2.1268,0.0,0.0,-1.49,-1.317,-1.4538,-1.7066,-2.0083,-2.2637,-2.5657,-3.0281,-3.1377,-3.1377,-3.1294,-3.1123,-2.8811,-2.2128,-2.0887,-1.9277,-1.4844,-1.6269,-1.6896,-1.4557,-1.6238,-1.7569,0.0,-1.7676,-1.7524,-1.7163,-2.116,-2.3225,-2.2358,-2.4265,-2.4895,-2.3808,-2.3768,-2.3207,-2.2017,-2.1991,-2.1697,-2.1136,-2.1122,-2.0195,-1.8372,-1.5005,-1.2479,-1.0822,-1.2171,-1.3573,-1.503,-1.6459,-1.7923,-1.9327,-1.9679,-1.9786,-1.9648,-1.8459,-1.7767,-1.7181,0.0,0.0,0.0,0.0,0.0,0.0,0.0,0.0,0.0,0.0,0.0,0.0,0.0,0.0,0.0,0.0,0.0,0.0,0.0,-3.3612,-3.3867,-3.0995,-2.9753,-2.8758,-2.7939,-2.7926,-2.7926,-2.7926,-2.7926,-2.7696,-2.7402,-2.7402,-2.7402,-2.7402,-2.7402,-2.7736,-2.8297,-2.8297,-2.847,-2.9028,-3.2854,-3.3154,-3.1865,-3.5037,-3.4137,-3.1074,0.0,0.0,0.0,0.0,0.0,0.0,-2.6132,-2.5972,0.0,-2.5104,-2.3341,-2.1084,-1.8884,0.0,-1.5159,-1.3382,-1.49,-1.7598,-2.0308,-2.2829,-2.5519,-2.8671,-3.0252,-3.0609,-2.8961,-2.9958,-2.8673,-2.1683,-2.2118,-2.1206,-1.5089,-1.7555,-1.8583,-1.4682,-1.616,0.0,0.0,0.0,0.0,-2.1348,-2.2752,-2.3764,-2.438,-2.4938,-2.4783,-2.3794,-2.3768,-2.3287,-2.2285,-2.2084,-2.179,-2.1403,-1.8852,-1.7345,-1.6625,-1.3128,-1.1183,-1.0685,-1.3193,-1.4495,-1.5075,-1.754,-1.8881,-1.9457,-1.9693,-1.9176,-1.8276,-1.7756,-1.6273,-1.4461,0.0,0.0,0.0,0.0,0.0,0.0,0.0,0.0,0.0,0.0,0.0,0.0,0.0,0.0,0.0,0.0,0.0,0.0,0.0,0.0,-3.2046,-3.0155,-2.8799,-2.8114,-2.8221,-2.8221,-2.8221,-2.8221,-2.8221,-2.8127,-2.7856,-2.7856,-2.7856,-2.7856,-2.7856,-2.807,-2.8444,-2.8444,-2.8617,-2.909,-3.2198,-3.2257,-3.0782,-3.3318,-3.2141,0.0,0.0,0.0,0.0,0.0,0.0,0.0,-2.6052,-2.5678,-2.5264,-2.4783,-2.3253,-2.1245,-1.9039,-1.7325,-1.5847,-1.4761,-1.6518,-1.9128,-2.1768,-2.421,-2.6575,-2.8867,-2.9516,-2.9406,-2.8571,-2.8906,-2.7608,-2.2267,-2.3033,-2.2203,-1.6189,-1.8608,-1.9368,-1.4762,-1.6167,-1.745,0.0,0.0,0.0,-2.3374,-2.4275,-2.4891,-2.5481,-2.513,-2.4569,-2.3794,-2.3554,-2.3073,-2.2271,-2.1977,-2.1683,-2.139,-1.7644,-1.5856,-1.5728,-1.2191,-1.0825,-1.1419,-1.3867,-1.5238,-1.5871,-1.8341,-1.9484,-1.9546,-1.984,-1.9079,-1.7669,-1.7066,-1.5262,-1.3161,0.0,0.0,0.0,0.0,0.0,0.0,0.0,0.0,0.0,0.0,0.0,0.0,0.0,0.0,0.0,0.0,0.0,0.0,0.0,0.0,0.0,-2.7779,-2.7682,-2.7816,-2.8181,-2.8194,-2.8194,-2.8181,-2.8207,-2.8221,-2.8207,-2.8221,-2.8221,-2.8221,-2.8221,-2.8234,-2.8248,-2.8248,-2.835,-2.8762,-3.0654,-3.0093,-2.8379,-2.9639,0.0,0.0,0.0,0.0,0.0,0.0,0.0,0.0,0.0,-2.5558,-2.5064,-2.4783,-2.3442,-2.1567,-1.9429,-1.7765,-1.6706,-1.7067,-1.9063,-2.163,-2.4109,-2.6503,-2.8796,-3.0783,-2.9086,-2.7866,0.0,0.0,-2.5764,-2.3701,-2.354,-2.2245,-1.8042,-1.9457,-1.9275,0.0,0.0,0.0,0.0,0.0,0.0,-2.3272,0.0,-2.6413,-2.5558,-2.4943,-2.4356,-2.3794,-2.318,-2.2579,-2.1991,-2.1748,-2.139,-2.1046,-1.7535,-1.577,-1.557,-1.2044,-1.127,-1.2741,-1.4156,-1.57,-1.7326,-1.8777,-1.9546,-1.9826,-2.0013,-1.9222,-1.7788,-1.6129,-1.4557,-1.3101,0.0,0.0,0.0,0.0,0.0,0.0,0.0,0.0,0.0,0.0,0.0,0.0,0.0,0.0,0.0,0.0,0.0,0.0,0.0,0.0,0.0,0.0,0.0,0.0,0.0,-2.7696,-2.7709,-2.7495,0.0,-2.8114,-2.7816,-2.8043,-2.8221,0.0,-2.8221,-2.827,-2.8484,-2.8484,-2.8657,-2.9044,0.0,-3.0024,-2.8335,0.0,0.0,0.0,0.0,0.0,0.0,0.0,0.0,0.0,0.0,-2.5678,-2.5718,-2.5638,-2.4083,-2.1996,-2.0279,-1.822,-1.6768,-1.7264,-1.9193,-2.163,-2.4109,-2.6503,-2.8268,-2.8304,-2.7595,-2.6894,0.0,0.0,0.0,-2.3407,-2.5211,0.0,-2.0862,-2.071,0.0,-1.7058,0.0,-1.5519,-1.6935,-1.9155,0.0,0.0,-2.5082,-2.5985,-2.5531,-2.4756,-2.4142,-2.3781,-2.318,-2.2579,-2.1991,-2.1483,-2.1189,-2.1046,-1.8632,-1.6855,-1.5633,-1.3167,-1.2199,-1.2564,-1.4089,-1.5664,-1.7197,-1.8965,-1.9733,-1.9721,-1.8914,-1.7575,-1.5836,-1.422,-1.2578,-1.1142,0.0,0.0,0.0,0.0,0.0,0.0,0.0,0.0,0.0,0.0,0.0,0.0,0.0,0.0,0.0,0.0,0.0,0.0,0.0,0.0,0.0,0.0,0.0,0.0,0.0,-2.7549,-2.7615,0.0,0.0,0.0,0.0,-2.8154,-2.8221,-2.8221,-2.8221,-2.8243,-2.8404,0.0,0.0,0.0,0.0,0.0,0.0,0.0,0.0,0.0,0.0,0.0,0.0,0.0,0.0,-2.6734,-2.6239,-2.6199,-2.6306,-2.6186,0.0,-2.3792,-2.0897,-1.9282,-1.8566,-1.8965,-2.0104,-2.198,-2.5277,-2.7,-2.7776,-2.7188,-2.6734,0.0,0.0,0.0,0.0,0.0,0.0,0.0,-2.3179,-2.2783,-2.1439,0.0,-1.6427,0.0,-1.6919,-1.907,-2.1177,0.0,-2.4916,-2.5825,-2.5531,-2.4556,-2.3941,-2.3768,-2.2926,-2.2191,-2.1603,-2.1269,-2.1109,-2.1032,-1.8262,-1.6506,-1.5623,-1.3483,-1.2926,-1.3772,-1.5164,-1.6686,-1.8298,-1.9365,-1.988,-1.9847,-1.8605,-1.7085,-1.5339,-1.3608,-1.1946,-1.046,0.0,0.0,0.0,0.0,0.0,0.0,0.0,0.0,0.0,0.0,0.0,0.0,0.0,0.0,0.0,0.0,0.0,0.0,0.0,0.0,0.0,0.0,0.0,0.0,0.0,0.0,0.0,0.0,0.0,0.0,0.0,0.0,0.0,0.0,0.0,0.0,0.0,0.0,0.0,0.0,0.0,0.0,0.0,0.0,0.0,0.0,0.0,0.0,0.0,0.0,-2.7455,-2.6987,-2.6947,-2.6961,-2.6947,-2.6694,-2.6546,-2.5664,-2.1767,-2.0803,-2.0938,-2.1354,-2.1594,-2.2718,-2.6736,-2.7696,-2.7509,-2.6841,0.0,-2.5838,-2.5464,-2.5464,-2.5718,-2.6346,0.0,-2.6809,-2.5446,-2.4885,-2.3126,-1.8802,-1.8027,-1.7759,-1.7154,-1.9199,-2.1274,-2.2945,-2.4852,-2.5785,-2.5531,-2.4409,-2.3701,-2.3541,-2.2485,-2.167,-2.1109,-2.1109,-2.1109,-2.1032,-1.7519,-1.5773,-1.5623,-1.3557,-1.3615,-1.535,-1.6597,-1.8171,-1.9867,-1.9893,-1.9947,-1.9759,-1.8328,-1.6881,-1.5326,-1.3392,-1.18,-1.0439,0.0,0.0,0.0,0.0,0.0,0.0,0.0,0.0,0.0,0.0,-2.7963,0.0,0.0,0.0,0.0,0.0,0.0,0.0,0.0,0.0,0.0,0.0,0.0,0.0,0.0,0.0,0.0,0.0,0.0,0.0,0.0,0.0,0.0,0.0,0.0,0.0,0.0,0.0,0.0,0.0,0.0,0.0,0.0,0.0,0.0,0.0,0.0,0.0,0.0,0.0,-2.8217,-2.7869,-2.7629,-2.7709,-2.7993,-2.7939,-2.6587,-2.4914,-2.414,-2.2567,-2.1591,-2.3585,-2.4046,-2.4705,-2.7166,-2.7696,0.0,0.0,0.0,-2.5718,-2.493,-2.5184,0.0,-2.6613,0.0,0.0,0.0,0.0,-2.3652,0.0,0.0,0.0,0.0,0.0,0.0,0.0,-2.4481,-2.5571,-2.5518,-2.4409,-2.3313,-2.2325,-2.1857,-2.1456,-2.1109,-2.1109,-2.1109,-2.1046,-1.8773,-1.6937,-1.5696,-1.5018,-1.4928,-1.537,-1.702,0.0,-2.0174,-2.0428,-1.9732,-1.8339,-1.6861,-1.5193,-1.3384,-1.1502,-1.0565,-1.0276,0.0,0.0,0.0,0.0,0.0,0.0,0.0,0.0,0.0,-2.7869,-2.819,-2.8819,0.0,0.0,0.0,0.0,0.0,0.0,0.0,0.0,0.0,0.0,0.0,0.0,0.0,0.0,0.0,0.0,0.0,0.0,0.0,0.0,0.0,0.0,0.0,0.0,0.0,0.0,0.0,0.0,0.0,0.0,0.0,0.0,0.0,0.0,0.0,0.0,0.0,0.0,-2.8511,-2.839,-2.839,-2.8497,-2.8577,-2.843,-2.748,-2.6236,-2.5032,-2.4,-2.3453,-2.4458,-2.4785,-2.5348,-2.7105,0.0,0.0,0.0,-2.5732,-2.5504,-2.477,0.0,0.0,0.0,0.0,0.0,0.0,0.0,0.0,0.0,0.0,0.0,0.0,0.0,0.0,-2.4372,-2.4982,-2.5291,-2.5291,-2.4182,-2.306,-2.2017,-2.1775,-2.1403,-2.1109,-2.1109,-2.1109,-2.1046,-1.8179,-1.6973,-1.7083,-1.5846,-1.594,-1.7044,-1.8483,-1.9636,-2.0468,-2.0615,-1.9661,-1.796,-1.6476,-1.4818,-1.297,-1.1077,-1.0344,-1.0249,0.0,0.0,0.0,0.0,0.0,0.0,0.0,-2.7362,-2.7549,-2.8154,-2.835,-2.9239,-3.1188,-2.9509,-2.8949,0.0,0.0,0.0,0.0,0.0,0.0,0.0,0.0,0.0,0.0,0.0,0.0,0.0,0.0,0.0,0.0,0.0,0.0,0.0,0.0,0.0,0.0,0.0,0.0,0.0,0.0,0.0,0.0,0.0,0.0,0.0,0.0,0.0,0.0,0.0,-2.8644,-2.8724,-2.8898,-2.8991,-2.8978,-2.8698,-2.8484,-2.797,-2.6092,-2.5749,-2.5894,-2.5688,-2.5749,-2.6105,-2.7122,-2.7308,0.0,0.0,-2.5611,-2.5451,-2.4917,0.0,0.0,0.0,0.0,0.0,0.0,0.0,0.0,0.0,0.0,0.0,0.0,0.0,0.0,-2.5694,-2.5224,-2.4863,-2.481,-2.3741,-2.2779,-2.2004,-2.1643,-2.1349,-2.1109,-2.1109,-2.0919,-2.0513,-1.7274,-1.6509,-1.7912,-1.6181,-1.654,-1.8553,-1.9859,-2.0548,-2.0762,-2.0388,-1.9224,-1.7461,-1.5917,-1.4297,-1.2586,-1.1027,-1.0378,-1.0256,0.0,0.0,0.0,0.0,0.0,0.0,0.0,-2.7655,-2.7776,-2.8181,-2.8248,-2.9076,-3.1159,-2.9705,-2.8529,0.0,0.0,0.0,0.0,0.0,0.0,0.0,0.0,0.0,0.0,0.0,0.0,-2.7308,-2.7562,0.0,0.0,0.0,0.0,0.0,0.0,0.0,0.0,0.0,0.0,0.0,0.0,0.0,0.0,0.0,0.0,0.0,0.0,0.0,0.0,0.0,0.0,-2.8965,-2.8724,-2.8831,-2.8978,-2.8698,0.0,0.0,-2.8373,-2.8419,-2.863,-2.8604,-2.8432,-2.8175,-2.7719,0.0,0.0,-2.6106,-2.5919,-2.5812,-2.5491,-2.5264,0.0,0.0,0.0,0.0,0.0,0.0,0.0,0.0,0.0,0.0,0.0,0.0,0.0,-2.5197,-2.4609,-2.4168,-2.3901,-2.3006,-2.2338,-2.1991,-2.1443,-2.1136,-2.1109,-2.1109,-2.0322,-1.8704,-1.6797,-1.5958,-1.6108,-1.5937,-1.6851,-1.8576,-2.0271,-2.1042,0.0,-1.9382,-1.7697,-1.5948,-1.4223,-1.2479,-1.0882,-1.047,-1.029,-1.0236,0.0,0.0,0.0,0.0,0.0,0.0,0.0,-2.7696,-2.7869,-2.8364,-2.8417,-2.8757,-2.9663,-2.9023,-2.8982,0.0,0.0,0.0,0.0,0.0,0.0,0.0,0.0,0.0,0.0,0.0,-2.7615,-2.7872,-2.7736,0.0,0.0,0.0,0.0,0.0,0.0,-2.8221,0.0,0.0,0.0,0.0,0.0,0.0,0.0,0.0,0.0,0.0,0.0,0.0,0.0,0.0,0.0,0.0,-2.8096,-2.8016,0.0,0.0,-2.8404,-2.8511,-2.8591,-2.9072,-2.9526,-2.9352,-2.9219,-2.8925,-2.815,0.0,0.0,-2.6211,-2.6037,-2.5865,-2.5571,-2.5277,-2.5344,0.0,0.0,0.0,0.0,0.0,0.0,0.0,0.0,0.0,0.0,0.0,-2.5451,-2.4863,-2.4275,-2.3821,-2.3514,-2.2806,-2.2285,-2.1991,-2.1416,-2.1109,-2.1109,-2.1109,-2.0195,-1.8512,-1.7795,-1.7474,-1.7474,-1.7474,-1.8436,-2.0132,-2.0779,-2.1109,0.0,-1.9228,-1.7474,-1.5719,-1.397,-1.2215,-1.0697,-1.0487,-1.0351,-1.0249,0.0,0.0,0.0,0.0,0.0,0.0,-2.7535,-2.7722,-2.7989,-2.8417,-2.847,-2.8497,-2.8591,-2.8524,-2.9084,-3.0418,0.0,0.0,0.0,0.0,0.0,0.0,0.0,0.0,0.0,0.0,-2.7936,-2.8221,-2.803,-2.803,0.0,0.0,-2.8315,-2.8221,0.0,0.0,0.0,0.0,0.0,0.0,0.0,0.0,0.0,0.0,0.0,0.0,0.0,0.0,0.0,0.0,0.0,0.0,0.0,0.0,0.0,0.0,-2.8154,-2.8328,-2.8738,-2.9379,-2.9887,-2.9766,-2.9606,-2.9272,0.0,0.0,0.0,-2.636,-2.6146,-2.6026,-2.5812,-2.5531,-2.5504,0.0,0.0,0.0,0.0,0.0,0.0,0.0,0.0,0.0,0.0,0.0,-2.5144,-2.4556,-2.4048,-2.3647,-2.334,-2.2672,-2.2164,-2.1871,-2.1376,-2.1109,-2.1109,-2.1109,-1.9941,-1.7731,-1.8244,-1.8244,-1.7731,-1.8244,-1.9483,-2.1109,-2.1109,-2.0779,0.0,-1.8436,-1.6689,-1.4939,-1.3193,-1.1762,-1.0704,-1.0548,-1.0405,-1.0256,0.0,0.0,0.0,0.0,0.0,0.0,0.0,-2.7846,-2.8221,-2.8234,-2.8234,-2.8355,-2.8577,-2.8337,-2.8355,-2.8577,0.0,0.0,0.0,0.0,0.0,0.0,0.0,0.0,0.0,0.0,-2.8221,-2.8221,-2.8444,-2.8444,-2.8234,-2.8457,-2.8444,-2.8221,0.0,0.0,0.0,0.0,0.0,0.0,0.0,0.0,-2.8221,0.0,0.0,0.0,0.0,0.0,0.0,0.0,0.0,0.0,0.0,0.0,0.0,0.0,-2.7909,-2.8422,-2.9232,-2.9686,-2.998,-3.0274,-2.9913,-2.9325,0.0,0.0,0.0,-2.6867,-2.6587,-2.6386,-2.6386,-2.6146,-2.6039,0.0,0.0,0.0,0.0,0.0,0.0,0.0,0.0,0.0,0.0,0.0,-2.4836,-2.4249,-2.3941,0.0,-2.334,-2.2485,-2.1857,-2.1628,-2.1269,-2.1109,-2.1109,-2.1109,-1.9355,-1.5978,-1.7667,-1.7602,-1.5978,-1.7731,-1.9483,-2.1109,-2.1109,-2.0132,0.0,-1.6625,-1.4874,-1.3128,-1.1439,-1.0717,-1.0704,-1.0548,-1.0405,-1.0256,0.0,0.0,0.0,0.0,0.0,0.0,0.0,-2.7846,-2.8221,-2.8221,-2.8221,-2.8257,-2.8577,-2.8323,-2.827,-2.8577,0.0,0.0,0.0,0.0,0.0,0.0,0.0,0.0,0.0,0.0,-2.8221,-2.8221,-2.8457,-2.8564,-2.8457,-2.8564,-2.8551,-2.8457,-2.8243,-2.8221,0.0,0.0,0.0,0.0,0.0,-2.8221,-2.8221,0.0,0.0,0.0,0.0,0.0,0.0,0.0,0.0,0.0,0.0,0.0,0.0,-2.7348,-2.7615,0.0,-2.8698,-2.9245,-2.9646,-2.974,-2.9472,-2.9018,-2.843,0.0,0.0,0.0,-2.6453,-2.6386,-2.6386,-2.5985,-2.5812,-2.6306,0.0,0.0,0.0,0.0,0.0,0.0,0.0,0.0,0.0,0.0,-2.4623,-2.4235,-2.3928,-2.346,-2.2739,-2.2245,-2.1937,-2.1857,-2.1363,-2.1109,-2.1109,-1.9941,-1.818,-1.5913,-1.7667,-1.7602,-1.5978,-1.896,-2.0589,-2.1109,-2.1109,-2.0132,-1.8372,-1.6625,-1.4884,-1.3128,-1.1372,-1.0717,-1.0704,-1.0548,-1.0405,-1.0256,0.0,0.0,0.0,0.0,0.0,0.0,0.0,-2.7913,-2.8221,-2.8221,-2.8221,-2.8257,-2.8577,-2.8323,-2.827,-2.8577,0.0,0.0,0.0,0.0,0.0,0.0,0.0,0.0,-2.8221,-2.8221,-2.8288,-2.8323,-2.8617,-2.8711,-2.8604,-2.8724,-2.8644,-2.843,-2.823,-2.8221,0.0,0.0,0.0,0.0,-2.8221,-2.8221,-2.8221,0.0,0.0,0.0,0.0,0.0,0.0,0.0,0.0,0.0,0.0,0.0,0.0,0.0,-2.7388,-2.7696,0.0,-2.8951,-2.9339,-2.9459,-2.9259,0.0,0.0,0.0,0.0,0.0,0.0,0.0,0.0,-2.5838,0.0,0.0,0.0,0.0,0.0,0.0,0.0,0.0,0.0,0.0,0.0,-2.5546,-2.5377,-2.4147,-2.4451,-2.4067,-2.2458,-2.2044,-2.1817,-2.1817,-2.1363,-2.1109,-2.1109,-1.9355,-1.7988,-1.6883,-1.7988,-1.7923,-1.6947,-1.9801,-2.1109,-2.1109,-2.1109,-1.9737,0.0,-1.6366,-1.4493,-1.2215,-1.1115,-1.0717,-1.0711,-1.0616,-1.0453,-1.0263,0.0,0.0,0.0,0.0,0.0,0.0,0.0,0.0,0.0,0.0,-2.8221,-2.8257,-2.8537,-2.831,-2.8257,0.0,0.0,0.0,0.0,0.0,0.0,0.0,0.0,0.0,-2.8221,-2.8221,-2.8283,-2.8577,-2.8871,-2.8871,-2.8617,-2.8885,-2.8711,-2.8261,-2.8234,-2.8221,0.0,0.0,0.0,-2.8221,-2.8221,-2.8221,0.0,0.0,0.0,0.0,0.0,0.0,0.0,0.0,0.0,0.0,0.0,0.0,0.0,0.0,0.0,0.0,0.0,-2.8711,-2.9018,-2.9312,-2.9165,-2.8791,0.0,0.0,0.0,0.0,0.0,0.0,0.0,0.0,0.0,0.0,0.0,0.0,0.0,0.0,0.0,0.0,0.0,0.0,-2.4315,-2.6428,-2.6677,-2.3977,-2.5236,-2.5018,-2.2485,-2.1857,-2.1601,-2.1588,-2.1256,-2.1109,-2.1109,-1.9228,-1.8372,-1.8512,-1.8372,-1.8372,-1.8576,-2.0322,-2.1109,0.0,-2.0982,-1.9024,-1.5913,-1.5784,-1.3709,-1.0717,-1.0717,-1.0717,-1.0717,-1.0717,-1.0534,-1.0283,0.0,0.0,0.0,0.0,0.0,0.0,0.0,0.0,0.0,0.0,-2.8221,-2.8261,-2.8328,-2.8274,0.0,0.0,0.0,0.0,0.0,0.0,0.0,0.0,0.0,0.0,-2.8221,-2.8221,-2.8261,-2.8257,-2.8564,-2.8671,-2.8604,-2.8671,-2.8631,-2.8484,-2.8243,-2.8221,0.0,0.0,-2.8221,-2.8221,-2.8221,-2.8221,0.0,0.0,0.0,0.0,-2.8221,-2.8181,0.0,0.0,0.0,0.0,0.0,0.0,0.0,0.0,-2.7241,-2.7549,-2.7308,0.0,-2.8083,-2.8377,-2.823,-2.7923,0.0,0.0,0.0,0.0,0.0,0.0,0.0,0.0,0.0,0.0,0.0,0.0,0.0,0.0,0.0,0.0,0.0,-2.501,-2.4569,-2.6069,-2.6185,-2.3937,-2.4965,-2.4616,-2.2243,-2.175,-2.1443,-2.1216,-2.1149,-2.1109,-2.1109,-1.8052,-1.7216,-1.85,-1.7141,-1.7216,-1.8576,-2.0322,-2.1109,-2.1046,-1.9674,-1.7859,-1.5784,-1.4493,-1.261,-1.0717,-1.0717,-1.0717,-1.0717,-1.0717,-1.0534,-1.0283,0.0,0.0,0.0,0.0,0.0,0.0,0.0,0.0,0.0,0.0,0.0,0.0,0.0,0.0,0.0,0.0,0.0,0.0,0.0,0.0,0.0,0.0,0.0,-2.8221,-2.8221,-2.8221,-2.8301,-2.835,-2.8524,-2.8604,-2.8604,-2.8604,-2.8537,-2.839,-2.8301,-2.8221,-2.8221,-2.8221,-2.8221,-2.8221,-2.8221,0.0,0.0,0.0,0.0,0.0,-2.8221,-2.814,0.0,-2.8181,-2.8047,-2.7819,0.0,0.0,0.0,0.0,-2.7255,-2.7428,-2.7108,-2.7362,-2.7709,-2.7736,-2.7722,-2.7589,-2.7161,0.0,0.0,0.0,0.0,0.0,0.0,0.0,0.0,0.0,0.0,0.0,0.0,0.0,0.0,0.0,0.0,-2.4609,0.0,-2.654,-2.6633,-2.359,-2.5375,-2.5206,-2.2013,-2.151,-2.1269,-2.1109,-2.1109,-2.1109,-2.1109,-1.7667,-1.7216,-1.9674,-1.7141,-1.7205,-1.9737,-2.0652,-2.0652,-1.9877,-1.8896,-1.7076,-1.4623,-1.3709,-1.2281,-1.0717,-1.0717,-1.0717,-1.0717,-1.0717,-1.0534,-1.0283,0.0,0.0,0.0,0.0,0.0,0.0,0.0,0.0,0.0,0.0,0.0,0.0,0.0,0.0,0.0,0.0,0.0,0.0,0.0,0.0,0.0,0.0,0.0,-2.8221,-2.8221,-2.8221,-2.827,-2.8537,-2.8577,-2.8604,-2.8604,-2.8604,-2.8444,-2.8221,-2.8221,-2.8221,-2.8221,-2.8221,-2.8221,-2.8221,-2.8221,0.0,0.0,0.0,0.0,0.0,0.0,0.0,0.0,-2.814,-2.7899,-2.7428,-2.7629,0.0,0.0,0.0,0.0,0.0,-2.7161,-2.7375,-2.7575,-2.7321,-2.7415,-2.7442,-2.6934,0.0,0.0,0.0,0.0,0.0,0.0,-2.4836,0.0,0.0,0.0,0.0,0.0,0.0,0.0,0.0,0.0,0.0,-2.4422,-2.7068,-2.719,-2.357,-2.5819,-2.5716,-2.1835,-2.1269,-2.1109,-2.1109,-2.1069,-2.0929,-2.0716,-1.7538,-1.7667,-2.1046,-1.7602,-1.7731,-2.1109,-2.0843,-1.9877,-1.8448,-1.7923,0.0,-1.3259,-1.2997,-1.2025,-1.0717,-1.0717,-1.0717,-1.0717,-1.0717,-1.0534,-1.0276,0.0,0.0,0.0,0.0,0.0,0.0,0.0,0.0,0.0,0.0,0.0,0.0,0.0,0.0,0.0,0.0,0.0,0.0,0.0,0.0,0.0,0.0,-2.8221,-2.8221,-2.8221,-2.8221,-2.8248,-2.8301,-2.8484,-2.8604,-2.8604,-2.8604,-2.8444,-2.8221,-2.8221,-2.8221,-2.8221,-2.8221,-2.8221,-2.8221,-2.8221,0.0,0.0,0.0,0.0,0.0,0.0,0.0,0.0,-2.8207,-2.8167,-2.806,-2.7762,0.0,0.0,0.0,0.0,0.0,-2.6653,-2.6921,-2.7321,-2.7281,-2.7108,-2.6934,0.0,0.0,0.0,0.0,0.0,0.0,0.0,0.0,-2.4636,0.0,0.0,0.0,0.0,0.0,-2.4596,-2.4302,0.0,-2.4627,-2.5612,-2.6184,-2.6125,-2.5143,-2.508,-2.4069,-2.1692,-2.1269,-2.1109,-2.1109,-2.0869,-2.0153,-1.8896,-1.6883,-1.7667,-2.1046,-1.7602,-1.7731,-2.1046,-1.9546,-1.8768,-1.8308,0.0,-1.3774,-1.3193,-1.1696,-1.0916,-1.0717,-1.0717,-1.0717,-1.0717,-1.0717,-1.0534,-1.0243,0.0,0.0,0.0,0.0,0.0,0.0,0.0,0.0,0.0,0.0,0.0,0.0,0.0,0.0,0.0,0.0,0.0,0.0,0.0,0.0,0.0,-2.8221,-2.8221,-2.8221,-2.8221,-2.8221,-2.8297,-2.8631,-2.8764,-2.9005,-2.9312,-2.8991,-2.8591,-2.8221,-2.8221,-2.8221,-2.8221,-2.8221,-2.8221,-2.8221,0.0,0.0,0.0,0.0,0.0,0.0,0.0,0.0,0.0,0.0,-2.8221,-2.8207,-2.7989,0.0,0.0,0.0,0.0,0.0,-2.6747,-2.6587,-2.66,-2.6747,-2.68,-2.6694,0.0,0.0,0.0,0.0,0.0,0.0,0.0,0.0,0.0,-2.4877,0.0,-2.4863,-2.481,-2.4436,-2.4115,0.0,0.0,-2.5207,-2.5957,-2.6728,-2.6588,-2.5156,-2.4775,-2.3615,-2.1464,-2.1189,-2.1042,-2.0882,-2.0895,-2.0053,-1.8301,-1.7599,-1.8116,-1.9674,-1.7141,-1.7205,-1.9674,-1.8896,-1.7474,-1.5589,0.0,-1.2734,-1.1828,-1.1049,-1.0717,-1.0717,-1.0717,-1.0717,-1.0711,-1.0629,-1.0514,-1.0351,0.0,0.0,0.0,0.0,0.0,0.0,0.0,0.0,0.0,0.0,0.0,0.0,0.0,0.0,0.0,0.0,0.0,0.0,0.0,0.0,-2.8221,-2.8221,-2.8221,-2.8261,-2.8243,-2.8323,-2.8644,-2.9245,-2.9312,-2.9539,-2.99,-2.9312,-2.8751,-2.8243,-2.8261,-2.8221,-2.8221,-2.8221,-2.8221,-2.8221,0.0,0.0,0.0,0.0,0.0,0.0,0.0,0.0,0.0,0.0,0.0,0.0,0.0,0.0,0.0,-2.7709,-2.7442,-2.7188,-2.6814,-2.6453,-2.6186,-2.6266,0.0,0.0,0.0,0.0,0.0,0.0,0.0,0.0,0.0,0.0,0.0,0.0,-2.497,-2.4796,-2.4275,-2.4008,-2.3821,-2.3688,-2.4799,-2.5832,-2.6488,-2.7134,-2.6871,-2.535,-2.4406,-2.31,-2.1199,-2.1109,-2.0975,-2.0681,-2.0506,-1.9487,-1.7496,-1.7678,-1.8058,-1.85,-1.7141,-1.7216,-1.8512,-1.8052,-1.6237,-1.3259,-1.2865,-1.196,-1.0717,-1.0717,-1.0717,-1.0717,-1.0717,-1.0717,-1.0704,-1.0548,-1.0493,-1.0453,0.0,0.0,0.0,0.0,0.0,0.0,0.0,0.0,0.0,0.0,0.0,0.0,0.0,0.0,0.0,0.0,0.0,0.0,0.0,0.0,-2.8221,-2.8221,-2.8221,-2.8283,-2.8564,-2.8845,-2.9259,-2.986,-3.0127,-3.014,-2.99,-2.9312,-2.8871,-2.8564,-2.827,-2.8221,-2.8221,-2.8221,-2.8221,-2.8221,-2.8221,0.0,0.0,0.0,0.0,0.0,0.0,0.0,0.0,0.0,0.0,0.0,0.0,0.0,-2.8114,-2.7468,-2.7281,-2.7148,-2.6573,-2.6587,-2.664,-2.6119,-2.5798,0.0,-2.6213,-2.5665,0.0,-2.5424,0.0,0.0,0.0,0.0,0.0,0.0,0.0,-2.4556,-2.4249,0.0,-2.3968,-2.342,-2.4856,-2.654,-2.7915,-2.6374,-2.5835,-2.6996,-2.3828,-2.1636,-2.1122,-2.1109,-2.0975,-2.0681,-1.9162,-1.7445,-1.5717,-1.5727,-1.6668,-1.8512,-1.8372,-1.8372,-1.8436,-1.6818,-1.507,-1.3193,-1.1563,-1.085,-1.0717,-1.0717,-1.0717,-1.0717,-1.0717,-1.0717,-1.0704,-1.0548,-1.0493,-1.0473,0.0,0.0,0.0,0.0,0.0,0.0,0.0,0.0,0.0,0.0,0.0,0.0,0.0,0.0,0.0,0.0,0.0,0.0,0.0,0.0,-2.8221,-2.8221,-2.8221,-2.8283,-2.8604,-2.9072,-2.978,-3.0728,-3.0849,-3.0568,-2.99,-2.9312,-2.8778,-2.831,-2.8274,-2.8221,-2.8221,-2.8221,-2.8221,-2.8221,-2.8221,-2.8221,0.0,0.0,0.0,0.0,0.0,0.0,0.0,0.0,-2.8221,-2.8221,0.0,0.0,-2.814,-2.7655,-2.7402,-2.7175,-2.6774,-2.648,-2.6226,-2.609,-2.5598,0.0,0.0,-2.5304,-2.489,-2.5184,-2.469,0.0,0.0,0.0,0.0,0.0,0.0,-2.4262,-2.3981,-2.3768,-2.3977,-2.4899,-2.6374,-2.7899,-2.9292,-2.7766,-2.6729,-2.6856,-2.3569,-2.143,-2.1122,-2.1109,-2.0895,-2.0414,-1.8989,-1.7213,-1.5113,-1.6515,-1.7089,-1.6732,-1.6819,-1.6883,-1.6818,-1.507,-1.3325,-1.1637,-1.0982,-1.0717,-1.0717,-1.0717,-1.0717,-1.0717,-1.0717,-1.0717,-1.0711,-1.0656,-1.0636,-1.0616,0.0,0.0,0.0,0.0,0.0,0.0,0.0,0.0,0.0,0.0,0.0,0.0,0.0,0.0,0.0,0.0,0.0,0.0,-2.8221,-2.8221,-2.8221,-2.8221,-2.8221,-2.8337,-2.8738,-2.9325,-3.01,-3.1089,-3.1183,-3.0768,-2.99,-2.9312,-2.8764,-2.8283,-2.8274,-2.8221,-2.8221,-2.8221,-2.8221,-2.8221,-2.8221,-2.8167,0.0,0.0,0.0,0.0,0.0,0.0,0.0,0.0,-2.8221,0.0,0.0,0.0,0.0,0.0,-2.7348,-2.7041,-2.6653,-2.6266,-2.5919,-2.5732,0.0,0.0,-2.5371,-2.4997,-2.4716,-2.5024,-2.4609,-2.4235,-2.4342,0.0,0.0,0.0,-2.3995,-2.3821,-2.3527,-2.3233,-2.3598,-2.5292,-2.7026,-2.8564,-2.9861,-2.8541,-2.7333,-2.6657,-2.3393,-2.1323,-2.1122,-2.1109,-2.0842,-2.0193,-1.8419,-1.6863,-1.559,-1.6786,-1.6768,-1.5643,-1.5741,-1.5843,-1.5848,-1.4101,-1.2347,-1.0717,-1.0717,-1.0717,-1.0717,-1.0717,-1.0717,-1.0717,-1.0717,-1.0717,-1.0717,-1.0717,-1.0717,-1.0704,0.0,0.0,0.0,0.0,0.0,0.0,0.0,0.0,0.0,0.0,0.0,0.0,0.0,0.0,0.0,0.0,0.0,0.0,-2.8221,-2.8221,-2.8221,-2.8221,-2.8221,-2.8417,-2.9018,-2.9606,-3.0194,-3.0795,-3.1076,-3.0768,-2.99,-2.9312,-2.8871,-2.8591,-2.8283,-2.8221,-2.8221,-2.8221,-2.8221,-2.8221,-2.8221,-2.7963,-2.7696,0.0,0.0,0.0,0.0,0.0,0.0,0.0,-2.8221,-2.8221,0.0,0.0,0.0,0.0,-2.7054,-2.6694,-2.6119,-2.6037,-2.5889,0.0,0.0,0.0,-2.5211,-2.485,-2.473,-2.5024,-2.4609,-2.4115,-2.3821,-2.3768,0.0,-2.3754,-2.3514,-2.3207,-2.2899,-2.2605,-2.2885,-2.4251,-2.6374,-2.8175,-2.9386,-2.8146,-2.7114,-2.6624,-2.3189,-2.1109,-2.1109,-2.1109,-2.0842,-2.0193,-1.7287,-1.6179,-1.7181,-1.5945,-1.5357,-1.5526,-1.5463,-1.5647,-1.5848,-1.4101,-1.2347,-1.0717,-1.0717,-1.0717,-1.0717,-1.0717,-1.0717,-1.0717,-1.0717,-1.0717,-1.0717,-1.0717,-1.0717,-1.0717,0.0,0.0,0.0,0.0,0.0,0.0,0.0,0.0,0.0,0.0,0.0,0.0,0.0,0.0,0.0,0.0,0.0,0.0,-2.8221,-2.8221,-2.8221,-2.8221,-2.8221,-2.8315,-2.8404,-2.8991,-2.9793,-3.0795,-3.0875,-3.0368,-2.9285,-2.8684,-2.8364,-2.8355,-2.8274,-2.8221,-2.8207,-2.7923,-2.7829,-2.7816,-2.7602,-2.7468,-2.7402,0.0,0.0,0.0,0.0,0.0,0.0,0.0,0.0,0.0,0.0,0.0,0.0,0.0,-2.7215,-2.6787,-2.6613,-2.6266,0.0,-2.5478,0.0,0.0,0.0,0.0,0.0,0.0,-2.4462,-2.4115,-2.3821,-2.342,0.0,-2.2859,-2.2579,-2.2352,-2.2258,-2.2164,-2.3178,-2.596,-2.6871,-2.8243,-3.0676,-2.843,-2.6653,-2.6227,-2.2995,-2.1109,-2.1109,-2.1109,-2.0842,-2.0193,-1.8312,-1.7169,-1.7091,-1.5921,-1.5349,-1.5357,-1.4391,-1.3982,-1.4036,-1.2281,-1.1174,-1.0717,-1.0717,-1.0717,-1.0717,-1.0717,-1.0717,-1.0717,-1.0717,-1.0717,-1.0717,-1.0717,-1.0717,-1.0717,0.0,0.0,0.0,0.0,0.0,0.0,0.0,0.0,0.0,0.0,-2.8221,-2.8221,0.0,0.0,0.0,0.0,0.0,0.0,0.0,0.0,-2.8221,-2.8221,-2.8221,-2.8288,-2.8323,-2.8911,-2.9446,-2.9927,-3.0154,-2.9793,-2.8858,-2.8497,-2.8257,-2.8221,-2.8221,-2.8167,-2.7949,-2.7776,-2.7629,-2.7509,-2.7335,-2.7201,-2.7094,0.0,0.0,0.0,0.0,0.0,0.0,0.0,0.0,0.0,0.0,0.0,0.0,-2.7455,-2.7014,-2.66,-2.636,0.0,0.0,0.0,-2.5424,-2.5504,-2.4796,0.0,0.0,0.0,0.0,-2.3808,-2.3621,-2.31,0.0,-2.2445,-2.2084,-2.1817,-2.1817,-2.171,-2.2893,-2.627,-2.6777,-2.805,-3.0993,-2.8428,-2.6426,-2.6001,-2.2937,-2.1109,-2.1109,-2.1002,-2.0722,-2.0254,-1.8568,-1.7745,-1.7935,-1.6035,-1.5103,-1.5132,-1.3768,-1.28,-1.2215,-1.1174,-1.0717,-1.0717,-1.0717,-1.0717,-1.0717,-1.0717,-1.0717,-1.0717,-1.0656,-1.0629,-1.0622,-1.0568,-1.0582,-1.0629,0.0,0.0,0.0,0.0,0.0,0.0,0.0,0.0,0.0,0.0,-2.8221,-2.8221,0.0,0.0,0.0,0.0,0.0,0.0,0.0,0.0,-2.8221,-2.8221,-2.8221,-2.827,-2.8564,-2.9085,-2.9098,-2.8564,-2.9179,-2.9165,-2.8564,-2.8564,-2.8417,-2.8221,-2.8221,-2.7976,-2.7696,-2.7669,-2.7495,-2.7228,-2.7201,-2.7014,-2.6747,-2.6774,0.0,0.0,0.0,0.0,0.0,0.0,0.0,0.0,0.0,0.0,0.0,-2.7134,-2.664,-2.6239,0.0,0.0,0.0,0.0,0.0,0.0,-2.4823,-2.4369,-2.4062,-2.3821,0.0,-2.3354,-2.33,-2.2806,-2.2405,-2.2352,-2.1871,-2.1574,-2.1574,-2.1283,-2.2327,-2.5619,-2.6343,-2.7652,-3.0371,-2.8147,-2.6348,-2.5818,-2.2875,-2.1109,-2.1109,-2.0842,-2.0535,-2.018,-1.8408,-1.7958,-1.9185,-1.6155,-1.4686,-1.4759,-1.3352,-1.2003,-1.0717,-1.0717,-1.0717,-1.0717,-1.0717,-1.0717,-1.0717,-1.0704,-1.0697,-1.0683,-1.0548,-1.0487,-1.046,-1.0358,-1.0392,-1.0493,0.0,0.0,0.0,0.0,0.0,0.0,0.0,0.0,0.0,0.0,0.0,0.0,0.0,0.0,0.0,0.0,0.0,0.0,0.0,0.0,-2.8221,-2.8221,-2.8221,-2.8261,-2.8243,-2.8449,-2.8462,-2.8328,-2.9072,-2.9058,-2.8328,-2.8328,-2.8288,-2.8221,-2.8221,-2.7976,-2.7682,-2.7455,-2.7188,-2.6894,-2.6667,-2.64,-2.6172,-2.64,-2.648,0.0,0.0,0.0,0.0,0.0,0.0,0.0,-2.8221,-2.7913,-2.7468,-2.7495,-2.6814,0.0,0.0,0.0,0.0,0.0,0.0,0.0,0.0,0.0,-2.3567,-2.3741,-2.3714,-2.3527,-2.3046,-2.2659,-2.2271,-2.1817,-2.1443,-2.1203,-2.1203,-2.1149,-2.2327,-2.5619,-2.605,-2.6857,-2.8742,-2.722,-2.5578,-2.424,-2.2215,-2.1109,-2.1109,-2.0842,-2.0535,-2.018,-1.8408,-1.747,-1.7513,-1.4617,-1.3162,-1.3206,-1.1827,-1.1014,-1.0717,-1.0717,-1.0717,-1.0717,-1.0717,-1.0717,-1.0711,-1.0588,-1.0541,-1.0534,-1.0507,-1.0426,-1.0351,-1.0555,-1.0568,-1.0507,0.0,0.0,0.0,0.0,0.0,0.0,0.0,0.0,0.0,0.0,0.0,0.0,0.0,0.0,0.0,0.0,-2.8221,-2.8221,-2.8221,-2.8221,-2.8221,-2.8221,-2.8221,-2.8221,-2.8221,-2.8221,-2.8221,-2.8221,-2.8703,-2.869,-2.8221,-2.8221,-2.8221,-2.8221,-2.8221,-2.7896,-2.7468,-2.7175,-2.68,-2.6386,-2.6092,-2.5959,-2.605,-2.6132,-2.636,-2.664,-2.6947,0.0,0.0,0.0,0.0,0.0,0.0,0.0,-2.7241,-2.7108,0.0,0.0,0.0,0.0,0.0,0.0,0.0,0.0,0.0,0.0,0.0,0.0,-2.3327,-2.302,-2.2712,-2.2405,-2.2071,-2.1695,-2.1296,-2.1109,-2.1109,-2.1109,-2.2327,-2.5619,-2.5984,-2.6651,-2.823,-2.6953,-2.525,-2.3458,-2.1957,-2.0989,-2.0708,-2.0548,-2.0334,-2.004,-1.821,-1.7162,-1.702,-1.4114,-1.2704,-1.2712,-1.1344,-1.0717,-1.0717,-1.0717,-1.0717,-1.0717,-1.0717,-1.0677,-1.0602,-1.0527,-1.0453,-1.0392,-1.0392,-1.0344,-1.0297,-1.0453,-1.05,-1.05,0.0,0.0,0.0,0.0,0.0,0.0,0.0,0.0,0.0,0.0,0.0,0.0,0.0,0.0,-2.8221,0.0,0.0,0.0,-2.8221,-2.8221,-2.8221,-2.8221,-2.8221,-2.8221,-2.8221,-2.8221,-2.8221,-2.8221,-2.8221,-2.8221,-2.8221,-2.8221,-2.8221,-2.8221,-2.8221,-2.7899,-2.7255,-2.7001,-2.656,-2.6012,-2.5705,-2.5732,-2.6037,-2.6037,-2.6279,-2.6747,-2.68,-2.7161,-2.7629,-2.7629,0.0,0.0,0.0,0.0,-2.7094,-2.6613,0.0,0.0,0.0,0.0,0.0,0.0,0.0,0.0,0.0,0.0,0.0,0.0,0.0,-2.2405,-2.2352,-2.2111,-2.1817,-2.1588,-2.1269,-2.1109,-2.1109,-2.1109,-2.2327,-2.5619,-2.5984,-2.653,-2.7871,-2.6772,-2.508,-2.2941,-2.17,-2.0882,-2.0334,-2.0207,-1.9973,-1.9384,-1.7587,-1.6455,-1.6194,-1.3578,-1.2288,-1.232,-1.1236,-1.0717,-1.0717,-1.0717,-1.0717,-1.0717,-1.0717,-1.0636,-1.0487,-1.0466,-1.0371,-1.0243,-1.027,-1.0263,-1.0249,-1.0331,-1.0412,-1.0493,0.0,0.0,0.0,0.0,0.0,0.0,0.0,0.0,0.0,0.0,-2.7963,-2.8221,0.0,-2.8221,-2.8221,-2.8221,-2.8221,-2.8221,-2.8221,0.0,0.0,-2.8221,-2.8221,-2.8221,-2.8221,-2.8221,-2.8221,-2.8221,-2.8221,-2.8221,-2.8221,-2.8221,-2.8221,-2.8221,-2.8221,-2.7899,-2.7268,-2.7228,-2.6867,-2.6306,-2.6012,-2.5996,-2.6037,-2.6037,-2.6159,-2.648,-2.6734,-2.7041,-2.7321,-2.7321,-2.7321,0.0,0.0,0.0,-2.6867,-2.6787,0.0,0.0,0.0,0.0,0.0,0.0,0.0,0.0,0.0,0.0,0.0,0.0,0.0,0.0,-2.2084,-2.1804,-2.1574,-2.1216,-2.1136,-2.1109,-2.1109,-2.1109,-2.2327,-2.5619,-2.5984,-2.6106,-2.6288,-2.6106,-2.4685,-2.1609,-2.1209,-2.0962,-2.0641,-2.0374,-1.9417,-1.7781,-1.5915,-1.4331,-1.3005,-1.1439,-1.0657,-1.0783,-1.0702,-1.0717,-1.0717,-1.0717,-1.0717,-1.0717,-1.0717,-1.0636,-1.048,-1.0358,-1.0215,-1.0031,-1.0229,-1.0202,-1.0065,-1.0521,-1.0588,-1.0514,0.0,0.0,0.0,0.0,0.0,0.0,0.0,0.0,0.0,0.0,0.0,-2.8221,0.0,-2.8221,-2.8221,-2.8221,-2.8221,-2.8221,-2.8221,-2.8221,-2.8221,-2.8221,-2.8221,-2.8221,-2.8221,-2.8221,-2.8221,-2.8221,-2.8221,-2.8221,-2.8221,-2.8221,-2.814,-2.7883,-2.7722,-2.7415,-2.7001,-2.6667,-2.6279,-2.5774,-2.415,-2.42,-2.5099,-2.4316,-2.483,-2.5959,-2.6413,-2.676,-2.7014,-2.7014,-2.7014,-2.7014,-2.7014,0.0,0.0,0.0,0.0,0.0,0.0,0.0,0.0,0.0,0.0,0.0,0.0,0.0,0.0,0.0,0.0,0.0,0.0,-2.1884,-2.1643,-2.1189,-2.1109,-2.1109,-2.1109,-2.1915,-2.3373,-2.5741,-2.5984,-2.5984,-2.5984,-2.5192,-2.3608,-2.1056,-2.1015,-2.0842,-2.0214,-2.0214,-1.9279,-1.7268,-1.5483,-1.387,-1.2434,-1.1014,-1.0392,-1.0622,-1.069,-1.0717,-1.0717,-1.0717,-1.0717,-1.0717,-1.0717,-1.0588,-1.0371,-1.0304,-1.0188,-1.0004,-1.0222,-1.029,-1.0331,-1.0616,-1.0677,-1.0629,0.0,0.0,0.0,0.0,0.0,0.0,0.0,0.0,0.0,0.0,0.0,0.0,0.0,0.0,0.0,0.0,-2.8221,-2.8221,-2.8221,-2.8221,-2.8221,-2.8221,-2.8221,-2.8221,-2.8221,-2.8221,-2.8221,-2.8221,0.0,-2.8221,-2.8221,-2.8154,-2.7909,-2.7682,-2.7468,-2.7175,-2.6787,-2.6199,-2.554,-2.4508,-2.2418,-2.2186,-2.3179,-2.2509,-2.3285,-2.4931,-2.5843,-2.64,-2.6707,-2.6707,-2.6707,-2.6707,-2.6707,-2.656,0.0,0.0,0.0,0.0,0.0,0.0,0.0,0.0,0.0,0.0,0.0,0.0,0.0,0.0,0.0,0.0,0.0,0.0,-2.1737,-2.1296,-2.1162,-2.1109,-2.1109,-2.2529,-2.4178,-2.5802,-2.5984,-2.5984,-2.5984,-2.4532,-2.2802,-2.0926,-2.0989,-2.0762,-1.9947,-2.0107,-1.9035,-1.6455,-1.5252,-1.3718,-1.1891,-1.0862,-1.05,-1.0717,-1.0717,-1.0717,-1.0717,-1.0717,-1.0717,-1.0717,-1.0717,-1.0575,-1.0331,-1.0331,-1.0243,-1.0058,-1.0276,-1.0399,-1.0514,-1.0663,-1.0717,-1.0717,0.0,0.0,0.0,0.0,0.0,0.0,0.0,0.0,0.0,0.0,0.0,0.0,-2.8221,-2.8221,-2.8221,-2.8221,-2.8221,-2.8221,-2.8221,-2.8221,-2.8221,-2.8221,-2.8221,0.0,-2.8221,-2.8221,0.0,0.0,0.0,0.0,-2.8221,-2.7856,-2.7709,-2.7696,-2.7682,-2.7362,-2.6787,-2.6199,-2.4752,-2.2615,-2.1766,-2.0624,-1.9622,-2.0917,-2.2019,-2.306,-2.4905,-2.5919,-2.6413,-2.6413,-2.6413,-2.6413,-2.6413,-2.64,-2.6386,0.0,0.0,0.0,0.0,0.0,0.0,0.0,0.0,0.0,0.0,0.0,0.0,0.0,0.0,0.0,0.0,0.0,0.0,0.0,-2.1296,-2.1109,-2.1109,-2.2529,-2.4178,-2.5802,-2.5984,-2.5984,-2.5984,-2.4532,-2.2889,-2.1209,-2.1096,-2.0842,-2.018,-2.0167,-1.8553,-1.4857,-1.4658,-1.3238,-1.0453,-1.062,-1.0704,-1.0717,-1.0717,-1.0717,-1.0717,-1.0717,-1.0717,-1.0717,-1.0717,-1.0629,-1.048,-1.048,-1.0399,-1.0283,-1.0426,-1.0487,-1.0514,-1.0663,-1.0717,-1.0717,0.0,0.0,0.0,0.0,0.0,0.0,0.0,0.0,0.0,0.0,0.0,0.0,0.0,-2.5694,-2.5806,-2.5806,-2.7259,-2.8221,-2.8221,-2.8221,-2.8221,-2.8221,-2.8221,0.0,0.0,0.0,0.0,0.0,0.0,-2.8127,-2.7856,-2.7749,-2.7602,-2.7415,-2.7215,-2.6921,-2.6507,-2.5919,-2.4316,-2.1983,-2.0173,-1.898,-1.8407,-1.9128,-2.0403,-2.2097,-2.4191,-2.5331,-2.5798,-2.5611,-2.5678,-2.5825,-2.5825,-2.5959,-2.6106,-2.6106,0.0,0.0,0.0,0.0,0.0,0.0,0.0,0.0,0.0,0.0,0.0,0.0,0.0,0.0,0.0,0.0,0.0,0.0,0.0,0.0,-2.167,-2.2957,-2.4061,-2.4672,-2.4549,-2.4471,-2.4471,-2.2952,-2.1872,-2.144,-2.1216,-2.0935,-2.0535,-2.0334,-1.8493,-1.4738,-1.4599,-1.3247,-1.034,-1.0575,-1.0717,-1.0717,-1.0717,-1.0717,-1.0717,-1.0717,-1.0717,-1.0717,-1.0717,-1.0636,-1.0493,-1.0493,-1.046,-1.0419,-1.0473,-1.0555,-1.0643,-1.0697,-1.0717,-1.0717,0.0,0.0,0.0,-2.6667,0.0,-2.652,-2.6907,-2.6881,-2.6934,-2.7228,0.0,0.0,0.0,0.0,-2.4711,-2.5477,-2.7103,-2.8114,-2.8221,-2.8043,-2.8043,-2.8221,-2.8221,0.0,0.0,0.0,0.0,0.0,0.0,0.0,0.0,-2.7602,-2.7455,-2.7255,-2.6961,-2.66,-2.6199,-2.4906,-2.301,-2.0656,-1.8144,-1.6693,-1.6111,-1.684,-1.8074,-1.9702,-2.1733,-2.2867,-2.3362,-2.387,-2.4121,-2.4391,-2.5209,-2.5785,-2.6066,-2.5865,-2.5732,0.0,0.0,0.0,0.0,0.0,0.0,0.0,0.0,0.0,0.0,0.0,0.0,0.0,0.0,0.0,0.0,0.0,0.0,0.0,0.0,-2.3278,-2.4108,-2.4004,-2.3873,-2.3738,-2.3738,-2.2342,-2.1483,-2.1748,-2.143,0.0,-2.0842,-1.9937,-1.7731,-1.4,-1.3402,-1.2254,-1.0415,-1.0595,-1.0717,-1.0717,-1.0717,-1.0717,-1.0717,-1.0717,-1.0717,-1.0717,-1.0717,-1.0663,-1.0568,-1.0568,-1.0568,-1.0568,-1.0568,-1.0629,-1.0717,-1.0717,-1.0717,-1.0717,-2.6814,-2.6814,-2.6894,-2.7188,-2.6774,-2.6587,-2.7148,-2.7001,-2.6907,-2.7201,0.0,0.0,0.0,0.0,0.0,-2.7433,-2.7709,-2.7829,-2.8207,-2.7869,-2.7829,-2.8207,-2.8221,0.0,0.0,0.0,0.0,0.0,0.0,0.0,0.0,0.0,-2.7241,-2.7215,-2.6934,-2.648,-2.5814,-2.3132,-2.0689,-1.8361,-1.5756,-1.3784,-1.2485,-1.4066,-1.5058,-1.5726,-1.7608,-1.8567,-1.9295,-2.1112,-2.179,-2.2196,-2.4683,-2.5892,-2.6239,-2.5665,-2.5705,-2.5745,0.0,0.0,0.0,0.0,0.0,0.0,0.0,0.0,0.0,0.0,0.0,0.0,0.0,0.0,0.0,0.0,0.0,0.0,0.0,0.0,-2.4277,-2.4015,-2.397,-2.397,-2.3955,-2.2795,-2.2017,-2.2031,-2.175,-2.1443,-2.1149,-1.9038,-1.614,-1.2513,-1.1014,-1.0351,-1.0487,-1.0643,-1.0717,-1.0717,-1.0717,-1.0717,-1.0717,-1.0717,-1.0717,-1.0717,-1.0717,-1.0717,-1.0717,-1.0717,-1.0717,-1.0717,-1.0717,-1.0717,-1.0717,-1.0717,-1.0717,-1.0717,-2.6507,-2.6507,-2.6533,-2.6613,-2.6493,-2.644,-2.6613,-2.656,-2.6533,0.0,0.0,0.0,-2.1209,-2.1609,-2.2836,-2.5325,-2.6884,-2.7829,-2.8207,-2.7869,-2.7829,-2.8207,-2.8221,0.0,0.0,0.0,0.0,0.0,0.0,0.0,0.0,0.0,0.0,0.0,-2.6453,-2.6066,-2.5242,-2.3181,-2.0921,-1.8391,-1.6041,-1.3987,-1.2485,-1.4066,-1.4897,-1.5397,-1.6942,-1.7876,-1.8591,-2.026,-2.1148,-2.1931,-2.4397,-2.5317,-2.5411,-2.5251,-2.5264,-2.5224,-2.4756,0.0,0.0,0.0,0.0,0.0,-2.493,-2.4796,0.0,0.0,0.0,0.0,0.0,0.0,0.0,0.0,0.0,0.0,0.0,0.0,0.0,0.0,-2.3225,-2.3128,-2.2841,-2.27,-2.2712,0.0,-2.2472,-2.2044,-2.1764,-1.8092,-1.4978,-1.269,-1.1175,-1.0453,-1.0493,-1.0643,-1.0717,-1.0717,-1.0717,-1.0717,-1.0717,-1.0717,-1.0717,-1.0717,-1.0717,-1.0717,-1.0717,-1.0717,-1.0717,-1.0717,-1.0717,-1.0717,-1.0717,-1.0717,-1.0717,-1.0717,-2.6547,-2.6466,-2.6386,-2.6386,-2.566,-2.5012,-2.5012,-2.4271,-2.3712,0.0,0.0,0.0,-1.8716,-2.0032,-2.1821,-2.4097,-2.6147,-2.7455,-2.7846,-2.7615,-2.7655,-2.7949,-2.8167,0.0,0.0,0.0,0.0,0.0,0.0,0.0,0.0,0.0,0.0,-2.6037,-2.6132,-2.5785,-2.494,-2.2218,-2.0101,-1.8379,-1.5295,-1.3413,-1.2594,-1.3394,-1.3811,-1.4137,-1.4804,-1.5822,-1.699,-1.862,-2.0555,-2.2661,-2.4116,-2.4783,-2.5077,-2.5077,-2.5077,-2.501,-2.4716,-2.4636,-2.4676,-2.485,0.0,0.0,-2.4543,-2.4489,-2.4422,0.0,0.0,0.0,0.0,0.0,0.0,0.0,0.0,0.0,0.0,0.0,0.0,0.0,0.0,-2.2993,-2.2819,-2.3073,-2.3313,-2.35,-2.306,-2.1878,-1.9898,-1.715,-1.4468,-1.1876,-1.0955,-1.0521,-1.0588,-1.0677,-1.0717,-1.0717,-1.0717,-1.0717,-1.0717,-1.0717,-1.0717,-1.0717,-1.0717,-1.0717,-1.0717,-1.0717,-1.0717,-1.0717,-1.0717,-1.0717,-1.0717,-1.0717,-1.0717,-1.0717,0.0,-2.656,-2.6386,-2.6386,-2.4602,-2.314,-2.314,-2.1281,-1.9907,0.0,-1.7973,-1.6584,-1.6501,-1.8764,-2.1066,-2.3253,-2.5257,-2.6705,-2.7241,-2.7241,-2.7348,0.0,0.0,0.0,0.0,0.0,0.0,0.0,0.0,0.0,0.0,0.0,0.0,-2.5905,-2.5905,-2.5598,-2.4851,-2.078,-1.8936,-1.8444,-1.4099,-1.2481,-1.2698,-1.24,-1.2359,-1.2413,-1.2135,-1.3119,-1.4807,-1.6629,-2.0132,-2.3728,-2.3794,-2.4356,-2.4983,-2.5024,-2.5037,-2.497,-2.4703,-2.4636,-2.4636,-2.4636,-2.4636,0.0,-2.3941,-2.4022,-2.4128,0.0,0.0,0.0,0.0,0.0,0.0,0.0,0.0,0.0,0.0,0.0,0.0,0.0,0.0,0.0,-2.3527,-2.3768,-2.3928,-2.3968,-2.3634,-2.1452,-1.6984,-1.6398,-1.4456,-1.0678,-1.0527,-1.0582,-1.0717,-1.0717,-1.0717,-1.0717,-1.0717,-1.0717,-1.0717,-1.0717,-1.0717,-1.0717,-1.0717,-1.0717,-1.0717,-1.0717,-1.0717,-1.0717,-1.0717,-1.0717,-1.0717,-1.0717,-1.0717,-1.0717,-2.6466,-2.6426,-2.6386,-2.6386,-2.4602,-2.314,0.0,0.0,-1.9907,-1.9907,-1.8101,-1.6152,-1.4455,-1.643,-1.8801,-2.1066,-2.3095,-2.5126,-2.716,-2.7041,0.0,0.0,0.0,0.0,0.0,0.0,0.0,0.0,0.0,0.0,0.0,0.0,0.0,0.0,-2.5598,-2.5411,-2.4865,0.0,0.0,-1.8739,-1.4268,-1.2569,-1.2698,-1.24,-1.223,-1.2121,-1.1938,-1.2015,-1.2785,-1.642,-2.0156,-2.35,-2.3968,-2.4235,-2.4422,-2.4649,-2.4716,-2.4716,-2.4649,-2.4636,-2.4636,-2.4636,-2.4636,0.0,-2.4195,-2.4168,-2.4195,0.0,0.0,0.0,0.0,0.0,0.0,0.0,0.0,0.0,0.0,0.0,0.0,0.0,0.0,0.0,-2.4756,-2.4796,-2.4917,-2.5157,-2.4462,-2.2191,-1.7843,-1.7035,-1.4879,-1.0927,-1.0738,-1.069,-1.0717,-1.0717,-1.0717,-1.0717,-1.0717,-1.0717,-1.0717,-1.0717,-1.0717,-1.0717,-1.0717,-1.0717,-1.0717,-1.0717,-1.0717,-1.0717,-1.0717,-1.0717,-1.0717,-1.0717,-1.0717,-1.0717,-2.66,-2.6493,-2.6386,-2.6386,-2.3712,-2.1523,0.0,0.0,0.0,-1.6664,-1.5838,-1.4838,-1.3609,-1.556,-1.7832,-2.0066,-2.207,-2.4301,-2.672,-2.6827,0.0,0.0,0.0,0.0,0.0,0.0,0.0,0.0,0.0,0.0,0.0,0.0,0.0,0.0,0.0,0.0,0.0,0.0,-1.8436,-1.7326,-1.3938,-1.2664,-1.2698,-1.24,-1.2196,-1.204,-1.1884,-1.2827,-1.4657,-1.7627,-2.0548,-2.2953,-2.3394,-2.3634,-2.3848,-2.4289,-2.4422,-2.4449,-2.4596,-2.4636,-2.4636,-2.4636,-2.4529,0.0,0.0,-2.3981,-2.3981,0.0,0.0,0.0,0.0,0.0,0.0,0.0,0.0,0.0,0.0,0.0,0.0,0.0,0.0,0.0,-2.5304,-2.5291,-2.5358,-2.5504,-2.497,-2.2741,-1.8341,-1.76,-1.5427,-1.12,-1.0982,-1.0941,-1.0941,-1.0867,-1.0766,-1.0833,-1.0758,-1.0717,-1.0717,-1.0717,-1.0717,-1.0717,-1.0717,-1.0717,-1.0717,-1.0717,-1.0717,-1.0717,-1.0717,-1.0717,-1.0717,-1.0717,-1.0772,-1.0759,-2.6734,-2.6547,-2.6386,-2.6386,0.0,0.0,0.0,0.0,0.0,-1.3403,-1.3458,-1.3451,-1.3329,-1.4794,-1.6678,-1.8933,-2.0906,-2.3128,-2.5544,-2.6202,0.0,0.0,0.0,-2.7068,0.0,0.0,0.0,0.0,0.0,0.0,0.0,0.0,0.0,0.0,0.0,0.0,0.0,0.0,0.0,-1.5793,0.0,-1.2732,-1.2698,-1.24,-1.2196,-1.2033,-1.1823,-1.3681,-1.65,-1.806,-1.9799,-2.1513,-2.2203,-2.2588,-2.285,-2.387,-2.4075,-2.4115,-2.4462,-2.4556,-2.4569,-2.4623,-2.4422,-2.4142,0.0,0.0,0.0,0.0,0.0,0.0,0.0,0.0,0.0,0.0,0.0,0.0,0.0,0.0,0.0,0.0,0.0,0.0,-2.5598,-2.5651,-2.5665,-2.5598,-2.5384,-2.3267,-1.8717,-1.8207,-1.5997,-1.144,-1.1267,-1.124,-1.1206,-1.109,-1.0934,-1.088,-1.0759,-1.0751,-1.0717,-1.0717,-1.0717,-1.0717,-1.0717,-1.0717,-1.0717,-1.0717,-1.0717,-1.0717,-1.0717,-1.0717,-1.0724,-1.0751,-1.0846,-1.0867,-2.644,-2.6413,-2.6386,-2.6386,0.0,0.0,0.0,0.0,0.0,0.0,-1.3186,-1.303,-1.301,-1.3003,-1.3834,-1.606,-1.8017,-2.0244,-2.2954,-2.4688,-2.5785,0.0,0.0,0.0,-2.6184,0.0,0.0,0.0,0.0,0.0,0.0,0.0,0.0,0.0,-2.4957,0.0,0.0,0.0,-1.752,0.0,-1.359,-1.2732,0.0,-1.24,-1.2196,-1.2006,-1.1592,-1.2711,-1.4344,-1.4717,-1.6077,-1.7951,-2.0099,-2.0613,-2.0914,-2.3209,-2.3634,-2.3541,-2.4102,-2.4249,-2.4315,-2.4569,-2.4422,-2.4195,-2.4155,0.0,-2.3848,-2.4102,0.0,0.0,0.0,0.0,0.0,0.0,0.0,0.0,0.0,0.0,0.0,0.0,0.0,0.0,0.0,-2.6146,-2.6186,-2.5932,-2.5879,-2.393,-1.9361,-1.87,-1.6416,-1.1907,-1.1633,-1.1504,-1.1369,-1.1348,-1.1206,-1.088,-1.086,-1.0853,-1.0717,-1.0717,-1.0717,-1.0717,-1.0717,-1.0717,-1.0717,-1.0717,-1.0717,-1.0717,-1.0717,-1.0717,-1.0738,-1.0806,-1.0867,-1.0894,-2.4246,-2.4398,-2.4335,-2.4485,0.0,0.0,0.0,0.0,0.0,0.0,0.0,-1.3017,-1.2847,-1.2712,-1.3445,-1.5642,-1.6532,-1.8551,-2.2259,-2.3384,-2.4547,0.0,0.0,0.0,0.0,0.0,0.0,0.0,-2.6346,0.0,0.0,0.0,0.0,0.0,-2.3693,0.0,-1.9586,0.0,-1.5769,0.0,0.0,0.0,0.0,-1.2237,-1.1959,-1.164,-1.1355,-1.2322,-1.3756,0.0,-1.5288,0.0,-1.9381,-2.0085,-2.0551,-2.2806,-2.342,-2.342,-2.3834,-2.3955,-2.3981,-2.4102,-2.3099,-2.2418,-2.3686,-2.3034,-2.2519,-2.3911,0.0,0.0,0.0,0.0,0.0,0.0,-2.5291,0.0,0.0,0.0,0.0,0.0,0.0,0.0,0.0,0.0,0.0,-2.6213,-2.6213,-2.4268,-1.9585,-1.9111,-1.685,-1.2258,-1.1952,-1.1843,-1.1782,-1.1613,-1.1416,-1.1206,-1.0961,-1.0799,-1.0717,-1.0717,-1.0717,-1.0717,-1.0717,-1.0772,-1.0779,-1.0758,-1.0772,-1.0853,-1.0853,-1.0853,-1.0793,-1.086,-1.0988,-1.1199,-2.0953,-2.1501,-2.2076,0.0,0.0,0.0,0.0,0.0,0.0,0.0,-1.3044,-1.2908,-1.2691,-1.2596,-1.3112,-1.4662,-1.5203,-1.6926,-2.0222,-2.1162,-2.2324,-2.3918,-2.4343,-2.4531,-2.4456,0.0,0.0,0.0,0.0,0.0,0.0,0.0,0.0,0.0,0.0,-2.1128,-1.8126,0.0,-1.498,-1.2515,-1.2623,-1.2467,-1.2149,-1.1999,-1.166,-1.1253,-1.1145,-1.1811,-1.2767,-1.3078,-1.401,0.0,-1.7569,-1.8309,-1.8841,0.0,0.0,-2.1622,-2.1973,-2.2074,-2.2111,-2.2191,-2.0995,-2.0165,-2.1882,-2.1534,-2.1426,-2.3117,-2.4109,0.0,0.0,0.0,0.0,0.0,0.0,-2.5558,0.0,0.0,0.0,0.0,0.0,0.0,0.0,0.0,0.0,-2.6266,-2.6346,-2.439,-1.9813,-1.9413,-1.7226,-1.2635,-1.2366,-1.2271,-1.2182,-1.1932,-1.1687,-1.145,-1.1151,-1.0928,-1.0778,-1.0738,-1.0717,-1.0717,-1.0717,-1.0785,-1.0813,-1.0812,-1.0779,-1.0887,-1.0989,-1.1029,-1.107,-1.107,-1.1206,-1.1382,-1.6783,-1.8072,-2.0178,0.0,0.0,0.0,0.0,0.0,0.0,-1.305,-1.2712,-1.2522,-1.2508,-1.225,-1.2155,-1.2223,-1.3764,-1.5044,-1.5702,-1.7643,-1.8819,-1.9046,-1.9621,-1.9799,-1.9416,-2.1761,0.0,0.0,0.0,0.0,0.0,0.0,0.0,0.0,0.0,-2.2603,-1.8562,-1.8497,-1.6151,-1.2501,-1.2508,-1.2244,-1.183,0.0,-1.1355,-1.0894,-1.0887,0.0,0.0,-1.0968,-1.1022,0.0,0.0,0.0,0.0,0.0,0.0,0.0,0.0,0.0,-1.7793,-1.8166,-1.8032,-1.7909,-1.8338,-1.9741,-2.104,-2.1558,-2.3264,-2.4636,-2.4636,-2.4877,-2.5157,-2.5438,0.0,0.0,0.0,0.0,0.0,0.0,0.0,0.0,0.0,0.0,-2.605,-2.605,-2.6226,-2.4477,-1.9971,-1.9712,-1.7625,-1.3102,-1.2935,-1.2793,-1.2488,-1.2338,-1.2047,-1.1606,-1.1301,-1.1084,-1.0867,-1.0785,-1.0717,-1.0717,-1.0717,-1.0724,-1.0738,-1.0813,-1.0873,-1.0894,-1.1104,-1.1246,-1.1375,-1.1375,-1.1382,-1.1409,-1.3744,-1.4276,-1.5577,-1.7936,-1.5948,0.0,0.0,-1.2963,-1.2888,-1.2684,-1.2569,-1.2427,-1.223,-1.2121,-1.202,-1.1918,-1.2443,-1.3467,-1.5035,-1.6005,-1.7218,-1.8703,-1.9213,-1.9539,-1.9531,-2.0327,0.0,0.0,0.0,0.0,0.0,0.0,0.0,0.0,0.0,-2.113,0.0,0.0,0.0,0.0,0.0,-1.206,-1.1796,0.0,-1.1165,-1.0867,-1.0766,-1.0765,0.0,-1.0778,-1.0799,-1.1226,-1.3208,-1.3917,-1.4352,-1.6243,-1.6773,-1.6814,0.0,0.0,-1.7049,-1.7203,0.0,-1.5812,-1.7439,-1.7392,-1.7473,-1.9107,-2.0045,-2.1112,-2.2578,-2.3002,0.0,0.0,0.0,0.0,0.0,0.0,0.0,0.0,0.0,0.0,0.0,0.0,0.0,-2.5665,-2.5932,-2.4211,-1.9802,-1.9643,-1.7707,-1.326,-1.301,-1.2915,-1.2807,-1.2461,-1.2162,-1.1911,-1.1504,-1.1233,-1.109,-1.1036,-1.0962,-1.0806,-1.0806,-1.0928,-1.1009,-1.0968,-1.1063,-1.1246,-1.1294,-1.1348,-1.1389,-1.1389,-1.1457,-1.1552,-1.2311,-1.2366,-1.319,-1.554,-1.4822,-1.3655,-1.2958,-1.28,-1.2712,-1.2461,-1.2427,-1.2332,-1.2088,-1.2135,-1.202,-1.1925,-1.1864,-1.2429,-1.3798,-1.4215,-1.5026,-1.6415,-1.6793,-1.7072,-1.7207,-1.7989,-1.9125,-2.0623,0.0,-2.2988,0.0,0.0,0.0,0.0,0.0,-2.0232,-1.7236,0.0,-1.4399,0.0,0.0,-1.1938,0.0,0.0,-1.1077,-1.086,0.0,-1.0717,-1.0717,-1.0717,-1.0785,-1.1068,-1.2319,-1.2791,-1.3081,-1.4285,-1.4611,-1.4629,-1.4702,-1.472,0.0,-1.4801,-1.3959,0.0,-1.5079,0.0,-1.5471,-1.6907,-1.796,-1.9098,-2.0549,-2.1521,0.0,0.0,0.0,0.0,0.0,-2.5678,0.0,0.0,0.0,0.0,0.0,0.0,-2.5358,-2.5358,-2.5638,-2.4012,0.0,-1.9563,-1.7718,-1.3494,-1.3247,-1.3173,-1.3119,-1.2725,-1.24,-1.2135,-1.1687,-1.1396,-1.124,-1.1185,-1.1111,-1.1023,-1.1023,-1.1077,-1.1158,-1.1124,-1.1219,-1.1396,-1.145,-1.147,-1.147,-1.147,-1.1565,-1.1694,-1.2291,-1.2298,-1.2942,-1.4979,-1.5387,-1.4705,-1.2804,-1.2501,-1.2447,-1.2298,-1.2277,-1.2216,-1.206,-1.2115,-1.2115,-1.2115,-1.1904,-1.1884,-1.204,-1.2196,-1.2284,-1.2291,-1.2562,-1.2718,-1.2718,-1.4735,-1.5981,-1.6168,0.0,0.0,0.0,0.0,0.0,0.0,-2.2259,0.0,-1.5565,-1.582,-1.4641,-1.2474,-1.2182,-1.1891,-1.1592,-1.128,-1.1077,-1.086,-1.0772,-1.0717,-1.0717,-1.0717,-1.0717,-1.0717,-1.0717,-1.0717,-1.0717,-1.0717,-1.0717,-1.0751,-1.0833,-1.0873,-1.0968,-1.1111,-1.1145,0.0,0.0,0.0,-1.4796,0.0,-1.6804,-1.8385,-1.8645,0.0,0.0,0.0,0.0,0.0,0.0,0.0,-2.5865,0.0,0.0,0.0,0.0,-2.5077,-2.5064,-2.5077,-2.5344,0.0,0.0,0.0,-1.7693,-1.3705,-1.3634,-1.3566,-1.341,-1.3112,-1.2739,-1.2298,-1.1843,-1.1552,-1.1396,-1.1253,-1.1255,-1.1241,-1.1241,-1.1241,-1.1185,-1.1335,-1.1396,-1.1416,-1.1565,-1.1619,-1.1619,-1.1626,-1.1714,-1.183,-1.2271,-1.2372,-1.2608,-1.3182,-1.3259,-1.3112,-1.2579,-1.2501,-1.2413,-1.2155,-1.2121,-1.202,-1.1762,-1.1735,-1.1735,-1.1735,-1.1694,-1.1735,-1.1877,-1.2033,-1.2169,-1.2284,-1.2467,-1.2562,-1.2562,-1.3212,-1.4375,-1.6043,0.0,0.0,-2.252,0.0,0.0,0.0,0.0,0.0,-1.5759,-1.5802,-1.4563,-1.2474,-1.2182,-1.1945,-1.1735,0.0,-1.1077,-1.086,-1.0772,-1.0717,-1.0717,-1.0717,-1.0717,-1.0717,-1.0717,-1.0717,-1.0717,-1.0717,-1.0717,-1.0731,-1.0765,-1.0778,-1.0785,-1.0826,-1.0921,-1.1023,0.0,0.0,0.0,0.0,0.0,0.0,0.0,0.0,0.0,0.0,0.0,0.0,0.0,-2.6146,-2.6172,-2.5879,-2.5772,-2.5651,-2.5424,-2.501,-2.4836,-2.5064,-2.5344,0.0,0.0,0.0,0.0,-1.3712,-1.3729,-1.3715,-1.3573,-1.3166,-1.2786,-1.244,-1.1993,-1.1701,-1.1558,-1.1518,-1.1443,-1.1335,-1.1335,-1.1335,-1.1335,-1.1375,-1.1457,-1.1565,-1.1606,-1.1619,-1.1633,-1.1735,-1.1796,-1.1843,-1.2257,-1.2406,-1.2501,-1.2501,-1.2447,-1.2413,-1.2413,-1.2461,-1.2372,-1.2006,-1.202,-1.1952,-1.1653,-1.1619,-1.1619,-1.1619,-1.1619,-1.1708,-1.1918,-1.2013,-1.2155,-1.2372,-1.2461,-1.2501,-1.2501,-1.2583,-1.3248,-1.447,0.0,0.0,-1.9777,0.0,0.0,0.0,0.0,-1.6538,0.0,-1.4353,-1.3612,-1.2386,-1.2155,-1.1891,0.0,-1.1287,-1.1029,-1.0772,-1.0751,-1.0717,-1.0717,-1.0717,-1.0717,-1.0717,-1.0717,-1.0717,-1.0717,-1.0717,-1.0717,-1.0717,-1.0717,-1.0717,-1.0717,-1.0717,-1.0766,-1.0894,-1.1029,-1.1287,-1.1558,0.0,-1.1911,-1.2559,0.0,0.0,0.0,0.0,0.0,0.0,-2.6094,-2.6279,-2.6333,-2.6159,-2.5231,-2.4906,-2.5814,-2.5358,-2.5037,-2.5077,-2.5344,0.0,0.0,0.0,0.0,-1.38,-1.3797,-1.3804,-1.3722,-1.3275,-1.2901,-1.2596,-1.2149,-1.1857,-1.1708,-1.1647,-1.1572,-1.1491,-1.1491,-1.1491,-1.1491,-1.1491,-1.1545,-1.1619,-1.1619,-1.1653,-1.1728,-1.1877,-1.1932,-1.1952,-1.2257,-1.2406,-1.2501,-1.2501,-1.24,-1.2311,-1.2291,-1.2379,-1.2298,-1.1884,0.0,-1.1918,-1.1619,-1.1592,-1.1579,-1.1558,-1.1579,-1.1708,-1.1986,-1.2115,-1.2182,-1.2461,-1.2488,-1.2494,-1.2474,-1.2474,-1.2474,-1.2474,0.0,0.0,0.0,0.0,0.0,0.0,0.0,0.0,0.0,-1.2556,-1.2406,-1.225,-1.2115,-1.1789,-1.1375,-1.1219,-1.0975,-1.0717,-1.0717,-1.0717,-1.0717,-1.0717,-1.0717,-1.0717,-1.0717,-1.0717,-1.0717,-1.0717,-1.0717,-1.0717,-1.0717,-1.0717,-1.0717,-1.0717,-1.0819,-1.0948,-1.1077,-1.1226,-1.1375,-1.1531,-1.1782,-1.204,-1.225,0.0,0.0,0.0,0.0,-2.3896,-2.6162,-2.6466,-2.636,-2.6043,-2.4123,0.0,-2.574,-2.5438,-2.5106,-2.5211,0.0,0.0,0.0,0.0,0.0,-1.3916,-1.3878,-1.3878,-1.3838,-1.3437,-1.3064,-1.2725,-1.2318,-1.202,-1.183,-1.1701,-1.164,-1.1619,-1.1619,-1.1619,-1.1619,-1.1619,-1.1619,-1.1619,-1.1619,-1.1708,-1.185,-1.2006,-1.2074,-1.2115,-1.2237,-1.2406,-1.2501,-1.2501,-1.2481,-1.2427,-1.2311,-1.2203,-1.2067,-1.1857,-1.1857,-1.1762,-1.1463,-1.143,-1.1382,-1.1253,-1.1355,0.0,0.0,0.0,-1.2142,-1.2318,-1.244,-1.2447,-1.2332,-1.2325,-1.2325,-1.2325,0.0,0.0,0.0,0.0,0.0,0.0,0.0,0.0,-1.2542,-1.2515,0.0,-1.2101,-1.2149,-1.1789,-1.1375,-1.1219,-1.0975,-1.0717,-1.0717,-1.0717,-1.0717,-1.0717,-1.0717,-1.0717,-1.0717,-1.0717,-1.0717,-1.0717,-1.0717,-1.0717,-1.0717,-1.0717,-1.0717,-1.0717,-1.0738,-1.0765,-1.0792,-1.0914,-1.107,-1.1212,-1.1382,-1.1667,-1.2196,0.0,0.0,0.0,0.0,-2.4017,-2.6798,-2.6907,-2.6092,-2.428,-2.3746,-2.3407,-2.3344,-2.3033,-2.3699,0.0,0.0,0.0,0.0,0.0,0.0,0.0,-1.4089,0.0,0.0,0.0,-1.3275,-1.2725,-1.2522,-1.2216,-1.183,-1.1803,-1.1728,-1.1619,-1.1619,-1.1619,-1.1619,-1.1619,-1.1619,-1.1619,-1.1619,-1.1708,-1.185,-1.2006,-1.2142,-1.2271,-1.2142,0.0,-1.2366,-1.2284,0.0,0.0,0.0,-1.1925,-1.183,-1.183,-1.183,-1.1721,-1.1423,-1.1389,-1.1328,-1.1179,-1.1226,-1.1341,-1.1491,-1.1708,-1.1932,-1.2162,-1.2237,-1.2311,-1.24,-1.2325,-1.2325,-1.24,0.0,0.0,0.0,0.0,0.0,0.0,0.0,-1.2596,0.0,0.0,0.0,-1.1945,-1.1945,-1.1674,-1.1267,-1.1192,-1.0975,-1.0717,-1.0717,-1.0717,-1.0717,-1.0717,-1.0717,-1.0717,-1.0717,-1.0717,-1.0717,-1.0717,-1.0717,-1.0717,-1.0717,-1.0717,-1.0717,-1.0717,-1.0778,-1.0772,-1.0772,-1.0826,-1.09,-1.1036,-1.1233,-1.1599,-1.2277,-1.3481,0.0,-1.9254,-2.0793,-2.2867,-2.6556,-2.7041,-2.6164,-2.3877,-2.2619,-2.2148,-2.2828,0.0,0.0,0.0,0.0,0.0,0.0,0.0,0.0,0.0,0.0,0.0,-1.396,0.0,-1.3322,-1.2956,-1.2651,-1.2305,-1.1945,-1.187,-1.1796,-1.1728,-1.1728,-1.1728,-1.1721,-1.1647,-1.1708,-1.1843,-1.1762,-1.187,-1.2081,-1.2155,-1.2271,-1.2413,-1.2054,-1.2155,0.0,0.0,-1.204,-1.2013,-1.1857,-1.1708,-1.1647,-1.1728,-1.1735,-1.1626,-1.1328,-1.1294,-1.1233,-1.1084,-1.1097,-1.1172,-1.1287,-1.1497,-1.1721,-1.1959,-1.2026,-1.2182,-1.2447,-1.2318,-1.2311,0.0,0.0,0.0,0.0,0.0,0.0,0.0,0.0,0.0,0.0,0.0,-1.1959,-1.1789,-1.1816,-1.1558,-1.1234,-1.1234,-1.0975,-1.0717,-1.0717,-1.0717,-1.0717,-1.0717,-1.0717,-1.0717,-1.0717,-1.0717,-1.0717,-1.0717,-1.0717,-1.0717,-1.0717,-1.0717,-1.0717,-1.0717,-1.0812,-1.0833,-1.0833,-1.0833,-1.0833,-1.0833,-1.1158,-1.1599,-1.2284,-1.2461,0.0,0.0,0.0,-2.1529,-2.5698,-2.6444,-2.5678,-2.3306,-2.1002,-2.0139,-2.1545,0.0,0.0,0.0,0.0,0.0,-2.0079,0.0,0.0,0.0,0.0,-1.4055,-1.4021,0.0,-1.339,-1.3166,-1.2779,-1.2427,-1.2108,-1.1986,-1.1911,-1.1877,-1.1877,-1.1877,-1.187,-1.1762,-1.185,-1.2047,-1.1925,-1.2047,-1.2291,-1.2291,-1.24,-1.2549,0.0,0.0,0.0,0.0,0.0,-1.2013,-1.1857,-1.1708,-1.1572,-1.145,-1.143,-1.1321,-1.0954,-1.0921,-1.086,-1.0772,-1.0887,-1.0907,-1.0921,-1.1382,-1.1633,-1.166,-1.1918,-1.2142,-1.2305,-1.2162,-1.2155,0.0,0.0,-1.2318,0.0,0.0,0.0,0.0,0.0,0.0,0.0,-1.2142,-1.1898,-1.1653,-1.1782,-1.1558,-1.1234,-1.1234,-1.0975,-1.0717,-1.0717,-1.0717,-1.0717,-1.0717,-1.0717,-1.0717,-1.0717,-1.0717,-1.0717,-1.0717,-1.0717,-1.0717,-1.0717,-1.0717,-1.0717,-1.0717,-1.0731,-1.0744,-1.0744,-1.0744,-1.0744,-1.0744,-1.109,-1.1538,-1.2013,-1.2325,-1.3445,0.0,0.0,0.0,-2.4045,-2.4387,-2.3478,-2.1295,-1.8856,-1.7347,-1.7229,-1.7295,0.0,0.0,-2.2338,0.0,0.0,0.0,0.0,-1.3732,0.0,-1.4007,-1.3865,-1.3824,-1.3587,-1.3173,-1.2996,-1.2691,-1.2271,-1.225,-1.2176,-1.204,-1.204,-1.204,-1.204,-1.2026,-1.204,-1.2135,-1.2047,-1.2142,-1.2291,-1.2291,-1.2467,-1.2691,0.0,0.0,0.0,0.0,0.0,0.0,0.0,-1.1382,-1.1294,-1.1145,-1.1199,-1.1179,-1.09,-1.088,-1.082,-1.0731,-1.0778,-1.0812,-1.0812,-1.0995,-1.1294,-1.1477,-1.1592,-1.1816,-1.2149,-1.2006,-1.1999,0.0,0.0,0.0,0.0,0.0,0.0,0.0,0.0,-1.1979,-1.1918,-1.183,-1.1728,-1.1626,-1.1681,-1.1484,-1.1234,-1.1234,-1.0975,-1.0717,-1.0717,-1.0717,-1.0717,-1.0717,-1.0717,-1.0717,-1.0717,-1.0717,-1.0717,-1.0717,-1.0717,-1.0717,-1.0717,-1.0717,-1.0717,-1.0717,-1.0717,-1.0717,-1.0717,-1.0717,-1.0717,-1.0717,-1.1002,-1.1389,-1.1843,-1.2094,-1.3151,-1.5847,0.0,0.0,0.0,0.0,-2.1181,-1.8885,-1.7719,-1.6933,-1.6664,-1.6715,0.0,0.0,0.0,0.0,0.0,0.0,0.0,-1.3712,0.0,-1.3905,-1.3838,-1.3756,-1.3532,-1.3173,-1.303,-1.2725,-1.2291,-1.2291,-1.2257,-1.2196,-1.2196,-1.2244,-1.2311,-1.2135,-1.2169,-1.2318,-1.223,-1.2345,-1.2556,-1.2556,-1.2691,-1.2861,-1.1463,0.0,-1.1416,0.0,-1.1253,-1.1274,-1.1124,-1.1097,-1.1063,-1.0894,-1.0995,-1.0995,-1.0894,-1.0813,-1.0772,-1.0731,-1.0717,-1.0717,-1.0717,-1.0799,-1.1043,-1.1253,-1.1301,0.0,-1.1925,-1.1823,-1.1864,-1.2135,-1.2169,0.0,0.0,0.0,0.0,0.0,-1.1945,-1.183,-1.1823,-1.1681,-1.1619,-1.1619,-1.1619,-1.1436,-1.1234,-1.1234,-1.0975,-1.0717,-1.0717,-1.0717,-1.0717,-1.0717,-1.0717,-1.0717,-1.0717,-1.0717,-1.0717,-1.0717,-1.0717,-1.0717,-1.0717,-1.0717,-1.0717,-1.0717,-1.0717,-1.0717,-1.0717,-1.0717,-1.0744,-1.0833,-1.1016,-1.1301,-1.1748,-1.1959,-1.2738,-1.4766,0.0,0.0,0.0,-1.9537,0.0,-1.7268,-1.6468,-1.5897,-1.5687,-1.5671,0.0,0.0,0.0,0.0,0.0,0.0,0.0,0.0,0.0,0.0,-1.3838,-1.3702,-1.3478,-1.3173,-1.2983,-1.2705,-1.2352,-1.2352,-1.2352,-1.2352,-1.2352,-1.2413,-1.2488,-1.2277,-1.2311,-1.2494,-1.244,-1.2549,-1.2732,-1.2779,-1.2895,-1.3017,-1.1558,-1.1375,-1.1165,-1.1234,-1.1234,-1.1118,-1.0907,-1.088,-1.088,-1.088,-1.0819,-1.0724,-1.0724,-1.0724,-1.0724,-1.0717,-1.0717,-1.0717,-1.0717,-1.0799,-1.088,0.0,0.0,-1.1307,-1.1619,-1.1619,-1.1769,-1.2135,0.0,0.0,-1.2067,0.0,-1.2067,-1.206,-1.1898,-1.183,-1.1823,-1.1681,-1.1619,-1.1619,-1.1619,-1.1436,-1.1234,-1.1234,-1.0975,-1.0717,-1.0717,-1.0717,-1.0717,-1.0717,-1.0717,-1.0717,-1.0717,-1.0717,-1.0717,-1.0717,-1.0717,-1.0717,-1.0717,-1.0717,-1.0717,-1.0717,-1.0717,-1.0717,-1.0717,-1.0717,-1.0806,-1.1097,-1.1227,-1.1301,-1.1748,-1.1959,-1.2115,-1.2347,0.0,0.0,0.0,-1.6944,0.0,-1.7093,-1.4969,-1.3403,-1.3403,-1.3403,0.0,0.0,0.0,0.0,0.0,0.0,0.0,-1.3627,-1.3919,0.0,-1.3844,-1.3702,-1.3478,-1.3166,-1.2874,-1.2651,-1.2501,-1.2501,-1.2501,-1.2501,-1.2501,-1.2501,-1.2501,-1.2501,-1.2501,-1.2515,-1.2664,-1.2725,-1.2745,-1.2901,-1.3051,-1.3152,-1.1165,-1.1084,-1.0982,-1.088,-1.086,-1.0846,-1.0799,-1.0792,-1.0792,-1.0792,-1.0751,-1.0717,-1.0717,-1.0717,-1.0717,0.0,-1.0717,-1.0717,0.0,-1.0765,-1.0772,-1.0873,-1.0995,-1.1111,-1.1301,-1.1409,-1.1511,-1.1606,0.0,0.0,0.0,-1.1952,-1.1904,-1.1898,-1.1748,-1.1687,-1.1687,-1.164,-1.1619,-1.1619,-1.1619,-1.1436,-1.1234,-1.1234,-1.0975,-1.0717,-1.0717,-1.0717,-1.0717,-1.0717,-1.0717,-1.0717,-1.0717,-1.0717,-1.0717,-1.0717,-1.0717,-1.0717,-1.0717,-1.0717,-1.0717,-1.0717,-1.0717,-1.0717,-1.0717,-1.0717,-1.0744,-1.0839,-1.1023,-1.124,-1.1484,-1.1823,-1.2142,-1.2393,-1.3297,0.0,-1.4121,0.0,-1.4452,-1.4452,-1.3851,-1.3403,-1.3403,-1.3403,0.0,0.0,0.0,0.0,0.0,0.0,0.0,0.0,-1.377,0.0,-1.3539,-1.339,-1.3166,-1.2868,-1.2773,-1.2651,-1.2501,-1.2501,-1.2501,-1.2501,-1.2501,-1.2501,-1.2501,-1.2501,-1.2562,-1.2664,-1.2712,-1.2854,-1.3037,-1.3085,-1.32,-1.3322,-1.0887,-1.088,-1.0853,-1.0819,-1.0806,-1.0785,-1.0731,-1.0717,-1.0717,-1.0717,-1.0772,-1.0785,-1.0724,-1.0772,0.0,-1.0724,-1.0717,-1.0717,-1.0717,-1.0717,-1.0765,-1.0793,-1.0793,-1.0934,-1.1077,-1.1226,0.0,-1.1477,-1.1714,-1.185,-1.1891,-1.1796,-1.1748,-1.1748,-1.166,-1.1619,-1.1619,-1.1619,-1.1619,-1.1613,-1.1558,-1.1382,-1.1158,-1.1104,-1.0934,-1.0717,-1.0717,-1.0717,-1.0717,-1.0717,-1.0717,-1.0731,-1.0785,-1.0806,-1.0792,-1.0738,-1.0717,-1.0731,-1.0792,-1.0765,-1.0731,-1.0792,-1.0765,-1.0717,-1.0717,-1.0765,-1.0806,-1.0806,-1.1043,-1.1274,-1.1375,-1.1755,-1.2121,-1.2305,-1.2556,-1.2766,-1.2861,0.0,-1.3112,0.0,0.0,-1.3363,0.0,-1.3437,-1.3424,0.0,0.0,0.0,0.0,0.0,-1.3749,-1.3838,-1.381,-1.3668,-1.3403,-1.3247,-1.3024,-1.2732,-1.2671,-1.2596,-1.2501,-1.2501,-1.2501,-1.2501,-1.2501,-1.2501,-1.2501,-1.2501,-1.2589,-1.2732,-1.2793,-1.2963,-1.318,-1.3241,-1.3315,-1.3403,-1.0867,-1.0887,-1.0887,0.0,-1.0894,-1.0847,-1.0772,-1.0744,-1.0738,-1.0751,-1.0799,-1.0826,-1.0751,-1.086,-1.082,-1.0731,0.0,0.0,-1.0717,-1.0717,-1.0717,-1.0717,-1.0717,-1.0785,-1.086,-1.1084,-1.1314,-1.1619,-1.1748,-1.1748,-1.1619,-1.1619,-1.1619,-1.1619,-1.1619,-1.1619,-1.1619,-1.1619,-1.1619,-1.1606,-1.1463,-1.1307,-1.1151,-1.1016,-1.086,-1.0724,-1.0731,-1.0738,-1.0738,-1.0744,-1.0751,-1.0778,-1.0853,-1.0894,-1.0867,-1.0778,-1.0738,-1.0765,-1.0833,-1.0826,-1.0751,-1.0833,-1.0759,-1.0717,-1.0717,-1.0833,-1.0867,-1.0867,-1.1165,-1.1375,-1.1375,-1.1748,-1.2135,-1.2135,-1.2427,-1.2712,-1.2712,-1.2847,-1.2996,0.0,0.0,0.0,-1.36,-1.3498,-1.3478,0.0,0.0,0.0,0.0,0.0,-1.3838,-1.3858,-1.3987,-1.3838,-1.339,-1.3234,-1.301,-1.2712,-1.2583,-1.2515,-1.2501,-1.2522,-1.2528,-1.2515,-1.2528,-1.2535,-1.2535,-1.2535,-1.2623,-1.2773,-1.2922,-1.3064,-1.3207,-1.3349,-1.341,-1.3417,0.0,0.0,-1.0982,-1.109,-1.1111,-1.1097,-1.1063,-1.0968,-1.0934,-1.1043,-1.0995,-1.0867,-1.0833,-1.086,-1.082,-1.0731,-1.0717,-1.0717,-1.0717,-1.0717,-1.0717,-1.0717,-1.0717,-1.0738,-1.0772,-1.1029,-1.1314,-1.1619,-1.1653,-1.1653,-1.1619,-1.1619,-1.1619,-1.1619,-1.1619,-1.1619,-1.1619,-1.1619,-1.1619,-1.1613,-1.1579,-1.1402,-1.1158,-1.1124,-1.0948,-1.0738,-1.0853,-1.0826,-1.0914,-1.1023,-1.1056,-1.1063,-1.1097,-1.1111,-1.1084,-1.0934,-1.0826,-1.0806,-1.0799,-1.0751,-1.0731,-1.0765,-1.0744,-1.0717,-1.0717,-1.0751,-1.0772,-1.0772,-1.1009,-1.1219,-1.1219,-1.1681,-1.2135,-1.2135,-1.2338,-1.2556,-1.2556,-1.2691,-1.284,0.0,-1.3105,-1.3295,-1.36,-1.3593,-1.3593,0.0,0.0,0.0,-1.3675,-1.3682,-1.3783,-1.4007,-1.3939,-1.3682,-1.3227,-1.3085,-1.2861,-1.2556,-1.2637,-1.2617,-1.2508,-1.2745,-1.2786,-1.2684,-1.28,-1.2854,-1.2854,-1.2854,-1.2935,-1.3071,-1.3112,-1.3214,-1.3349,-1.339,-1.3471,-1.3573,-1.1145,-1.1158,-1.1151,-1.1158,-1.1219,-1.1246,-1.1241,-1.1097,-1.1077,-1.122,-1.1158,-1.1124,-1.1056,-1.1111,-1.1063,-1.0846,-1.0759,-1.0799,-1.0724,-1.0785,-1.0725,-1.0724,-1.0717,-1.0717,-1.0717,-1.1009,-1.1314,-1.1619,-1.1619,-1.1619,-1.1619,-1.1619,-1.1619,-1.1619,-1.1619,-1.1619,-1.1619,-1.1619,-1.1619,-1.1613,-1.1545,-1.1375,-1.1158,-1.109,-1.0921,-1.0731,-1.0745,-1.082,-1.0894,-1.1036,-1.1111,-1.1234,-1.1234,-1.1212,-1.1226,-1.1009,-1.088,-1.086,-1.0779,-1.0772,-1.0717,-1.0717,-1.0772,-1.0759,-1.0759,-1.0873,-1.0907,-1.0839,-1.1063,-1.1246,-1.1241,-1.1599,-1.1979,-1.2128,-1.2257,-1.2427,-1.2494,-1.2576,-1.2712,-1.2935,-1.303,-1.322,-1.3593,-1.3566,-1.3553,-1.3627,-1.3566,0.0,-1.3627,-1.3627,-1.3702,-1.3865,-1.379,-1.3532,-1.3078,-1.2861,-1.2705,-1.261,-1.2691,-1.2725,-1.2718,-1.2888,-1.2915,-1.284,-1.2922,-1.2963,-1.2963,-1.2963,-1.3044,-1.3173,-1.3173,-1.3268,-1.341,-1.3478,-1.3559,-1.3641,-1.1226,-1.1335,-1.1389,-1.128,-1.1369,-1.1416,-1.1287,-1.1226,-1.1275,-1.1226,-1.1321,-1.1341,-1.1212,-1.1314,-1.128,-1.0934,-1.0934,-1.0934,-1.0731,-1.0839,-1.0786,-1.0724,-1.0744,-1.0758,-1.0758,-1.1043,-1.1335,-1.1619,-1.1619,-1.1619,-1.1619,-1.1619,-1.1619,-1.1619,-1.1619,-1.1619,-1.1619,-1.1619,-1.1619,-1.1606,-1.1477,-1.1335,-1.1185,-1.1063,-1.0921,-1.0792,-1.0812,-1.0907,-1.0954,-1.0975,-1.1131,-1.1226,-1.1275,-1.1301,-1.1362,-1.0975,-1.0914,-1.0934,-1.0894,-1.0786,-1.0758,-1.0758,-1.0853,-1.088,-1.088,-1.1043,-1.1104,-1.1002,-1.1179,-1.1321,-1.1219,-1.1545,-1.1884,-1.204,-1.2169,-1.2311,-1.2481,0.0,-1.2589,-1.2922,-1.2963,-1.3139,-1.3587,-1.3512,-1.3492,-1.362,-1.3505,-1.3471,-1.3553,-1.358,-1.3573,-1.3532,-1.3573,-1.3376,-1.2929,-1.2664,-1.2603,-1.2732,-1.2773,-1.2854,-1.2963,-1.301,-1.3017,-1.2996,-1.3017,-1.303,-1.303,-1.303,-1.3112,-1.3241,-1.3241,-1.3336,-1.3485,-1.3614,-1.3675,-1.3715,-1.1525,-1.1565,-1.1613,-1.1708,-1.1748,-1.1755,-1.1728,-1.1518,-1.1402,-1.1531,-1.1457,-1.1382,-1.1355,-1.1375,-1.1321,-1.1145,-1.1246,-1.1151,-1.0744,-1.0744,-1.0744,-1.0724,-1.0779,-1.0847,-1.0847,-1.1206,-1.1443,-1.1619,-1.1619,-1.1619,-1.1619,-1.1619,-1.1619,-1.1619,-1.1619,-1.1619,-1.1619,-1.1619,-1.1619,-1.1619,-1.1592,-1.1491,-1.1355,-1.1328,-1.1226,-1.1111,-1.124,-1.1301,-1.1341,-1.147,-1.1531,-1.1525,-1.1396,-1.1463,-1.1497,-1.1008,-1.1124,-1.1267,-1.0948,-1.086,-1.0847,-1.0847,-1.086,-1.088,-1.088,-1.09,-1.1009,-1.1111,-1.1165,-1.1233,-1.1335,-1.1619,-1.1884,-1.204,-1.2155,-1.2189,-1.2461,0.0,-1.2481,-1.2908,-1.2963,-1.3139,-1.3587,-1.3607,-1.36,-1.3627,-1.3607,-1.3492,-1.3254,-1.3363,-1.3322,-1.3071,-1.3308,-1.322,-1.2773,-1.2718,-1.2705,-1.2732,-1.2983,-1.3057,-1.2969,-1.322,-1.3261,-1.3146,-1.3275,-1.3336,-1.3336,-1.3336,-1.3424,-1.3559,-1.3559,-1.3648,-1.3777,-1.3797,-1.3892,-1.4007,-1.1843,-1.1857,-1.1877,-1.1945,-1.1952,-1.1925,-1.1843,-1.1714,-1.1626,-1.1619,-1.1558,-1.1511,-1.1511,-1.1511,-1.145,-1.1301,-1.1348,-1.1267,-1.0975,-1.0962,-1.0921,-1.0779,-1.0847,-1.0954,-1.1185,-1.1321,-1.1463,-1.1619,-1.1619,-1.1619,-1.1619,-1.1619,-1.1619,-1.1619,-1.1619,-1.1619,-1.1619,-1.1619,-1.1619,-1.1619,-1.1619,-1.1531,-1.1389,-1.1389,-1.1294,-1.1241,-1.1246,-1.1321,-1.1402,-1.147,-1.1552,-1.1579,-1.1341,-1.143,-1.1531,-1.1015,-1.0975,-1.1138,-1.1077,-1.1063,-1.1063,-1.1063,-1.1124,-1.1185,-1.1185,-1.1185,-1.1206,-1.1274,-1.1287,-1.1307,-1.1382,-1.1633,-1.1857,-1.1925,-1.2006,0.0,-1.2244,-1.2277,-1.24,-1.2678,-1.2786,-1.2949,-1.3241,-1.3342,-1.3349,-1.3275,-1.3417,-1.341,-1.3186,-1.3241,-1.3214,-1.3078,-1.3051,-1.2942,-1.2732,-1.2732,-1.2773,-1.2854,-1.3071,-1.318,-1.32,-1.3342,-1.3363,-1.3302,-1.337,-1.3451,-1.3526,-1.3526,-1.3607,-1.3743,-1.3743,-1.3783,-1.3851,-1.3933,-1.4007,-1.4082,-1.2135,-1.2162,-1.2115,-1.2115,-1.2115,-1.2074,-1.1959,-1.1904,-1.1843,-1.1735,-1.1721,-1.1721,-1.1721,-1.1721,-1.166,-1.1504,-1.1491,-1.143,-1.128,-1.1233,-1.1151,-1.1002,-1.1029,-1.1172,-1.1436,-1.1443,-1.1504,-1.1619,-1.1619,-1.1619,-1.1619,-1.1619,-1.1619,-1.1619,-1.1619,-1.1619,-1.1619,-1.1619,-1.1619,-1.1619,-1.1619,-1.1531,-1.1396,-1.143,-1.1348,-1.1219,-1.1253,-1.1341,-1.1443,-1.1443,-1.1525,-1.1572,-1.1301,-1.1402,-1.1538,-1.1118,-1.1023,-1.1077,-1.1185,-1.1212,-1.1212,-1.1212,-1.1307,-1.1389,-1.1389,-1.1389,-1.1402,-1.1436,-1.1416,-1.1409,-1.1484,-1.1681,-1.1857,-1.1925,0.0,-1.2088,-1.2155,-1.2237,-1.2352,-1.2535,-1.2657,-1.2793,-1.2949,-1.3091,-1.3112,-1.2969,-1.32,-1.3268,-1.3078,-1.3105,-1.3105,-1.3071,-1.2847,-1.2732,-1.2732,-1.2766,-1.2861,-1.301,-1.3159,-1.3288,-1.3403,-1.3403,-1.3403,-1.3403,-1.3403,-1.3464,-1.358,-1.3614,-1.3709,-1.3759,-1.3878,-1.3919,-1.396,-1.4082,-1.4122,-1.4143,-1.2135,-1.2176,-1.2271,-1.2271,-1.2271,-1.2271,-1.2257,-1.2135,-1.204,-1.2033,-1.2033,-1.2033,-1.2033,-1.2033,-1.1965,-1.1809,-1.1796,-1.1735,-1.1592,-1.145,-1.1307,-1.1151,-1.128,-1.1436,-1.1599,-1.1599,-1.1606,-1.1619,-1.1619,-1.1619,-1.1619,-1.1619,-1.1619,-1.1619,-1.1619,-1.1619,-1.1619,-1.1619,-1.1619,-1.1619,-1.1619,-1.1531,-1.1409,-1.1552,-1.1504,-1.1396,-1.1538,-1.1592,-1.1599,-1.1599,-1.1613,-1.1592,-1.1423,-1.1491,-1.1558,-1.124,-1.1246,-1.1362,-1.1369,-1.1375,-1.1375,-1.1375,-1.1382,-1.1389,-1.1389,-1.1389,-1.143,-1.1572,-1.1491,-1.1477,-1.1748,-1.1816,-1.1925,-1.221,0.0,0.0,-1.2433,-1.2366,-1.2393,-1.2678,-1.2725,-1.2793,-1.2949,-1.3091,-1.3112,-1.2969,-1.3105,-1.3064,-1.2779,-1.2901,-1.2908,-1.2766,-1.2739,-1.2732,-1.2732,-1.2874,-1.3017,-1.3159,-1.3308,-1.339,-1.3403,-1.3403,-1.3403,-1.3403,-1.3403,-1.341,-1.3431,-1.3573,-1.3709,-1.3858,-1.4,-1.4143,-1.4265,-1.4278,-1.4285,-1.4285,-1.2352,-1.2461,-1.2535,-1.244,-1.242,-1.2393,-1.2305,-1.2244,-1.2169,-1.2074,-1.2135,-1.2135,-1.2135,-1.2135,-1.204,-1.1979,-1.1972,-1.1952,-1.1898,-1.1837,-1.1653,-1.1321,-1.1362,-1.1463,-1.1613,-1.1619,-1.1619,-1.1619,-1.1619,-1.1619,-1.1619,-1.1619,-1.1619,-1.1619,-1.1619,-1.1619,-1.1619,-1.1619,-1.1619,-1.1619,-1.1619,-1.1586,-1.1538,-1.1599,-1.1586,-1.1538,-1.1599,-1.1674,-1.1735,-1.1647,-1.1681,-1.1708,-1.1463,-1.1497,-1.1613,-1.1586,-1.1619,-1.1667,-1.1667,-1.1599,-1.1531,-1.1531,-1.1531,-1.1531,-1.1531,-1.1531,-1.1552,-1.1606,-1.1572,-1.1565,-1.1681,-1.1769,-1.187,-1.1986,0.0,-1.2176,-1.2216,-1.2264,-1.2332,-1.244,-1.2535,-1.261,-1.2671,-1.2813,-1.2834,-1.2684,-1.2901,-1.2949,-1.2739,-1.2786,-1.2745,-1.2589,-1.2589,-1.263,-1.2725,-1.2881,-1.303,-1.3173,-1.3329,-1.3403,-1.3403,-1.3403,-1.3403,-1.3403,-1.3498,-1.3546,-1.3559,-1.3804,-1.3933,-1.4,-1.4156,-1.4251,-1.4299,-1.4299,-1.4299,-1.4299,-1.2528,-1.2623,-1.2684,-1.2528,-1.2501,-1.2467,-1.2372,-1.2359,-1.2318,-1.2216,-1.2203,-1.2203,-1.2203,-1.2203,-1.2182,-1.2135,-1.2135,-1.2115,-1.2067,-1.2135,-1.1904,-1.1545,-1.1484,-1.1511,-1.1619,-1.166,-1.166,-1.1619,-1.166,-1.166,-1.1619,-1.1619,-1.1619,-1.1619,-1.1619,-1.1619,-1.1619,-1.1619,-1.1619,-1.1619,-1.1619,-1.1592,-1.1552,-1.1599,-1.1619,-1.1626,-1.1674,-1.1782,-1.1891,-1.1789,-1.1823,-1.187,-1.1667,-1.1674,-1.1775,-1.1877,-1.1904,-1.1904,-1.1904,-1.1796,-1.1674,-1.1633,-1.1653,-1.1687,-1.1687,-1.1687,-1.1687,-1.1687,-1.1653,-1.1633,-1.1681,-1.1803,-1.1918,-1.1965,-1.2101,-1.2203,-1.2203,-1.2291,-1.2359,-1.2359,-1.244,-1.2501,-1.2501,-1.2637,-1.2684,-1.2583,-1.2773,-1.282,-1.2664,-1.2657,-1.261,-1.2508,-1.2549,-1.2651,-1.28,-1.2908,-1.3057,-1.3247,-1.3349,-1.3403,-1.3403,-1.3403,-1.3424,-1.3478,-1.3587,-1.3654,-1.3715,-1.3966,-1.4075,-1.4089,-1.4238,-1.4299,-1.4299,-1.4299,-1.4299,-1.4299,-1.2535,-1.263,-1.2684,-1.2528,-1.2508,-1.2508,-1.2508,-1.2508,-1.2508,-1.2501,-1.2501,-1.2501,-1.2501,-1.2501,-1.2447,-1.2305,-1.2291,-1.223,-1.2074,-1.206,-1.1993,-1.1843,-1.1701,-1.1619,-1.1619,-1.1762,-1.1762,-1.1619,-1.1762,-1.1762,-1.1619,-1.1619,-1.1619,-1.1619,-1.1619,-1.1619,-1.1619,-1.1619,-1.1619,-1.1619,-1.1619,-1.1531,-1.1409,-1.1565,-1.1619,-1.164,-1.1782,-1.1932,-1.206,-1.2135,-1.2135,-1.206,-1.2135,-1.2135,-1.206,-1.206,-1.206,-1.206,-1.206,-1.1952,-1.1796,-1.1653,-1.1728,-1.183,-1.183,-1.183,-1.183,-1.183,-1.1721,-1.1667,-1.1809,-1.1959,-1.2115,-1.2264,-1.2406,-1.2501,-1.2501,-1.2501,-1.2501,-1.2501,-1.2501,-1.2501,-1.2501,-1.2637,-1.2732,-1.2732,-1.2732,-1.2664,-1.2515,-1.2501,-1.2501,-1.2501,-1.2651,-1.2807,-1.2963,-1.2963,-1.3112,-1.3403,-1.3403,-1.3403,-1.3403,-1.3403,-1.3485,-1.3627,-1.3634,-1.3709,-1.3851,-1.4007,-1.4075,-1.4089,-1.4238,-1.4299,-1.4299,-1.4299,-1.4299,-1.4299,-1.2854,-1.2942,-1.2996,-1.2847,-1.282,-1.282,-1.282,-1.282,-1.2786,-1.2678,-1.2664,-1.2623,-1.2515,-1.2501,-1.2481,-1.244,-1.244,-1.242,-1.2372,-1.2277,-1.2203,-1.2155,-1.2013,-1.1932,-1.1932,-1.1972,-1.1972,-1.1932,-1.1972,-1.1972,-1.1925,-1.1816,-1.1769,-1.1762,-1.166,-1.1674,-1.1769,-1.1769,-1.183,-1.1932,-1.1932,-1.1837,-1.1714,-1.187,-1.1864,-1.1789,-1.1938,-1.2094,-1.2203,-1.2101,-1.2135,-1.2203,-1.2094,-1.2135,-1.2223,-1.2223,-1.2223,-1.2223,-1.2223,-1.2108,-1.1959,-1.1803,-1.1796,-1.1803,-1.1708,-1.1843,-1.1965,-1.1857,-1.1884,-1.1945,-1.1986,-1.2033,-1.2115,-1.2264,-1.2325,-1.2386,-1.2488,-1.2501,-1.2501,-1.2501,-1.2501,-1.2501,-1.2501,-1.2637,-1.2732,-1.2732,-1.2732,-1.2712,-1.2664,-1.2562,-1.2549,-1.2657,-1.2705,-1.2854,-1.3105,-1.3112,-1.3207,-1.3403,-1.3403,-1.3403,-1.3403,-1.3512,-1.3587,-1.3641,-1.3851,-1.3899,-1.3865,-1.4122,-1.417,-1.4089,-1.4238,-1.4299,-1.4299,-1.4299,-1.4299,-1.4299,-1.307,-1.3078,-1.3125,-1.2983,-1.2963,-1.2963,-1.2963,-1.2963,-1.2929,-1.2834,-1.282,-1.2786,-1.2691,-1.2684,-1.2684,-1.2684,-1.263,-1.2569,-1.2508,-1.242,-1.2372,-1.2372,-1.2284,-1.2182,-1.206,-1.2121,-1.2121,-1.2135,-1.2121,-1.2121,-1.2135,-1.1965,-1.1925,-1.1918,-1.1837,-1.1843,-1.1925,-1.1925,-1.1979,-1.2135,-1.2135,-1.2006,-1.1932,-1.2026,-1.204,-1.2026,-1.2121,-1.225,-1.2359,-1.2271,-1.2298,-1.2359,-1.2264,-1.2298,-1.2372,-1.2372,-1.2372,-1.2372,-1.2372,-1.2264,-1.2128,-1.2033,-1.2013,-1.1993,-1.1904,-1.2026,-1.2121,-1.2033,-1.204,-1.2135,-1.2135,-1.2108,-1.2182,-1.2277,-1.2338,-1.2406,-1.2488,-1.2501,-1.2501,-1.2501,-1.2501,-1.2501,-1.2501,-1.2583,-1.2664,-1.2725,-1.2786,-1.2793,-1.2732,-1.2583,-1.2569,-1.2725,-1.2786,-1.2935,-1.3173,-1.3234,-1.3308,-1.3403,-1.3403,-1.3431,-1.3492,-1.3587,-1.3695,-1.3817,-1.3994,-1.4055,-1.4034,-1.4224,-1.4245,-1.417,-1.4265,-1.4299,-1.4299,-1.4299,-1.4299,-1.4299,-1.3024,-1.3105,-1.3152,-1.3024,-1.3003,-1.3003,-1.3003,-1.3003,-1.2996,-1.2983,-1.2983,-1.2976,-1.2963,-1.2963,-1.2963,-1.2963,-1.2834,-1.2691,-1.2549,-1.2542,-1.2542,-1.2542,-1.2542,-1.242,-1.2224,-1.2264,-1.2257,-1.2176,-1.2257,-1.225,-1.2176,-1.2088,-1.2081,-1.2155,-1.2142,-1.2142,-1.2081,-1.2081,-1.2088,-1.2176,-1.2176,-1.2094,-1.2088,-1.2108,-1.2196,-1.2311,-1.2325,-1.2413,-1.2522,-1.2508,-1.2501,-1.2501,-1.2501,-1.2501,-1.2501,-1.2501,-1.2501,-1.2501,-1.2501,-1.2406,-1.2311,-1.2311,-1.2311,-1.2305,-1.2277,-1.2291,-1.2305,-1.2291,-1.2189,-1.2176,-1.2176,-1.2216,-1.2311,-1.2311,-1.242,-1.2501,-1.2501,-1.2501,-1.2501,-1.2501,-1.2501,-1.2501,-1.2501,-1.2528,-1.261,-1.2779,-1.2908,-1.2915,-1.2779,-1.2623,-1.261,-1.2766,-1.2908,-1.3051,-1.3193,-1.3342,-1.3417,-1.3403,-1.3417,-1.3492,-1.3634,-1.3654,-1.3817,-1.4075,-1.4089,-1.417,-1.4299,-1.4299,-1.4299,-1.4299,-1.4299,-1.4299,-1.4299,-1.4299,-1.4299,-1.4299,-1.3308,-1.3329,-1.3342,-1.3308,-1.3308,-1.3308,-1.3308,-1.3308,-1.3261,-1.3146,-1.3125,-1.3085,-1.2976,-1.2963,-1.2963,-1.2963,-1.2929,-1.2895,-1.2861,-1.2861,-1.2861,-1.2861,-1.2861,-1.2834,-1.2845,-1.2678,-1.2562,-1.2406,-1.2562,-1.2556,-1.2406,-1.2291,-1.2244,-1.2237,-1.2115,-1.2128,-1.2244,-1.2244,-1.2305,-1.2406,-1.2406,-1.2338,-1.2264,-1.2494,-1.2528,-1.2474,-1.2589,-1.2657,-1.2664,-1.2542,-1.2501,-1.2501,-1.2501,-1.2501,-1.2501,-1.2501,-1.2501,-1.2501,-1.2501,-1.2481,-1.2454,-1.2454,-1.2454,-1.2393,-1.2162,-1.2291,-1.2427,-1.2311,-1.2352,-1.2406,-1.2406,-1.2433,-1.2454,-1.2454,-1.2481,-1.2501,-1.2501,-1.2501,-1.2501,-1.2501,-1.2501,-1.2501,-1.2501,-1.2718,-1.2969,-1.3234,-1.3173,-1.3112,-1.3078,-1.2942,-1.2929,-1.3071,-1.3112,-1.32,-1.3349,-1.3505,-1.3519,-1.3403,-1.3519,-1.36,-1.3634,-1.3871,-1.4014,-1.4082,-1.4197,-1.4272,-1.4299,-1.4299,-1.4299,-1.4299,-1.4299,-1.4299,-1.4299,-1.4299,-1.4299,-1.4299,-1.3403,-1.3403,-1.3403,-1.3403,-1.3403,-1.3403,-1.3403,-1.3403,-1.337,-1.3295,-1.3281,-1.3254,-1.318,-1.3173,-1.3146,-1.3071,-1.3064,-1.303,-1.2969,-1.2963,-1.2963,-1.2963,-1.2963,-1.2963,-1.2963,-1.2949,-1.2868,-1.2718,-1.28,-1.28,-1.2718,-1.2644,-1.261,-1.2603,-1.2528,-1.2494,-1.2501,-1.2501,-1.2501,-1.2508,-1.2583,-1.2569,-1.2522,-1.2752,-1.2793,-1.2732,-1.2813,-1.284,-1.2827,-1.2745,-1.2671,-1.261,-1.261,-1.261,-1.2596,-1.2522,-1.2603,-1.2705,-1.263,-1.2664,-1.2718,-1.2718,-1.2718,-1.2664,-1.2433,-1.2501,-1.2589,-1.2515,-1.2562,-1.2589,-1.2515,-1.2501,-1.2501,-1.2501,-1.2501,-1.2501,-1.2501,-1.2501,-1.2501,-1.2501,-1.2501,-1.2528,-1.2603,-1.2888,-1.3125,-1.3281,-1.322,-1.3173,-1.3173,-1.3037,-1.3024,-1.3166,-1.3241,-1.3356,-1.3505,-1.3654,-1.3688,-1.3614,-1.3688,-1.377,-1.3844,-1.4,-1.4109,-1.4183,-1.4265,-1.4299,-1.4299,-1.4299,-1.4299,-1.4299,-1.4299,-1.4299,-1.4299,-1.4299,-1.4299,-1.4299,-1.3478,-1.3458,-1.3451,-1.3471,-1.3458,-1.3451,-1.3471,-1.3478,-1.3478,-1.3478,-1.3478,-1.3464,-1.3444,-1.3437,-1.339,-1.3261,-1.3247,-1.3193,-1.3044,-1.3064,-1.3078,-1.3078,-1.3098,-1.3112,-1.3112,-1.3227,-1.318,-1.2963,-1.2983,-1.2983,-1.2963,-1.2963,-1.2963,-1.2963,-1.2963,-1.2888,-1.2766,-1.2766,-1.2684,-1.2556,-1.2705,-1.2752,-1.2752,-1.2929,-1.2996,-1.2996,-1.2996,-1.2983,-1.2963,-1.2963,-1.2874,-1.2766,-1.2766,-1.2766,-1.2745,-1.2617,-1.2759,-1.2935,-1.2807,-1.2861,-1.2963,-1.2963,-1.2963,-1.2935,-1.2827,-1.2786,-1.2766,-1.2766,-1.2766,-1.2732,-1.2603,-1.2556,-1.2549,-1.2576,-1.2556,-1.2549,-1.2576,-1.2556,-1.2542,-1.2542,-1.2542,-1.261,-1.2786,-1.303,-1.3186,-1.3207,-1.3214,-1.3214,-1.3214,-1.3098,-1.3105,-1.3247,-1.3376,-1.3512,-1.3661,-1.381,-1.3878,-1.3878,-1.3905,-1.3973,-1.4075,-1.4095,-1.4183,-1.4299,-1.4299,-1.4299,-1.4299,-1.4299,-1.4299,-1.4299,-1.4299,-1.4299,-1.4299,-1.4299,-1.4299,-1.4299,-1.3783,-1.3682,-1.3634,-1.3763,-1.3682,-1.3641,-1.3763,-1.3783,-1.3783,-1.3783,-1.3783,-1.3736,-1.3614,-1.36,-1.3593,-1.3566,-1.3566,-1.3505,-1.3349,-1.3464,-1.3539,-1.3539,-1.3654,-1.3722,-1.3722,-1.3743,-1.3492,-1.2963,-1.3085,-1.3078,-1.2963,-1.2963,-1.2963,-1.2963,-1.2963,-1.2949,-1.2929,-1.2929,-1.284,-1.2712,-1.2868,-1.2847,-1.2759,-1.3037,-1.3146,-1.3146,-1.3146,-1.3064,-1.2963,-1.2963,-1.2949,-1.2929,-1.2929,-1.2929,-1.2929,-1.2901,-1.2929,-1.2956,-1.2935,-1.2942,-1.2963,-1.2963,-1.2963,-1.299,-1.3091,-1.3017,-1.2929,-1.2929,-1.2929,-1.2922,-1.2901,-1.2786,-1.2745,-1.2881,-1.2786,-1.2745,-1.2881,-1.2786,-1.2698,-1.2698,-1.2698,-1.2807,-1.3085,-1.3152,-1.3227,-1.3363,-1.337,-1.337,-1.337,-1.3349,-1.341,-1.3559,-1.3587,-1.3668,-1.381,-1.3966,-1.4041,-1.4041,-1.4177,-1.4183,-1.4075,-1.4211,-1.4278,-1.4299,-1.4299,-1.4299,-1.4299,-1.4299,-1.4299,-1.4299,-1.4299,-1.4299,-1.4299,-1.4299,-1.4299,-1.4299,-1.3838,-1.379,-1.377,-1.3831,-1.379,-1.377,-1.3831,-1.3838,-1.381,-1.3736,-1.379,-1.3783,-1.3648,-1.3702,-1.3749,-1.3749,-1.3749,-1.3722,-1.3648,-1.3709,-1.3749,-1.3749,-1.3804,-1.3838,-1.3838,-1.3838,-1.3715,-1.3451,-1.3437,-1.3349,-1.3207,-1.3207,-1.3207,-1.3207,-1.3207,-1.3159,-1.3078,-1.3078,-1.2996,-1.2874,-1.3017,-1.3037,-1.3003,-1.322,-1.3302,-1.3302,-1.3302,-1.3261,-1.3207,-1.3207,-1.3152,-1.3078,-1.3078,-1.3078,-1.3064,-1.2983,-1.3078,-1.3186,-1.3105,-1.3146,-1.3207,-1.3207,-1.3207,-1.322,-1.3288,-1.3254,-1.318,-1.3098,-1.3078,-1.3057,-1.2976,-1.2908,-1.2881,-1.2949,-1.2901,-1.2881,-1.2949,-1.2901,-1.2861,-1.2861,-1.2929,-1.303,-1.3159,-1.3247,-1.3329,-1.3397,-1.3403,-1.3403,-1.3403,-1.3485,-1.3559,-1.3627,-1.379,-1.3905,-1.3966,-1.4122,-1.4197,-1.4197,-1.4272,-1.4265,-1.4204,-1.4272,-1.4299,-1.4299,-1.4299,-1.4299,-1.4299,-1.4299,-1.4299,-1.4299,-1.4299,-1.4299,-1.4299,-1.4299,-1.4299,-1.4299]}]]